GEFSSGP_prec_meanprecacc_150.txt.gz
Total_Precipitation_Accumulation
0.00 0.03 0.12 0.36 1.09 1.48 1.35 0.71 0.50 0.37 0.35 0.44 0.44 0.40 0.45 0.60 0.78 1.18 0.61 0.19 0.06 0.03 0.05 0.11 0.14 0.11 0.12 0.13 0.14 0.17 0.17 0.16 0.15 0.13 0.12 0.09 0.08 0.08 0.09 0.12 0.13 0.15 0.17 0.16 0.14 0.13 0.13 0.13 0.12
0.00 0.03 0.15 0.52 1.35 1.90 1.42 0.66 0.40 0.27 0.35 0.51 0.59 0.53 0.42 0.45 0.34 0.25 0.26 0.34 0.10 0.03 0.03 0.05 0.12 0.12 0.11 0.11 0.13 0.15 0.16 0.15 0.14 0.13 0.12 0.11 0.12 0.12 0.12 0.13 0.15 0.17 0.17 0.16 0.15 0.12 0.12 0.11 0.11
0.01 0.06 0.21 0.59 0.98 1.20 0.99 0.53 0.29 0.25 0.34 0.54 0.60 0.45 0.38 0.47 0.33 0.19 0.18 0.22 0.11 0.07 0.05 0.05 0.09 0.11 0.12 0.11 0.13 0.14 0.15 0.15 0.15 0.14 0.13 0.13 0.14 0.14 0.16 0.17 0.20 0.19 0.17 0.16 0.15 0.13 0.10 0.10 0.11
0.02 0.09 0.25 0.43 0.50 0.46 0.40 0.32 0.27 0.28 0.37 0.41 0.50 0.49 0.35 0.37 0.30 0.20 0.19 0.19 0.14 0.11 0.09 0.10 0.12 0.12 0.12 0.11 0.11 0.13 0.13 0.13 0.14 0.15 0.15 0.15 0.15 0.17 0.20 0.22 0.21 0.20 0.18 0.14 0.14 0.12 0.09 0.10 0.12
0.02 0.12 0.28 0.35 0.28 0.28 0.30 0.31 0.32 0.35 0.41 0.50 0.61 0.67 0.57 0.35 0.27 0.33 0.37 0.33 0.25 0.18 0.15 0.16 0.18 0.18 0.16 0.14 0.14 0.15 0.14 0.14 0.15 0.17 0.17 0.16 0.18 0.20 0.21 0.22 0.21 0.21 0.18 0.14 0.14 0.16 0.13 0.15 0.18
0.02 0.10 0.18 0.20 0.17 0.20 0.27 0.29 0.30 0.37 0.48 0.67 0.70 0.67 0.62 0.46 0.41 0.44 0.43 0.51 0.50 0.31 0.24 0.20 0.24 0.25 0.21 0.20 0.20 0.19 0.17 0.18 0.17 0.17 0.17 0.17 0.19 0.20 0.19 0.21 0.23 0.22 0.20 0.16 0.14 0.14 0.16 0.21 0.23
0.02 0.08 0.11 0.13 0.12 0.14 0.18 0.27 0.38 0.40 0.50 0.66 0.57 0.57 0.72 0.71 0.62 0.56 0.50 0.54 0.46 0.37 0.36 0.31 0.25 0.24 0.25 0.28 0.29 0.27 0.23 0.24 0.22 0.18 0.17 0.17 0.20 0.21 0.21 0.22 0.27 0.25 0.22 0.22 0.21 0.17 0.16 0.18 0.21
0.01 0.04 0.05 0.08 0.07 0.12 0.12 0.18 0.32 0.45 0.50 0.50 0.51 0.72 1.04 0.88 0.58 0.56 0.60 0.59 0.56 0.55 0.50 0.48 0.42 0.37 0.30 0.29 0.33 0.34 0.31 0.30 0.26 0.23 0.21 0.23 0.26 0.27 0.28 0.26 0.31 0.33 0.30 0.30 0.31 0.27 0.24 0.26 0.30
0.01 0.03 0.04 0.04 0.04 0.08 0.11 0.17 0.26 0.39 0.43 0.52 0.66 0.76 0.82 0.67 0.52 0.63 0.77 0.82 0.89 0.81 0.70 0.60 0.54 0.48 0.40 0.31 0.30 0.35 0.36 0.36 0.32 0.35 0.34 0.38 0.51 0.61 0.63 0.60 0.64 0.62 0.59 0.56 0.54 0.51 0.48 0.43 0.36
0.01 0.03 0.04 0.02 0.03 0.05 0.08 0.17 0.33 0.42 0.51 0.77 1.12 1.18 0.87 0.72 0.67 0.76 0.97 1.04 1.27 1.05 0.77 0.69 0.57 0.51 0.42 0.34 0.42 0.50 0.52 0.54 0.52 0.64 0.69 0.86 1.04 1.05 0.83 0.99 1.08 1.04 1.08 0.97 0.93 1.10 0.93 0.72 0.63
0.00 0.01 0.01 0.02 0.01 0.03 0.08 0.14 0.22 0.38 0.73 1.20 1.33 1.16 0.91 0.98 0.99 0.98 1.20 1.26 1.16 1.05 1.08 1.03 0.84 0.72 0.65 0.68 0.60 0.65 0.76 0.91 0.89 0.89 1.03 1.29 1.21 1.04 0.94 1.03 1.33 1.48 1.55 1.48 1.54 1.63 1.28 1.26 1.43
0.00 0.00 0.00 0.01 0.01 0.03 0.04 0.07 0.14 0.38 0.87 1.03 1.00 0.93 0.89 1.08 1.11 1.17 1.45 1.53 1.57 1.41 1.59 1.71 1.41 1.31 1.17 1.02 0.90 0.81 0.82 1.00 1.15 1.32 1.37 1.53 1.59 1.49 1.34 1.35 1.52 1.69 1.84 2.17 2.11 2.00 1.84 1.79 1.71
0.00 0.00 0.00 0.00 0.02 0.06 0.04 0.08 0.25 0.57 0.78 0.68 0.58 0.81 0.88 1.15 1.42 1.63 1.80 1.72 1.97 2.03 2.17 2.39 1.99 1.83 1.72 1.69 1.51 1.23 1.25 1.32 1.42 1.64 1.75 1.84 2.01 2.02 1.95 1.86 1.78 1.64 1.78 2.12 2.32 2.21 2.24 2.16 2.01
0.00 0.00 0.00 0.01 0.02 0.04 0.07 0.16 0.36 0.63 0.57 0.54 0.69 1.09 1.30 1.23 1.53 1.92 2.04 2.10 2.42 2.58 2.67 2.78 2.62 2.56 2.40 2.18 2.13 1.99 1.66 1.65 1.63 1.71 1.72 1.91 2.14 2.40 2.48 2.37 2.20 1.89 1.81 1.90 2.22 2.33 2.47 2.37 2.24
0.00 0.01 0.04 0.06 0.07 0.06 0.09 0.33 0.49 0.60 0.48 0.55 0.80 1.14 1.48 1.40 1.55 1.82 2.02 2.48 3.15 3.47 3.31 3.28 3.22 3.38 3.20 2.81 2.50 2.22 2.04 1.98 2.02 2.03 1.96 2.09 2.32 2.52 2.53 2.33 1.98 1.76 1.80 1.90 1.85 1.92 2.22 2.03 1.89
0.01 0.04 0.14 0.16 0.11 0.10 0.16 0.56 0.70 0.65 0.75 0.85 1.05 1.23 1.50 1.51 1.54 1.74 2.20 2.96 3.75 4.24 4.10 3.87 3.45 3.61 3.60 3.33 3.07 2.75 2.46 2.43 2.28 2.07 1.96 1.98 2.19 2.16 2.21 1.87 1.49 1.54 1.74 1.80 1.82 1.79 1.91 1.90 1.96
0.03 0.07 0.14 0.22 0.15 0.13 0.22 0.80 0.84 0.60 0.84 1.09 1.04 1.20 1.42 1.55 1.64 1.75 2.33 3.12 3.81 4.48 4.65 4.63 4.47 4.12 3.89 3.69 3.49 3.27 3.05 2.66 2.24 2.06 1.93 1.77 1.66 1.62 1.71 1.47 1.36 1.41 1.55 1.61 1.56 1.75 1.88 1.81 1.87
0.06 0.09 0.15 0.22 0.17 0.16 0.28 0.61 0.71 0.71 0.85 1.00 1.00 1.04 1.16 1.41 1.74 1.86 2.21 2.87 3.61 4.35 4.84 5.04 5.01 4.61 4.13 3.66 3.25 3.12 2.93 2.60 2.32 2.08 1.84 1.54 1.38 1.33 1.50 1.39 1.26 1.35 1.46 1.48 1.62 1.76 1.84 1.63 1.59
0.06 0.09 0.18 0.23 0.17 0.18 0.33 0.51 0.65 0.74 0.96 1.10 1.09 1.05 1.08 1.37 1.78 1.98 2.26 2.66 3.39 4.05 4.66 4.76 4.94 4.39 3.71 3.16 2.76 2.59 2.35 2.06 2.00 1.87 1.68 1.55 1.38 1.32 1.45 1.31 1.23 1.20 1.27 1.26 1.37 1.48 1.51 1.27 1.45
0.09 0.12 0.20 0.22 0.15 0.16 0.33 0.60 0.78 0.86 0.83 0.90 0.92 0.94 0.98 1.38 1.80 2.19 2.72 3.05 3.05 3.51 4.16 4.17 3.80 3.49 3.04 2.56 2.35 2.18 2.07 1.82 1.63 1.45 1.34 1.21 1.12 1.13 1.17 1.16 1.03 1.02 1.10 1.07 1.14 1.28 1.29 1.14 1.35
0.12 0.14 0.18 0.16 0.15 0.21 0.39 0.74 1.02 0.96 0.69 0.63 0.68 0.72 0.86 1.21 1.63 2.04 2.53 2.92 2.86 3.16 3.25 2.82 2.51 2.47 2.38 2.12 1.99 1.94 1.88 1.71 1.40 1.12 0.98 0.92 0.88 0.85 0.83 0.84 0.86 0.92 0.88 0.93 1.01 1.16 1.31 1.19 1.14
0.08 0.08 0.07 0.07 0.13 0.28 0.42 0.93 1.31 1.11 0.82 0.66 0.64 0.74 0.81 0.91 1.09 1.38 1.66 2.07 2.31 2.36 2.23 2.06 1.95 1.91 2.03 1.99 1.78 1.63 1.35 1.22 1.04 0.86 0.83 0.84 0.77 0.71 0.65 0.65 0.76 0.83 0.85 0.95 0.84 0.90 1.09 1.19 1.05
0.05 0.04 0.05 0.08 0.12 0.27 0.47 0.79 1.17 1.16 1.10 0.93 0.76 0.75 0.67 0.64 0.73 0.89 0.98 1.21 1.49 1.65 1.65 1.54 1.74 1.82 1.83 1.79 1.72 1.65 1.39 1.18 1.05 0.99 1.00 0.92 0.83 0.72 0.63 0.60 0.62 0.71 0.81 0.88 0.87 0.91 0.92 0.98 0.95
0.04 0.05 0.12 0.25 0.37 0.69 0.68 0.72 1.05 1.01 0.96 0.93 0.73 0.58 0.48 0.42 0.53 0.69 0.71 0.77 0.91 1.00 1.07 1.14 1.35 1.54 1.58 1.54 1.54 1.54 1.42 1.26 1.09 0.99 0.93 0.83 0.78 0.71 0.63 0.61 0.64 0.63 0.65 0.70 0.76 0.80 0.82 0.87 0.89
0.05 0.09 0.32 0.69 1.00 1.16 0.72 0.69 0.88 0.76 0.77 0.82 0.60 0.36 0.30 0.32 0.37 0.47 0.49 0.50 0.57 0.62 0.70 0.79 0.96 1.11 1.22 1.27 1.29 1.31 1.40 1.26 1.05 0.86 0.83 0.75 0.65 0.61 0.60 0.58 0.67 0.71 0.71 0.70 0.71 0.74 0.81 0.87 0.92
0.06 0.07 0.19 0.34 0.49 0.69 0.73 1.08 1.01 0.63 0.59 0.50 0.30 0.18 0.18 0.26 0.26 0.28 0.30 0.33 0.38 0.38 0.47 0.56 0.65 0.75 0.86 1.04 1.18 1.10 1.17 1.06 0.92 0.95 0.88 0.75 0.60 0.60 0.69 0.70 0.70 0.72 0.75 0.75 0.85 0.84 0.88 0.93 0.94
0.05 0.05 0.06 0.10 0.15 0.43 0.81 1.16 0.93 0.50 0.45 0.30 0.19 0.13 0.14 0.15 0.18 0.18 0.19 0.18 0.23 0.27 0.32 0.42 0.55 0.68 0.72 0.79 0.96 1.03 1.00 0.96 0.95 0.97 0.93 0.81 0.71 0.61 0.64 0.68 0.74 0.74 0.76 0.80 0.90 0.90 0.95 1.02 1.02
0.06 0.06 0.06 0.07 0.15 0.33 0.66 1.01 1.03 0.72 0.51 0.31 0.20 0.17 0.23 0.18 0.21 0.18 0.14 0.14 0.19 0.24 0.29 0.40 0.51 0.66 0.78 0.78 0.77 0.82 0.96 0.99 1.04 1.01 0.86 0.79 0.74 0.69 0.68 0.64 0.69 0.71 0.73 0.80 0.94 0.96 1.04 1.15 1.18
0.08 0.08 0.09 0.10 0.12 0.21 0.49 0.72 0.62 0.58 0.40 0.27 0.24 0.27 0.21 0.17 0.19 0.16 0.12 0.14 0.19 0.23 0.28 0.37 0.48 0.71 0.85 0.76 0.76 0.85 0.93 0.98 1.00 1.12 1.03 0.87 0.80 0.74 0.68 0.62 0.62 0.62 0.63 0.70 0.84 0.98 1.10 1.19 1.22
0.10 0.10 0.11 0.14 0.16 0.17 0.26 0.45 0.38 0.41 0.32 0.30 0.24 0.25 0.20 0.18 0.18 0.19 0.16 0.16 0.21 0.27 0.32 0.40 0.49 0.65 0.74 0.74 0.79 0.84 0.88 0.91 0.90 0.94 0.99 0.98 0.86 0.76 0.71 0.67 0.64 0.54 0.54 0.65 0.78 0.91 1.06 1.19 1.28

GEFSSGP_prec_meanprecacc_156.txt.gz
Total_Precipitation_Accumulation
0.01 0.06 0.18 0.42 1.21 1.60 1.41 0.73 0.50 0.38 0.35 0.45 0.45 0.40 0.47 0.61 0.80 1.20 0.64 0.22 0.07 0.03 0.06 0.11 0.14 0.12 0.12 0.14 0.15 0.18 0.18 0.17 0.15 0.14 0.12 0.10 0.08 0.09 0.10 0.13 0.14 0.16 0.19 0.18 0.16 0.16 0.15 0.14 0.13
0.02 0.08 0.23 0.63 1.50 1.99 1.47 0.68 0.42 0.29 0.37 0.51 0.60 0.55 0.45 0.46 0.34 0.25 0.27 0.36 0.11 0.03 0.03 0.06 0.12 0.13 0.12 0.12 0.14 0.16 0.17 0.16 0.15 0.14 0.13 0.12 0.13 0.13 0.14 0.15 0.17 0.18 0.19 0.18 0.16 0.14 0.14 0.12 0.12
0.04 0.10 0.29 0.72 1.12 1.27 1.04 0.55 0.31 0.29 0.37 0.55 0.61 0.46 0.39 0.48 0.34 0.20 0.19 0.24 0.12 0.07 0.05 0.06 0.10 0.12 0.12 0.12 0.13 0.15 0.16 0.16 0.16 0.15 0.15 0.14 0.15 0.16 0.18 0.19 0.21 0.21 0.19 0.17 0.16 0.14 0.11 0.11 0.13
0.05 0.13 0.34 0.54 0.57 0.50 0.42 0.33 0.29 0.32 0.41 0.44 0.51 0.50 0.36 0.37 0.31 0.22 0.21 0.20 0.14 0.11 0.09 0.11 0.12 0.12 0.12 0.12 0.12 0.13 0.14 0.14 0.16 0.16 0.17 0.17 0.17 0.19 0.23 0.23 0.23 0.23 0.19 0.15 0.15 0.13 0.10 0.11 0.13
0.05 0.18 0.40 0.43 0.32 0.32 0.33 0.33 0.33 0.38 0.43 0.54 0.65 0.68 0.59 0.36 0.29 0.37 0.44 0.38 0.26 0.18 0.15 0.16 0.18 0.18 0.16 0.14 0.15 0.15 0.15 0.15 0.17 0.19 0.20 0.18 0.19 0.22 0.24 0.24 0.22 0.22 0.19 0.15 0.15 0.17 0.14 0.17 0.20
0.07 0.19 0.25 0.26 0.22 0.25 0.31 0.31 0.32 0.39 0.50 0.73 0.75 0.69 0.64 0.49 0.44 0.48 0.48 0.61 0.57 0.32 0.24 0.21 0.24 0.25 0.22 0.20 0.21 0.20 0.18 0.19 0.19 0.18 0.19 0.19 0.21 0.22 0.21 0.22 0.24 0.24 0.22 0.18 0.15 0.15 0.17 0.22 0.25
0.11 0.22 0.17 0.18 0.15 0.19 0.20 0.29 0.39 0.44 0.55 0.73 0.64 0.60 0.76 0.77 0.65 0.59 0.54 0.63 0.58 0.40 0.37 0.32 0.25 0.24 0.25 0.28 0.30 0.28 0.24 0.25 0.24 0.20 0.19 0.19 0.22 0.22 0.22 0.23 0.28 0.27 0.24 0.23 0.22 0.17 0.17 0.20 0.23
0.06 0.11 0.09 0.13 0.12 0.15 0.14 0.19 0.34 0.48 0.55 0.55 0.59 0.76 1.07 0.96 0.63 0.60 0.64 0.62 0.59 0.56 0.52 0.49 0.43 0.37 0.30 0.29 0.33 0.35 0.32 0.31 0.27 0.25 0.24 0.26 0.29 0.29 0.30 0.27 0.33 0.34 0.31 0.31 0.31 0.28 0.25 0.28 0.31
0.03 0.06 0.07 0.07 0.08 0.12 0.13 0.19 0.28 0.42 0.47 0.56 0.74 0.80 0.85 0.70 0.55 0.69 0.82 0.86 0.92 0.83 0.71 0.61 0.54 0.48 0.40 0.31 0.30 0.36 0.37 0.37 0.33 0.36 0.36 0.40 0.52 0.62 0.65 0.61 0.65 0.64 0.60 0.57 0.55 0.54 0.50 0.44 0.37
0.03 0.05 0.06 0.04 0.05 0.08 0.11 0.19 0.35 0.47 0.57 0.83 1.16 1.21 0.92 0.75 0.70 0.80 1.03 1.10 1.34 1.12 0.80 0.70 0.58 0.52 0.42 0.35 0.44 0.51 0.53 0.55 0.53 0.65 0.70 0.87 1.05 1.06 0.85 1.01 1.10 1.07 1.10 0.99 0.96 1.13 0.95 0.73 0.65
0.01 0.02 0.01 0.02 0.03 0.04 0.09 0.16 0.25 0.40 0.77 1.26 1.36 1.19 0.94 1.01 1.01 1.01 1.27 1.35 1.32 1.17 1.12 1.05 0.85 0.73 0.66 0.71 0.64 0.70 0.80 0.93 0.90 0.90 1.04 1.30 1.23 1.06 0.96 1.05 1.35 1.50 1.57 1.50 1.56 1.67 1.33 1.29 1.48
0.00 0.00 0.01 0.02 0.03 0.03 0.04 0.08 0.17 0.40 0.89 1.05 1.02 0.95 0.90 1.10 1.13 1.22 1.50 1.57 1.60 1.47 1.70 1.76 1.43 1.33 1.19 1.03 0.92 0.84 0.86 1.04 1.18 1.35 1.39 1.55 1.62 1.51 1.35 1.37 1.55 1.71 1.85 2.18 2.15 2.05 1.91 1.86 1.78
0.00 0.00 0.00 0.01 0.03 0.06 0.04 0.08 0.26 0.59 0.80 0.69 0.59 0.82 0.89 1.21 1.50 1.68 1.86 1.77 2.00 2.08 2.28 2.45 2.01 1.88 1.75 1.70 1.53 1.25 1.31 1.41 1.49 1.67 1.78 1.87 2.04 2.04 1.97 1.89 1.82 1.69 1.81 2.15 2.36 2.26 2.29 2.21 2.06
0.00 0.00 0.01 0.01 0.02 0.04 0.07 0.16 0.37 0.65 0.59 0.55 0.71 1.11 1.31 1.28 1.56 1.94 2.07 2.14 2.44 2.60 2.70 2.81 2.67 2.64 2.46 2.21 2.15 2.05 1.76 1.73 1.74 1.77 1.76 1.94 2.17 2.42 2.51 2.40 2.26 1.95 1.86 1.94 2.25 2.36 2.51 2.42 2.29
0.00 0.01 0.04 0.06 0.07 0.06 0.10 0.34 0.52 0.66 0.55 0.58 0.82 1.17 1.51 1.43 1.58 1.86 2.05 2.50 3.17 3.49 3.35 3.33 3.30 3.49 3.28 2.86 2.55 2.27 2.11 2.07 2.12 2.12 2.02 2.14 2.35 2.54 2.55 2.36 2.01 1.80 1.84 1.94 1.89 1.95 2.25 2.07 1.94
0.01 0.04 0.14 0.16 0.11 0.10 0.17 0.57 0.72 0.69 0.82 0.90 1.08 1.25 1.52 1.55 1.58 1.80 2.27 3.01 3.80 4.28 4.16 3.93 3.52 3.72 3.66 3.37 3.12 2.80 2.52 2.54 2.42 2.16 2.07 2.05 2.22 2.18 2.23 1.89 1.52 1.58 1.77 1.84 1.87 1.83 1.95 1.95 2.00
0.03 0.07 0.14 0.22 0.16 0.13 0.23 0.81 0.85 0.64 0.90 1.16 1.08 1.23 1.44 1.60 1.72 1.84 2.40 3.20 3.94 4.62 4.78 4.71 4.54 4.19 3.93 3.74 3.55 3.34 3.13 2.78 2.37 2.15 2.06 1.88 1.69 1.64 1.73 1.50 1.38 1.44 1.58 1.66 1.60 1.79 1.92 1.85 1.91
0.06 0.09 0.15 0.22 0.18 0.16 0.29 0.62 0.72 0.74 0.89 1.05 1.05 1.08 1.18 1.43 1.81 1.94 2.25 2.94 3.75 4.53 5.02 5.12 5.08 4.67 4.20 3.73 3.32 3.20 3.00 2.73 2.45 2.19 1.95 1.64 1.43 1.36 1.52 1.41 1.28 1.38 1.49 1.52 1.67 1.81 1.89 1.67 1.62
0.06 0.09 0.18 0.24 0.17 0.19 0.34 0.52 0.66 0.77 0.99 1.13 1.15 1.09 1.10 1.41 1.83 2.05 2.33 2.73 3.47 4.16 4.79 4.85 5.01 4.44 3.79 3.22 2.81 2.64 2.39 2.14 2.10 1.96 1.77 1.63 1.44 1.36 1.48 1.33 1.25 1.22 1.30 1.29 1.41 1.52 1.55 1.30 1.48
0.09 0.12 0.20 0.22 0.15 0.17 0.34 0.60 0.79 0.88 0.86 0.93 0.96 1.00 1.08 1.46 1.92 2.28 2.80 3.13 3.12 3.61 4.27 4.25 3.87 3.55 3.09 2.62 2.40 2.22 2.12 1.87 1.69 1.52 1.42 1.27 1.17 1.18 1.20 1.19 1.05 1.04 1.13 1.11 1.18 1.30 1.31 1.16 1.38
0.12 0.14 0.18 0.16 0.15 0.22 0.40 0.75 1.03 0.97 0.74 0.67 0.72 0.77 0.92 1.27 1.77 2.20 2.61 2.99 2.94 3.25 3.33 2.89 2.59 2.53 2.43 2.20 2.08 2.02 1.95 1.76 1.46 1.18 1.06 0.99 0.93 0.90 0.88 0.87 0.89 0.94 0.90 0.96 1.04 1.18 1.32 1.20 1.15
0.08 0.08 0.07 0.07 0.13 0.28 0.42 0.94 1.32 1.12 0.84 0.70 0.70 0.81 0.88 0.98 1.16 1.47 1.79 2.21 2.40 2.42 2.29 2.15 2.04 1.99 2.11 2.08 1.86 1.70 1.40 1.25 1.09 0.92 0.92 0.92 0.82 0.75 0.71 0.71 0.80 0.87 0.88 0.98 0.87 0.92 1.11 1.20 1.07
0.05 0.04 0.05 0.08 0.13 0.27 0.47 0.79 1.18 1.17 1.12 0.97 0.83 0.86 0.78 0.72 0.79 0.99 1.10 1.31 1.59 1.76 1.74 1.64 1.84 1.91 1.90 1.84 1.77 1.71 1.45 1.22 1.10 1.08 1.11 1.02 0.90 0.77 0.69 0.67 0.67 0.76 0.85 0.91 0.90 0.93 0.94 0.99 0.96
0.04 0.05 0.12 0.25 0.37 0.69 0.68 0.73 1.07 1.02 0.98 0.96 0.78 0.66 0.61 0.56 0.61 0.78 0.84 0.88 1.00 1.10 1.16 1.23 1.45 1.64 1.66 1.61 1.58 1.58 1.48 1.33 1.16 1.07 1.01 0.93 0.88 0.80 0.72 0.69 0.71 0.69 0.70 0.74 0.79 0.83 0.84 0.89 0.91
0.05 0.09 0.32 0.69 1.00 1.17 0.72 0.70 0.89 0.78 0.79 0.85 0.65 0.42 0.38 0.42 0.44 0.53 0.59 0.64 0.70 0.72 0.78 0.88 1.06 1.22 1.33 1.38 1.38 1.38 1.47 1.33 1.13 0.94 0.92 0.86 0.75 0.71 0.70 0.68 0.75 0.79 0.77 0.75 0.76 0.78 0.84 0.90 0.94
0.06 0.07 0.19 0.34 0.49 0.70 0.74 1.09 1.02 0.65 0.62 0.53 0.35 0.24 0.22 0.34 0.35 0.34 0.36 0.39 0.48 0.48 0.55 0.64 0.72 0.82 0.94 1.13 1.27 1.18 1.23 1.12 0.99 1.04 0.97 0.84 0.69 0.70 0.82 0.83 0.81 0.81 0.82 0.81 0.91 0.89 0.91 0.95 0.96
0.05 0.05 0.06 0.10 0.16 0.44 0.82 1.17 0.96 0.55 0.50 0.36 0.24 0.18 0.20 0.24 0.30 0.29 0.26 0.25 0.29 0.31 0.36 0.46 0.61 0.74 0.78 0.86 1.06 1.13 1.06 1.01 1.03 1.07 1.01 0.91 0.82 0.73 0.80 0.84 0.87 0.85 0.84 0.88 0.99 0.98 1.01 1.08 1.06
0.06 0.06 0.06 0.07 0.15 0.33 0.69 1.05 1.08 0.80 0.57 0.35 0.26 0.25 0.30 0.27 0.32 0.35 0.26 0.21 0.25 0.27 0.31 0.42 0.53 0.70 0.84 0.83 0.83 0.88 1.03 1.08 1.13 1.11 0.94 0.86 0.83 0.80 0.79 0.77 0.81 0.84 0.85 0.92 1.07 1.08 1.13 1.24 1.25
0.08 0.08 0.09 0.10 0.12 0.21 0.52 0.76 0.66 0.63 0.45 0.33 0.34 0.40 0.28 0.24 0.27 0.30 0.23 0.21 0.25 0.27 0.32 0.40 0.50 0.74 0.89 0.81 0.82 0.90 1.00 1.06 1.10 1.23 1.14 0.98 0.90 0.85 0.79 0.74 0.75 0.75 0.76 0.84 0.98 1.11 1.21 1.30 1.31
0.10 0.10 0.11 0.14 0.16 0.17 0.27 0.48 0.40 0.45 0.41 0.48 0.53 0.48 0.36 0.32 0.27 0.29 0.27 0.30 0.30 0.34 0.37 0.45 0.53 0.69 0.79 0.80 0.84 0.88 0.94 0.97 0.98 1.03 1.08 1.08 0.97 0.88 0.83 0.81 0.79 0.68 0.66 0.76 0.88 1.02 1.19 1.31 1.38

GEFSSGP_prec_meanprecacc_162.txt.gz
Total_Precipitation_Accumulation
0.02 0.06 0.18 0.43 1.22 1.61 1.42 0.74 0.52 0.40 0.36 0.46 0.46 0.41 0.48 0.61 0.80 1.21 0.65 0.22 0.07 0.04 0.06 0.12 0.16 0.13 0.14 0.14 0.15 0.18 0.18 0.18 0.16 0.14 0.13 0.11 0.09 0.10 0.12 0.15 0.17 0.19 0.22 0.21 0.18 0.18 0.17 0.15 0.14
0.02 0.08 0.23 0.64 1.50 2.00 1.49 0.70 0.43 0.30 0.38 0.51 0.60 0.55 0.45 0.47 0.34 0.25 0.27 0.37 0.11 0.03 0.04 0.06 0.13 0.14 0.12 0.13 0.15 0.17 0.18 0.17 0.15 0.14 0.14 0.13 0.14 0.16 0.17 0.18 0.19 0.20 0.20 0.19 0.18 0.15 0.15 0.14 0.13
0.04 0.11 0.30 0.73 1.13 1.30 1.07 0.58 0.33 0.31 0.38 0.55 0.61 0.46 0.40 0.49 0.34 0.20 0.19 0.24 0.12 0.07 0.05 0.07 0.11 0.13 0.13 0.12 0.14 0.16 0.17 0.16 0.16 0.16 0.16 0.15 0.17 0.19 0.20 0.21 0.23 0.22 0.20 0.19 0.17 0.15 0.13 0.13 0.15
0.05 0.14 0.35 0.56 0.58 0.52 0.45 0.36 0.31 0.33 0.41 0.44 0.52 0.51 0.37 0.39 0.32 0.23 0.22 0.21 0.15 0.12 0.10 0.12 0.14 0.13 0.13 0.13 0.13 0.14 0.15 0.15 0.16 0.16 0.18 0.19 0.18 0.21 0.25 0.25 0.25 0.24 0.21 0.16 0.16 0.15 0.12 0.13 0.16
0.06 0.20 0.42 0.45 0.33 0.34 0.35 0.34 0.35 0.39 0.44 0.54 0.66 0.69 0.61 0.39 0.31 0.40 0.46 0.39 0.28 0.20 0.17 0.17 0.20 0.19 0.16 0.15 0.15 0.16 0.16 0.16 0.17 0.20 0.21 0.20 0.21 0.24 0.26 0.26 0.24 0.24 0.20 0.16 0.17 0.19 0.17 0.20 0.23
0.07 0.20 0.26 0.27 0.24 0.27 0.34 0.34 0.34 0.40 0.51 0.73 0.75 0.70 0.66 0.52 0.45 0.53 0.56 0.65 0.61 0.36 0.27 0.23 0.27 0.26 0.22 0.20 0.22 0.21 0.19 0.20 0.20 0.19 0.20 0.20 0.22 0.24 0.23 0.24 0.26 0.25 0.23 0.20 0.18 0.18 0.21 0.26 0.29
0.11 0.22 0.17 0.19 0.17 0.20 0.23 0.32 0.42 0.45 0.56 0.73 0.64 0.60 0.77 0.79 0.67 0.62 0.60 0.66 0.60 0.43 0.41 0.35 0.28 0.26 0.26 0.29 0.30 0.29 0.25 0.26 0.25 0.21 0.20 0.20 0.23 0.24 0.24 0.25 0.29 0.28 0.25 0.25 0.24 0.20 0.20 0.23 0.27
0.06 0.11 0.09 0.13 0.13 0.17 0.16 0.22 0.37 0.52 0.57 0.56 0.59 0.76 1.08 0.97 0.63 0.61 0.66 0.64 0.61 0.59 0.55 0.52 0.45 0.38 0.31 0.30 0.34 0.36 0.33 0.33 0.29 0.26 0.25 0.28 0.31 0.31 0.31 0.29 0.35 0.36 0.32 0.32 0.33 0.30 0.28 0.31 0.35
0.03 0.06 0.07 0.08 0.09 0.14 0.16 0.21 0.31 0.45 0.49 0.56 0.74 0.80 0.85 0.70 0.56 0.70 0.84 0.87 0.94 0.85 0.73 0.63 0.56 0.49 0.41 0.32 0.32 0.37 0.39 0.38 0.34 0.37 0.38 0.42 0.54 0.63 0.66 0.62 0.68 0.66 0.62 0.59 0.58 0.57 0.53 0.47 0.42
0.03 0.05 0.06 0.04 0.06 0.11 0.13 0.21 0.37 0.50 0.60 0.84 1.17 1.21 0.92 0.75 0.70 0.81 1.04 1.11 1.35 1.13 0.80 0.71 0.59 0.53 0.43 0.35 0.44 0.52 0.54 0.57 0.53 0.66 0.71 0.87 1.06 1.07 0.86 1.03 1.14 1.10 1.13 1.02 0.98 1.16 0.97 0.74 0.67
0.01 0.02 0.01 0.02 0.03 0.04 0.10 0.17 0.26 0.43 0.79 1.27 1.36 1.19 0.94 1.01 1.01 1.02 1.32 1.39 1.32 1.17 1.13 1.05 0.85 0.74 0.67 0.71 0.65 0.71 0.80 0.94 0.91 0.91 1.04 1.30 1.23 1.07 0.97 1.07 1.38 1.53 1.60 1.51 1.57 1.68 1.34 1.30 1.49
0.00 0.01 0.01 0.02 0.03 0.04 0.05 0.08 0.18 0.40 0.89 1.05 1.02 0.95 0.91 1.10 1.14 1.22 1.52 1.60 1.61 1.47 1.70 1.77 1.43 1.34 1.20 1.03 0.92 0.85 0.86 1.04 1.18 1.35 1.40 1.56 1.62 1.52 1.37 1.39 1.57 1.73 1.86 2.19 2.15 2.06 1.92 1.87 1.80
0.00 0.00 0.01 0.01 0.03 0.07 0.05 0.09 0.26 0.59 0.80 0.69 0.59 0.82 0.89 1.21 1.50 1.68 1.86 1.77 2.00 2.08 2.28 2.46 2.03 1.89 1.77 1.71 1.54 1.26 1.31 1.42 1.50 1.68 1.80 1.89 2.05 2.06 1.99 1.90 1.84 1.69 1.82 2.16 2.38 2.27 2.30 2.22 2.08
0.00 0.00 0.01 0.02 0.03 0.05 0.08 0.16 0.37 0.65 0.59 0.55 0.71 1.11 1.32 1.28 1.56 1.94 2.07 2.14 2.45 2.61 2.71 2.83 2.70 2.67 2.49 2.25 2.19 2.07 1.78 1.74 1.75 1.79 1.77 1.96 2.19 2.44 2.54 2.43 2.28 1.95 1.87 1.95 2.26 2.38 2.52 2.44 2.31
0.00 0.01 0.04 0.06 0.07 0.06 0.10 0.34 0.52 0.66 0.55 0.58 0.82 1.17 1.51 1.44 1.58 1.86 2.06 2.52 3.21 3.51 3.37 3.38 3.36 3.56 3.32 2.90 2.60 2.30 2.13 2.08 2.14 2.14 2.04 2.17 2.38 2.57 2.58 2.39 2.03 1.82 1.86 1.95 1.90 1.97 2.27 2.09 1.96
0.01 0.05 0.14 0.16 0.11 0.10 0.17 0.58 0.72 0.69 0.83 0.90 1.08 1.25 1.53 1.56 1.59 1.81 2.28 3.03 3.85 4.33 4.21 4.00 3.59 3.82 3.75 3.42 3.16 2.84 2.57 2.57 2.47 2.21 2.12 2.09 2.26 2.21 2.26 1.91 1.53 1.61 1.80 1.86 1.88 1.85 1.97 1.97 2.03
0.03 0.07 0.14 0.22 0.16 0.13 0.23 0.82 0.86 0.65 0.91 1.16 1.09 1.24 1.45 1.61 1.73 1.86 2.42 3.23 4.00 4.71 4.89 4.83 4.67 4.32 4.03 3.83 3.64 3.43 3.22 2.86 2.45 2.23 2.13 1.92 1.73 1.67 1.77 1.53 1.41 1.47 1.61 1.69 1.61 1.80 1.95 1.89 1.95
0.06 0.09 0.15 0.22 0.18 0.16 0.29 0.62 0.72 0.74 0.90 1.06 1.06 1.09 1.19 1.44 1.82 1.96 2.29 2.99 3.85 4.68 5.18 5.31 5.26 4.83 4.31 3.83 3.41 3.30 3.11 2.82 2.54 2.27 2.02 1.70 1.49 1.40 1.56 1.45 1.34 1.42 1.53 1.55 1.68 1.82 1.91 1.70 1.67
0.06 0.09 0.18 0.24 0.17 0.19 0.34 0.52 0.66 0.77 1.00 1.14 1.16 1.10 1.11 1.42 1.84 2.08 2.37 2.83 3.59 4.30 4.93 4.98 5.15 4.59 3.91 3.31 2.88 2.74 2.49 2.21 2.18 2.05 1.85 1.69 1.50 1.41 1.53 1.38 1.30 1.26 1.33 1.32 1.43 1.55 1.58 1.35 1.52
0.09 0.12 0.20 0.22 0.15 0.17 0.34 0.61 0.79 0.88 0.87 0.94 0.97 1.01 1.10 1.47 1.94 2.31 2.85 3.19 3.19 3.69 4.36 4.37 3.99 3.68 3.21 2.74 2.51 2.33 2.22 1.97 1.79 1.62 1.51 1.33 1.23 1.24 1.25 1.24 1.10 1.07 1.15 1.14 1.22 1.33 1.34 1.20 1.41
0.12 0.14 0.18 0.16 0.15 0.22 0.40 0.75 1.03 0.98 0.74 0.68 0.73 0.79 0.94 1.28 1.80 2.24 2.66 3.05 3.00 3.35 3.43 2.99 2.71 2.68 2.57 2.35 2.22 2.13 2.05 1.85 1.53 1.26 1.14 1.07 1.00 0.96 0.93 0.92 0.93 0.98 0.93 0.99 1.08 1.22 1.36 1.24 1.18
0.08 0.08 0.07 0.07 0.13 0.28 0.42 0.94 1.32 1.12 0.84 0.71 0.72 0.83 0.91 1.00 1.19 1.52 1.84 2.27 2.46 2.51 2.40 2.25 2.15 2.12 2.24 2.20 1.99 1.80 1.46 1.29 1.13 0.99 1.01 1.01 0.90 0.83 0.78 0.77 0.87 0.92 0.92 1.02 0.91 0.96 1.15 1.24 1.11
0.05 0.04 0.05 0.08 0.13 0.27 0.47 0.79 1.18 1.17 1.12 0.97 0.85 0.88 0.80 0.75 0.83 1.03 1.16 1.36 1.64 1.84 1.85 1.77 1.97 2.03 2.01 1.94 1.87 1.82 1.55 1.29 1.18 1.17 1.22 1.13 1.00 0.86 0.76 0.74 0.75 0.83 0.91 0.96 0.95 0.97 0.97 1.02 0.99
0.04 0.05 0.12 0.25 0.37 0.69 0.68 0.73 1.07 1.02 0.98 0.96 0.80 0.68 0.64 0.60 0.65 0.83 0.90 0.94 1.06 1.17 1.25 1.32 1.53 1.73 1.76 1.71 1.68 1.67 1.57 1.40 1.21 1.12 1.09 1.03 0.98 0.90 0.80 0.77 0.81 0.79 0.78 0.79 0.84 0.88 0.88 0.92 0.94
0.05 0.09 0.32 0.69 1.00 1.17 0.72 0.70 0.89 0.78 0.80 0.86 0.66 0.44 0.40 0.46 0.48 0.57 0.64 0.71 0.78 0.79 0.84 0.95 1.12 1.30 1.43 1.49 1.48 1.49 1.56 1.41 1.19 0.99 0.97 0.92 0.82 0.79 0.79 0.77 0.86 0.91 0.88 0.83 0.83 0.84 0.89 0.95 0.98
0.06 0.07 0.19 0.34 0.49 0.70 0.74 1.09 1.02 0.65 0.62 0.53 0.36 0.25 0.24 0.36 0.38 0.39 0.41 0.45 0.55 0.55 0.61 0.70 0.77 0.89 1.03 1.23 1.36 1.27 1.32 1.18 1.04 1.08 1.01 0.88 0.73 0.77 0.93 0.96 0.95 0.95 0.97 0.93 1.00 0.97 0.98 1.02 1.02
0.05 0.05 0.06 0.10 0.16 0.44 0.82 1.17 0.96 0.55 0.51 0.37 0.25 0.19 0.23 0.27 0.35 0.34 0.31 0.30 0.34 0.36 0.41 0.51 0.66 0.80 0.86 0.93 1.13 1.21 1.14 1.08 1.08 1.12 1.07 0.95 0.87 0.82 0.92 0.97 1.00 0.97 0.95 0.98 1.09 1.08 1.11 1.16 1.13
0.06 0.06 0.06 0.07 0.15 0.33 0.69 1.05 1.09 0.81 0.58 0.36 0.27 0.27 0.34 0.31 0.37 0.41 0.31 0.25 0.28 0.30 0.34 0.46 0.58 0.76 0.90 0.89 0.88 0.94 1.08 1.11 1.18 1.17 0.99 0.91 0.90 0.87 0.87 0.85 0.90 0.94 0.94 1.01 1.17 1.18 1.22 1.35 1.34
0.08 0.08 0.09 0.10 0.12 0.21 0.52 0.76 0.66 0.63 0.46 0.34 0.37 0.44 0.31 0.27 0.31 0.36 0.29 0.24 0.29 0.31 0.37 0.46 0.56 0.80 0.95 0.86 0.86 0.93 1.03 1.09 1.13 1.27 1.20 1.04 0.97 0.91 0.86 0.82 0.83 0.85 0.85 0.92 1.06 1.20 1.31 1.40 1.40
0.10 0.10 0.11 0.14 0.16 0.17 0.27 0.48 0.40 0.46 0.42 0.49 0.56 0.51 0.40 0.35 0.31 0.35 0.34 0.36 0.38 0.42 0.45 0.53 0.61 0.76 0.85 0.85 0.89 0.92 0.97 1.01 1.02 1.08 1.13 1.14 1.03 0.93 0.89 0.89 0.88 0.78 0.76 0.85 0.97 1.11 1.28 1.40 1.47

GEFSSGP_prec_meanprecacc_168.txt.gz
Total_Precipitation_Accumulation
0.02 0.06 0.18 0.43 1.22 1.61 1.43 0.74 0.52 0.40 0.37 0.46 0.46 0.41 0.49 0.62 0.81 1.22 0.65 0.22 0.07 0.04 0.07 0.14 0.18 0.15 0.15 0.17 0.18 0.20 0.21 0.20 0.18 0.16 0.15 0.12 0.11 0.12 0.15 0.18 0.20 0.23 0.26 0.23 0.19 0.19 0.19 0.17 0.16
0.02 0.08 0.23 0.64 1.50 2.01 1.49 0.71 0.44 0.31 0.38 0.52 0.60 0.56 0.46 0.48 0.35 0.26 0.28 0.37 0.11 0.03 0.04 0.07 0.14 0.15 0.14 0.14 0.17 0.19 0.20 0.19 0.17 0.16 0.16 0.16 0.17 0.19 0.23 0.23 0.22 0.24 0.23 0.21 0.19 0.16 0.17 0.15 0.15
0.04 0.11 0.30 0.73 1.13 1.31 1.08 0.58 0.34 0.32 0.38 0.55 0.61 0.47 0.40 0.49 0.34 0.21 0.19 0.24 0.13 0.08 0.06 0.08 0.12 0.14 0.14 0.14 0.16 0.18 0.18 0.18 0.18 0.18 0.19 0.20 0.21 0.23 0.25 0.25 0.26 0.25 0.23 0.21 0.20 0.17 0.14 0.15 0.17
0.05 0.14 0.36 0.56 0.58 0.52 0.45 0.36 0.31 0.33 0.41 0.44 0.52 0.51 0.37 0.39 0.32 0.23 0.22 0.21 0.16 0.12 0.10 0.14 0.16 0.15 0.15 0.15 0.15 0.16 0.17 0.17 0.18 0.18 0.21 0.22 0.22 0.25 0.30 0.29 0.28 0.26 0.24 0.19 0.18 0.18 0.15 0.15 0.18
0.06 0.20 0.42 0.45 0.33 0.34 0.35 0.34 0.35 0.39 0.44 0.54 0.66 0.69 0.61 0.40 0.32 0.41 0.47 0.40 0.29 0.21 0.19 0.21 0.24 0.22 0.19 0.17 0.17 0.18 0.17 0.18 0.19 0.22 0.23 0.23 0.24 0.28 0.30 0.29 0.26 0.25 0.23 0.18 0.18 0.21 0.20 0.23 0.27
0.07 0.20 0.26 0.27 0.24 0.27 0.34 0.35 0.35 0.40 0.51 0.73 0.75 0.70 0.67 0.53 0.46 0.54 0.57 0.66 0.62 0.36 0.29 0.27 0.32 0.31 0.26 0.23 0.23 0.22 0.21 0.22 0.22 0.21 0.22 0.23 0.25 0.28 0.26 0.27 0.28 0.27 0.24 0.22 0.20 0.21 0.25 0.31 0.34
0.11 0.22 0.17 0.19 0.17 0.20 0.23 0.32 0.43 0.46 0.56 0.73 0.64 0.61 0.77 0.80 0.67 0.63 0.61 0.66 0.61 0.44 0.42 0.37 0.32 0.30 0.30 0.32 0.34 0.32 0.27 0.28 0.27 0.23 0.23 0.23 0.26 0.28 0.27 0.28 0.32 0.30 0.27 0.28 0.28 0.23 0.24 0.27 0.32
0.07 0.11 0.09 0.13 0.13 0.17 0.16 0.22 0.37 0.52 0.57 0.56 0.59 0.76 1.08 0.97 0.64 0.62 0.66 0.65 0.63 0.60 0.57 0.56 0.48 0.42 0.36 0.34 0.38 0.39 0.35 0.35 0.31 0.29 0.28 0.32 0.36 0.36 0.36 0.32 0.38 0.38 0.35 0.36 0.37 0.33 0.32 0.36 0.41
0.03 0.06 0.07 0.08 0.09 0.14 0.16 0.21 0.31 0.45 0.49 0.56 0.74 0.80 0.86 0.71 0.56 0.71 0.84 0.88 0.95 0.86 0.77 0.68 0.59 0.52 0.46 0.36 0.34 0.40 0.41 0.41 0.37 0.41 0.40 0.46 0.60 0.68 0.70 0.65 0.71 0.68 0.64 0.63 0.62 0.62 0.58 0.52 0.47
0.03 0.05 0.06 0.04 0.06 0.11 0.13 0.22 0.37 0.50 0.60 0.84 1.17 1.21 0.92 0.76 0.71 0.81 1.05 1.12 1.36 1.14 0.86 0.78 0.61 0.55 0.45 0.37 0.47 0.56 0.57 0.59 0.57 0.72 0.75 0.91 1.11 1.12 0.89 1.06 1.18 1.13 1.15 1.04 1.01 1.20 1.01 0.78 0.71
0.01 0.02 0.01 0.02 0.03 0.04 0.10 0.17 0.26 0.43 0.79 1.27 1.36 1.19 0.94 1.01 1.02 1.03 1.33 1.40 1.33 1.18 1.16 1.08 0.87 0.75 0.69 0.73 0.67 0.74 0.84 0.97 0.94 0.96 1.08 1.34 1.27 1.11 1.00 1.10 1.43 1.57 1.63 1.54 1.59 1.70 1.37 1.34 1.54
0.00 0.01 0.01 0.02 0.03 0.04 0.05 0.08 0.18 0.40 0.89 1.05 1.02 0.95 0.91 1.10 1.14 1.22 1.53 1.60 1.61 1.49 1.73 1.79 1.45 1.35 1.22 1.05 0.95 0.87 0.88 1.06 1.20 1.38 1.43 1.59 1.66 1.56 1.40 1.42 1.60 1.77 1.90 2.24 2.19 2.09 1.95 1.90 1.83
0.00 0.00 0.01 0.01 0.03 0.07 0.05 0.09 0.26 0.59 0.80 0.70 0.59 0.82 0.89 1.21 1.50 1.68 1.87 1.77 2.01 2.09 2.31 2.48 2.04 1.91 1.78 1.73 1.56 1.28 1.33 1.44 1.52 1.70 1.82 1.93 2.09 2.09 2.03 1.93 1.86 1.72 1.85 2.19 2.41 2.29 2.34 2.26 2.11
0.00 0.00 0.01 0.02 0.03 0.05 0.08 0.16 0.37 0.65 0.59 0.56 0.71 1.11 1.32 1.28 1.56 1.94 2.07 2.15 2.46 2.62 2.72 2.84 2.70 2.69 2.51 2.26 2.21 2.09 1.80 1.76 1.77 1.82 1.80 2.00 2.22 2.48 2.58 2.47 2.31 1.99 1.90 2.00 2.30 2.41 2.57 2.48 2.35
0.00 0.01 0.04 0.06 0.07 0.06 0.10 0.34 0.52 0.66 0.55 0.58 0.83 1.17 1.51 1.44 1.58 1.86 2.06 2.52 3.21 3.52 3.38 3.39 3.37 3.58 3.36 2.93 2.62 2.33 2.16 2.11 2.17 2.17 2.07 2.20 2.41 2.62 2.63 2.42 2.08 1.87 1.90 2.01 1.96 2.01 2.31 2.13 2.01
0.01 0.05 0.14 0.16 0.11 0.10 0.17 0.58 0.72 0.69 0.83 0.90 1.09 1.26 1.53 1.56 1.59 1.81 2.28 3.03 3.86 4.36 4.23 4.01 3.62 3.89 3.83 3.47 3.18 2.86 2.60 2.62 2.51 2.25 2.16 2.13 2.29 2.25 2.30 1.95 1.58 1.66 1.85 1.91 1.95 1.91 2.02 2.03 2.10
0.03 0.07 0.14 0.22 0.16 0.13 0.23 0.82 0.86 0.65 0.91 1.17 1.09 1.24 1.45 1.61 1.74 1.87 2.43 3.24 4.05 4.77 4.94 4.87 4.74 4.39 4.07 3.86 3.68 3.47 3.26 2.91 2.50 2.28 2.17 1.97 1.77 1.70 1.81 1.59 1.47 1.52 1.67 1.75 1.66 1.86 2.01 1.96 2.02
0.06 0.09 0.15 0.22 0.18 0.16 0.29 0.62 0.72 0.74 0.91 1.06 1.06 1.09 1.19 1.44 1.83 1.97 2.29 3.00 3.89 4.73 5.24 5.38 5.35 4.93 4.39 3.90 3.47 3.34 3.15 2.87 2.59 2.32 2.08 1.76 1.54 1.45 1.62 1.51 1.41 1.47 1.59 1.64 1.76 1.91 1.98 1.78 1.74
0.06 0.09 0.18 0.24 0.17 0.19 0.34 0.52 0.66 0.77 1.00 1.14 1.16 1.10 1.12 1.42 1.84 2.08 2.38 2.84 3.60 4.32 4.98 5.06 5.22 4.66 4.00 3.40 2.95 2.80 2.55 2.26 2.22 2.10 1.93 1.76 1.56 1.48 1.60 1.44 1.37 1.32 1.39 1.40 1.51 1.63 1.65 1.41 1.59
0.09 0.12 0.20 0.22 0.15 0.17 0.34 0.61 0.79 0.88 0.87 0.94 0.97 1.01 1.10 1.48 1.94 2.32 2.85 3.21 3.21 3.71 4.40 4.44 4.07 3.76 3.28 2.83 2.60 2.41 2.30 2.03 1.84 1.70 1.60 1.41 1.30 1.30 1.31 1.30 1.18 1.15 1.23 1.22 1.30 1.42 1.42 1.26 1.47
0.12 0.14 0.18 0.16 0.15 0.22 0.40 0.75 1.03 0.98 0.74 0.68 0.73 0.79 0.94 1.28 1.80 2.25 2.66 3.06 3.02 3.37 3.47 3.06 2.81 2.78 2.69 2.46 2.32 2.20 2.12 1.94 1.62 1.34 1.21 1.13 1.06 1.04 1.00 0.99 1.02 1.08 1.01 1.07 1.16 1.30 1.45 1.33 1.24
0.08 0.08 0.07 0.07 0.13 0.28 0.42 0.94 1.32 1.12 0.84 0.71 0.72 0.84 0.91 1.01 1.20 1.52 1.86 2.29 2.47 2.52 2.43 2.32 2.24 2.19 2.35 2.32 2.08 1.87 1.52 1.37 1.23 1.09 1.09 1.09 0.98 0.92 0.87 0.87 0.98 1.04 1.02 1.11 0.98 1.03 1.23 1.34 1.19
0.05 0.04 0.05 0.08 0.13 0.27 0.47 0.79 1.18 1.17 1.12 0.97 0.85 0.88 0.81 0.76 0.83 1.04 1.17 1.38 1.65 1.86 1.89 1.82 2.03 2.08 2.07 2.02 1.95 1.89 1.61 1.37 1.26 1.25 1.32 1.23 1.09 0.94 0.85 0.85 0.88 0.97 1.01 1.06 1.04 1.07 1.04 1.09 1.07
0.04 0.05 0.12 0.25 0.37 0.69 0.68 0.73 1.07 1.02 0.98 0.96 0.80 0.68 0.64 0.60 0.65 0.84 0.91 0.96 1.07 1.20 1.29 1.36 1.58 1.77 1.80 1.76 1.74 1.74 1.66 1.50 1.28 1.18 1.18 1.13 1.07 0.97 0.86 0.85 0.92 0.92 0.89 0.91 0.96 0.98 0.96 1.00 1.02
0.05 0.09 0.32 0.69 1.00 1.17 0.72 0.70 0.89 0.78 0.80 0.86 0.66 0.44 0.40 0.46 0.48 0.58 0.65 0.73 0.79 0.81 0.88 1.00 1.19 1.35 1.47 1.53 1.53 1.56 1.67 1.53 1.28 1.07 1.07 1.01 0.91 0.87 0.85 0.82 0.94 1.02 1.00 0.95 0.95 0.98 1.00 1.05 1.07
0.06 0.07 0.19 0.34 0.49 0.70 0.74 1.09 1.02 0.65 0.62 0.53 0.36 0.25 0.24 0.37 0.39 0.39 0.42 0.46 0.57 0.59 0.66 0.77 0.84 0.94 1.07 1.27 1.42 1.36 1.42 1.28 1.13 1.17 1.09 0.94 0.78 0.83 1.00 1.05 1.03 1.05 1.07 1.02 1.12 1.09 1.10 1.15 1.13
0.05 0.05 0.06 0.10 0.16 0.44 0.82 1.17 0.96 0.55 0.51 0.37 0.25 0.19 0.23 0.28 0.35 0.34 0.31 0.30 0.35 0.38 0.44 0.54 0.69 0.84 0.91 1.01 1.20 1.29 1.22 1.15 1.16 1.21 1.15 1.01 0.92 0.86 0.97 1.04 1.09 1.06 1.03 1.06 1.19 1.18 1.22 1.29 1.25
0.06 0.06 0.06 0.07 0.15 0.33 0.69 1.05 1.09 0.81 0.58 0.36 0.27 0.27 0.34 0.31 0.38 0.41 0.31 0.25 0.29 0.31 0.35 0.48 0.62 0.81 0.97 0.98 0.96 1.00 1.15 1.17 1.23 1.22 1.05 0.97 0.96 0.93 0.93 0.92 0.99 1.02 1.01 1.07 1.25 1.27 1.33 1.48 1.47
0.08 0.08 0.09 0.10 0.12 0.21 0.52 0.76 0.66 0.63 0.46 0.34 0.37 0.44 0.32 0.28 0.33 0.36 0.29 0.24 0.30 0.33 0.39 0.49 0.60 0.84 1.02 0.93 0.92 1.00 1.10 1.15 1.17 1.31 1.25 1.11 1.05 1.00 0.95 0.91 0.91 0.94 0.92 0.98 1.13 1.27 1.41 1.52 1.52
0.10 0.10 0.11 0.14 0.16 0.17 0.27 0.48 0.40 0.46 0.42 0.49 0.56 0.52 0.40 0.36 0.32 0.36 0.34 0.36 0.38 0.43 0.47 0.55 0.63 0.78 0.89 0.90 0.95 1.01 1.06 1.09 1.07 1.11 1.17 1.19 1.09 1.02 1.00 1.00 0.97 0.89 0.86 0.94 1.08 1.22 1.38 1.50 1.58

GEFSSGP_prec_meanprecacc_174.txt.gz
Total_Precipitation_Accumulation
0.02 0.07 0.18 0.44 1.26 1.63 1.43 0.75 0.52 0.40 0.38 0.46 0.46 0.41 0.49 0.64 0.86 1.28 0.67 0.22 0.07 0.04 0.07 0.14 0.19 0.17 0.18 0.19 0.20 0.23 0.23 0.23 0.21 0.20 0.18 0.15 0.15 0.17 0.19 0.21 0.23 0.27 0.29 0.25 0.22 0.21 0.22 0.22 0.19
0.02 0.09 0.24 0.65 1.54 2.01 1.49 0.71 0.44 0.31 0.38 0.52 0.60 0.56 0.46 0.48 0.35 0.26 0.28 0.37 0.11 0.03 0.04 0.08 0.15 0.17 0.15 0.16 0.19 0.22 0.23 0.22 0.20 0.19 0.20 0.20 0.22 0.25 0.27 0.28 0.27 0.27 0.26 0.23 0.21 0.18 0.20 0.20 0.18
0.04 0.11 0.31 0.74 1.15 1.32 1.08 0.58 0.34 0.32 0.38 0.55 0.61 0.47 0.41 0.50 0.35 0.21 0.20 0.24 0.13 0.08 0.06 0.08 0.13 0.15 0.16 0.16 0.19 0.20 0.21 0.20 0.21 0.20 0.21 0.23 0.25 0.28 0.29 0.30 0.31 0.29 0.26 0.23 0.22 0.19 0.16 0.18 0.20
0.05 0.15 0.36 0.56 0.59 0.53 0.45 0.36 0.31 0.34 0.42 0.44 0.52 0.51 0.37 0.40 0.33 0.24 0.23 0.21 0.16 0.12 0.11 0.14 0.17 0.16 0.17 0.16 0.17 0.17 0.19 0.19 0.20 0.20 0.22 0.25 0.25 0.29 0.34 0.32 0.32 0.29 0.26 0.21 0.20 0.21 0.18 0.18 0.20
0.06 0.20 0.43 0.45 0.33 0.34 0.35 0.34 0.36 0.40 0.44 0.55 0.66 0.69 0.62 0.42 0.34 0.42 0.47 0.40 0.29 0.22 0.20 0.21 0.24 0.23 0.20 0.19 0.18 0.19 0.19 0.19 0.22 0.24 0.25 0.26 0.27 0.32 0.34 0.31 0.30 0.28 0.26 0.20 0.20 0.25 0.25 0.27 0.29
0.08 0.23 0.29 0.28 0.24 0.27 0.34 0.35 0.35 0.41 0.51 0.73 0.75 0.70 0.68 0.55 0.47 0.55 0.58 0.68 0.62 0.37 0.29 0.27 0.33 0.32 0.27 0.25 0.25 0.24 0.22 0.23 0.24 0.24 0.25 0.25 0.28 0.33 0.32 0.30 0.32 0.30 0.28 0.25 0.23 0.25 0.29 0.35 0.36
0.12 0.26 0.20 0.19 0.17 0.21 0.23 0.32 0.43 0.46 0.56 0.73 0.64 0.61 0.79 0.83 0.68 0.63 0.62 0.67 0.63 0.44 0.42 0.37 0.33 0.31 0.31 0.34 0.35 0.34 0.29 0.30 0.29 0.25 0.24 0.25 0.28 0.32 0.31 0.32 0.36 0.34 0.30 0.31 0.29 0.24 0.26 0.29 0.34
0.07 0.13 0.12 0.14 0.13 0.17 0.16 0.22 0.38 0.52 0.57 0.56 0.59 0.77 1.10 0.99 0.64 0.62 0.67 0.66 0.64 0.60 0.57 0.56 0.49 0.44 0.37 0.36 0.40 0.41 0.38 0.37 0.33 0.31 0.29 0.34 0.38 0.39 0.39 0.35 0.41 0.39 0.36 0.38 0.38 0.34 0.33 0.37 0.43
0.03 0.07 0.10 0.08 0.09 0.14 0.16 0.21 0.31 0.45 0.49 0.56 0.74 0.80 0.86 0.71 0.56 0.71 0.85 0.95 0.98 0.87 0.77 0.69 0.59 0.53 0.48 0.38 0.37 0.42 0.44 0.43 0.40 0.44 0.43 0.54 0.72 0.75 0.76 0.69 0.73 0.70 0.65 0.64 0.65 0.63 0.59 0.54 0.48
0.03 0.06 0.06 0.04 0.06 0.11 0.13 0.22 0.37 0.52 0.61 0.84 1.17 1.21 0.92 0.76 0.71 0.81 1.06 1.14 1.37 1.16 0.86 0.79 0.62 0.57 0.48 0.40 0.50 0.61 0.62 0.65 0.67 0.79 0.83 1.04 1.25 1.23 0.98 1.10 1.20 1.15 1.17 1.06 1.03 1.22 1.05 0.82 0.73
0.02 0.02 0.01 0.02 0.03 0.04 0.10 0.17 0.26 0.44 0.80 1.28 1.37 1.19 0.94 1.01 1.03 1.03 1.33 1.41 1.34 1.19 1.17 1.10 0.88 0.77 0.72 0.77 0.70 0.79 0.91 1.06 1.04 1.02 1.16 1.44 1.33 1.17 1.07 1.16 1.47 1.62 1.68 1.60 1.63 1.75 1.44 1.38 1.56
0.00 0.01 0.01 0.02 0.03 0.04 0.05 0.09 0.18 0.41 0.90 1.05 1.02 0.95 0.91 1.10 1.15 1.24 1.53 1.60 1.62 1.49 1.73 1.79 1.46 1.37 1.24 1.08 0.99 0.92 0.93 1.12 1.26 1.44 1.49 1.64 1.72 1.64 1.48 1.52 1.69 1.84 1.98 2.34 2.26 2.16 2.02 1.96 1.88
0.00 0.00 0.01 0.01 0.03 0.07 0.05 0.10 0.27 0.59 0.80 0.70 0.59 0.82 0.89 1.21 1.50 1.69 1.88 1.78 2.03 2.12 2.32 2.49 2.06 1.93 1.81 1.77 1.63 1.36 1.39 1.48 1.58 1.75 1.89 1.97 2.13 2.15 2.09 1.99 1.94 1.78 1.88 2.24 2.47 2.35 2.40 2.33 2.17
0.00 0.00 0.01 0.02 0.03 0.05 0.09 0.19 0.38 0.65 0.59 0.56 0.71 1.11 1.32 1.28 1.56 1.94 2.08 2.16 2.48 2.64 2.74 2.86 2.72 2.71 2.54 2.30 2.27 2.19 1.86 1.81 1.81 1.85 1.84 2.03 2.26 2.54 2.64 2.52 2.37 2.04 1.94 2.04 2.33 2.44 2.62 2.54 2.39
0.00 0.01 0.04 0.06 0.07 0.06 0.11 0.40 0.55 0.67 0.56 0.58 0.83 1.17 1.51 1.44 1.58 1.86 2.06 2.53 3.23 3.54 3.41 3.42 3.39 3.60 3.39 2.97 2.66 2.38 2.20 2.14 2.20 2.20 2.11 2.24 2.45 2.68 2.68 2.48 2.13 1.92 1.94 2.05 2.00 2.05 2.35 2.17 2.05
0.01 0.05 0.15 0.17 0.11 0.10 0.19 0.69 0.78 0.70 0.83 0.90 1.09 1.26 1.53 1.56 1.59 1.81 2.28 3.04 3.88 4.37 4.24 4.03 3.65 3.91 3.86 3.51 3.23 2.93 2.65 2.66 2.57 2.30 2.20 2.17 2.33 2.29 2.34 2.00 1.63 1.73 1.91 1.97 2.00 1.95 2.06 2.07 2.15
0.03 0.07 0.15 0.23 0.16 0.13 0.24 0.86 0.89 0.66 0.92 1.17 1.09 1.24 1.45 1.61 1.74 1.87 2.43 3.25 4.06 4.79 4.95 4.89 4.77 4.43 4.12 3.92 3.74 3.54 3.33 2.97 2.57 2.38 2.28 2.03 1.82 1.72 1.84 1.64 1.54 1.59 1.76 1.80 1.70 1.91 2.06 2.02 2.08
0.06 0.09 0.15 0.23 0.18 0.16 0.29 0.64 0.74 0.76 0.92 1.08 1.08 1.10 1.19 1.44 1.84 1.97 2.29 3.00 3.89 4.74 5.25 5.40 5.39 4.97 4.44 3.94 3.53 3.42 3.21 2.93 2.65 2.40 2.14 1.81 1.60 1.48 1.66 1.56 1.46 1.51 1.65 1.71 1.83 1.98 2.04 1.83 1.78
0.07 0.09 0.18 0.24 0.17 0.19 0.34 0.52 0.67 0.78 1.01 1.14 1.17 1.10 1.12 1.42 1.85 2.08 2.38 2.84 3.60 4.32 4.99 5.09 5.26 4.71 4.04 3.46 3.02 2.88 2.63 2.34 2.29 2.16 1.97 1.80 1.61 1.52 1.65 1.49 1.45 1.37 1.46 1.47 1.57 1.68 1.70 1.45 1.62
0.09 0.12 0.20 0.22 0.15 0.17 0.34 0.61 0.79 0.89 0.87 0.94 0.97 1.01 1.10 1.48 1.94 2.32 2.85 3.21 3.21 3.72 4.41 4.47 4.10 3.80 3.31 2.88 2.69 2.51 2.40 2.10 1.91 1.76 1.69 1.48 1.37 1.37 1.35 1.37 1.25 1.24 1.33 1.31 1.38 1.51 1.50 1.34 1.53
0.12 0.14 0.18 0.16 0.15 0.22 0.40 0.75 1.05 0.99 0.76 0.69 0.73 0.79 0.94 1.28 1.80 2.25 2.66 3.07 3.02 3.37 3.48 3.08 2.84 2.82 2.74 2.53 2.40 2.29 2.23 2.04 1.72 1.42 1.31 1.21 1.14 1.11 1.07 1.08 1.11 1.19 1.09 1.17 1.26 1.40 1.56 1.44 1.33
0.08 0.08 0.07 0.07 0.13 0.28 0.42 0.95 1.35 1.14 0.86 0.72 0.73 0.84 0.92 1.03 1.20 1.52 1.86 2.29 2.48 2.53 2.44 2.34 2.27 2.24 2.41 2.40 2.17 1.98 1.65 1.50 1.37 1.20 1.19 1.20 1.07 1.00 0.96 0.97 1.10 1.15 1.11 1.24 1.06 1.14 1.37 1.49 1.30
0.05 0.04 0.05 0.08 0.13 0.27 0.48 0.81 1.20 1.19 1.14 0.99 0.85 0.88 0.81 0.81 0.85 1.04 1.17 1.38 1.66 1.87 1.90 1.84 2.07 2.14 2.15 2.11 2.04 2.01 1.74 1.51 1.39 1.38 1.45 1.39 1.20 1.03 0.93 0.96 1.03 1.11 1.12 1.17 1.16 1.23 1.17 1.21 1.18
0.04 0.05 0.12 0.25 0.37 0.69 0.68 0.73 1.08 1.03 0.99 0.98 0.80 0.68 0.64 0.65 0.68 0.84 0.91 0.97 1.09 1.22 1.30 1.40 1.64 1.83 1.89 1.85 1.83 1.84 1.78 1.65 1.41 1.31 1.32 1.25 1.18 1.06 0.95 0.96 1.07 1.07 1.03 1.05 1.08 1.10 1.07 1.13 1.16
0.05 0.09 0.32 0.69 1.01 1.17 0.72 0.70 0.91 0.79 0.80 0.86 0.66 0.44 0.40 0.47 0.49 0.58 0.66 0.74 0.81 0.82 0.91 1.06 1.26 1.43 1.55 1.60 1.60 1.65 1.77 1.64 1.40 1.19 1.18 1.11 1.00 0.95 0.93 0.92 1.08 1.17 1.14 1.08 1.09 1.11 1.13 1.19 1.21
0.06 0.07 0.19 0.34 0.49 0.70 0.75 1.10 1.02 0.66 0.62 0.54 0.36 0.25 0.25 0.38 0.40 0.39 0.42 0.48 0.59 0.60 0.68 0.80 0.89 1.00 1.13 1.34 1.50 1.46 1.52 1.38 1.24 1.29 1.19 1.04 0.86 0.90 1.07 1.15 1.14 1.16 1.19 1.17 1.30 1.23 1.23 1.29 1.28
0.05 0.05 0.06 0.10 0.16 0.44 0.83 1.18 0.97 0.55 0.51 0.37 0.25 0.19 0.23 0.28 0.36 0.35 0.32 0.31 0.37 0.39 0.45 0.55 0.72 0.90 0.98 1.08 1.28 1.38 1.30 1.24 1.27 1.32 1.24 1.12 1.03 0.95 1.07 1.17 1.24 1.21 1.17 1.22 1.38 1.34 1.37 1.44 1.38
0.06 0.06 0.06 0.07 0.15 0.34 0.69 1.05 1.10 0.81 0.58 0.36 0.27 0.27 0.34 0.31 0.39 0.41 0.31 0.26 0.31 0.32 0.36 0.49 0.65 0.86 1.03 1.04 1.02 1.06 1.23 1.26 1.32 1.31 1.13 1.07 1.05 1.04 1.05 1.04 1.13 1.16 1.14 1.22 1.43 1.43 1.49 1.64 1.61
0.08 0.08 0.09 0.10 0.12 0.21 0.52 0.77 0.67 0.63 0.46 0.34 0.37 0.44 0.32 0.29 0.35 0.38 0.29 0.25 0.30 0.33 0.40 0.51 0.62 0.87 1.05 0.97 0.97 1.05 1.18 1.22 1.24 1.38 1.33 1.20 1.12 1.08 1.04 1.01 1.05 1.07 1.05 1.12 1.29 1.43 1.58 1.68 1.69
0.10 0.10 0.11 0.14 0.16 0.17 0.28 0.48 0.42 0.47 0.42 0.49 0.56 0.52 0.40 0.37 0.34 0.37 0.34 0.36 0.39 0.44 0.48 0.58 0.65 0.80 0.91 0.93 0.99 1.05 1.12 1.15 1.13 1.17 1.22 1.25 1.16 1.08 1.08 1.11 1.10 1.02 1.00 1.10 1.25 1.39 1.55 1.68 1.75

GEFSSGP_prec_meanprecacc_180.txt.gz
Total_Precipitation_Accumulation
0.03 0.09 0.22 0.48 1.31 1.67 1.45 0.76 0.53 0.40 0.38 0.47 0.46 0.41 0.50 0.66 0.88 1.32 0.77 0.26 0.08 0.04 0.08 0.15 0.20 0.18 0.19 0.20 0.20 0.24 0.24 0.23 0.21 0.21 0.20 0.17 0.18 0.19 0.21 0.23 0.25 0.29 0.30 0.27 0.24 0.25 0.26 0.25 0.23
0.05 0.13 0.28 0.69 1.60 2.04 1.51 0.72 0.44 0.31 0.39 0.52 0.61 0.56 0.46 0.48 0.35 0.27 0.33 0.40 0.12 0.03 0.04 0.08 0.15 0.18 0.16 0.17 0.20 0.23 0.24 0.22 0.21 0.20 0.21 0.22 0.24 0.26 0.29 0.30 0.28 0.28 0.27 0.24 0.23 0.21 0.23 0.23 0.21
0.08 0.15 0.36 0.80 1.21 1.33 1.09 0.59 0.34 0.32 0.39 0.55 0.61 0.47 0.41 0.51 0.35 0.24 0.23 0.26 0.13 0.08 0.06 0.08 0.13 0.16 0.16 0.17 0.20 0.22 0.22 0.21 0.22 0.21 0.22 0.25 0.27 0.29 0.31 0.32 0.33 0.30 0.27 0.24 0.23 0.21 0.19 0.20 0.21
0.07 0.17 0.39 0.61 0.62 0.54 0.46 0.36 0.32 0.34 0.42 0.44 0.52 0.51 0.38 0.43 0.35 0.26 0.26 0.23 0.16 0.12 0.11 0.14 0.17 0.17 0.17 0.17 0.18 0.19 0.19 0.20 0.21 0.21 0.23 0.26 0.27 0.31 0.35 0.34 0.33 0.30 0.27 0.22 0.22 0.23 0.20 0.20 0.22
0.08 0.22 0.45 0.48 0.36 0.35 0.36 0.35 0.36 0.40 0.44 0.55 0.66 0.69 0.63 0.46 0.37 0.46 0.54 0.45 0.31 0.22 0.20 0.21 0.24 0.23 0.20 0.20 0.19 0.20 0.19 0.20 0.22 0.24 0.26 0.27 0.28 0.33 0.35 0.32 0.31 0.29 0.26 0.21 0.22 0.27 0.27 0.28 0.31
0.10 0.27 0.33 0.31 0.26 0.29 0.35 0.35 0.35 0.41 0.51 0.73 0.75 0.70 0.70 0.60 0.51 0.58 0.62 0.77 0.65 0.37 0.29 0.27 0.33 0.32 0.27 0.26 0.26 0.24 0.23 0.24 0.25 0.24 0.25 0.26 0.29 0.34 0.33 0.31 0.33 0.31 0.28 0.26 0.24 0.26 0.30 0.36 0.37
0.13 0.29 0.25 0.22 0.19 0.22 0.24 0.33 0.43 0.46 0.56 0.73 0.64 0.62 0.81 0.87 0.71 0.67 0.67 0.74 0.67 0.45 0.42 0.37 0.33 0.31 0.31 0.34 0.36 0.34 0.29 0.30 0.29 0.26 0.25 0.25 0.29 0.33 0.32 0.33 0.37 0.35 0.32 0.32 0.31 0.25 0.27 0.30 0.35
0.08 0.15 0.16 0.16 0.14 0.18 0.17 0.23 0.38 0.52 0.57 0.56 0.60 0.77 1.10 1.01 0.67 0.64 0.71 0.75 0.69 0.62 0.57 0.56 0.50 0.44 0.37 0.36 0.40 0.42 0.38 0.37 0.34 0.31 0.30 0.35 0.40 0.41 0.40 0.36 0.42 0.40 0.37 0.39 0.40 0.35 0.34 0.38 0.44
0.04 0.09 0.12 0.10 0.09 0.15 0.16 0.22 0.32 0.46 0.50 0.57 0.75 0.80 0.86 0.71 0.57 0.72 0.87 1.00 1.07 0.91 0.78 0.69 0.60 0.53 0.48 0.38 0.37 0.43 0.45 0.44 0.42 0.46 0.46 0.56 0.73 0.76 0.77 0.69 0.74 0.70 0.66 0.66 0.66 0.64 0.60 0.55 0.49
0.04 0.07 0.07 0.05 0.06 0.12 0.14 0.22 0.38 0.53 0.63 0.85 1.17 1.21 0.93 0.76 0.71 0.82 1.07 1.17 1.41 1.17 0.88 0.81 0.63 0.57 0.48 0.40 0.50 0.61 0.62 0.65 0.68 0.81 0.85 1.05 1.27 1.26 1.01 1.12 1.22 1.17 1.18 1.08 1.06 1.25 1.07 0.83 0.75
0.02 0.03 0.02 0.03 0.03 0.05 0.11 0.18 0.28 0.45 0.81 1.29 1.37 1.19 0.95 1.03 1.04 1.05 1.35 1.42 1.35 1.20 1.19 1.11 0.88 0.77 0.72 0.78 0.71 0.79 0.91 1.06 1.05 1.03 1.17 1.45 1.36 1.20 1.10 1.17 1.49 1.64 1.70 1.62 1.65 1.78 1.48 1.42 1.60
0.01 0.01 0.01 0.02 0.03 0.04 0.05 0.10 0.21 0.43 0.90 1.05 1.02 0.95 0.92 1.12 1.17 1.26 1.57 1.62 1.63 1.50 1.75 1.81 1.47 1.39 1.26 1.09 1.01 0.94 0.95 1.13 1.27 1.46 1.50 1.65 1.73 1.65 1.50 1.54 1.74 1.87 2.01 2.37 2.28 2.19 2.06 2.02 1.91
0.01 0.01 0.01 0.01 0.04 0.07 0.05 0.11 0.29 0.61 0.81 0.70 0.59 0.82 0.90 1.22 1.54 1.72 1.95 1.79 2.04 2.13 2.34 2.50 2.07 1.95 1.82 1.78 1.65 1.40 1.42 1.51 1.60 1.78 1.92 1.98 2.14 2.16 2.11 2.02 1.97 1.82 1.92 2.26 2.50 2.38 2.44 2.38 2.21
0.00 0.01 0.01 0.02 0.03 0.05 0.09 0.21 0.39 0.67 0.62 0.57 0.72 1.11 1.32 1.29 1.57 1.95 2.09 2.17 2.49 2.65 2.75 2.87 2.73 2.72 2.56 2.31 2.30 2.26 1.91 1.88 1.88 1.92 1.87 2.06 2.28 2.55 2.66 2.54 2.39 2.07 1.99 2.08 2.36 2.47 2.64 2.56 2.41
0.00 0.02 0.05 0.07 0.08 0.07 0.12 0.41 0.56 0.68 0.58 0.60 0.83 1.18 1.52 1.44 1.58 1.86 2.07 2.54 3.24 3.55 3.41 3.43 3.40 3.63 3.42 2.99 2.70 2.43 2.23 2.19 2.26 2.25 2.15 2.26 2.46 2.69 2.69 2.50 2.16 1.95 1.98 2.09 2.05 2.09 2.38 2.20 2.07
0.01 0.05 0.16 0.18 0.13 0.11 0.20 0.70 0.81 0.72 0.85 0.92 1.10 1.26 1.53 1.56 1.59 1.81 2.29 3.04 3.88 4.38 4.25 4.03 3.66 3.95 3.90 3.55 3.27 2.96 2.69 2.71 2.63 2.37 2.26 2.20 2.35 2.30 2.36 2.03 1.68 1.77 1.96 2.03 2.07 2.01 2.10 2.11 2.20
0.04 0.08 0.16 0.24 0.17 0.14 0.25 0.87 0.91 0.68 0.95 1.20 1.11 1.25 1.45 1.61 1.74 1.88 2.43 3.25 4.06 4.80 4.96 4.90 4.80 4.47 4.15 3.95 3.76 3.58 3.36 3.00 2.61 2.45 2.35 2.09 1.86 1.75 1.88 1.67 1.58 1.63 1.81 1.85 1.74 1.95 2.11 2.07 2.11
0.07 0.09 0.15 0.23 0.18 0.17 0.30 0.65 0.76 0.78 0.94 1.11 1.10 1.11 1.20 1.45 1.87 1.99 2.30 3.01 3.90 4.75 5.27 5.43 5.42 5.00 4.47 3.98 3.56 3.46 3.25 2.97 2.68 2.44 2.19 1.85 1.65 1.53 1.71 1.60 1.48 1.54 1.67 1.74 1.85 2.01 2.07 1.87 1.81
0.07 0.09 0.18 0.24 0.18 0.20 0.36 0.54 0.69 0.81 1.05 1.17 1.20 1.14 1.15 1.45 1.87 2.09 2.39 2.85 3.61 4.34 5.01 5.11 5.27 4.74 4.07 3.49 3.05 2.92 2.68 2.39 2.33 2.19 2.02 1.86 1.68 1.59 1.73 1.54 1.49 1.40 1.47 1.50 1.59 1.72 1.74 1.50 1.66
0.09 0.12 0.20 0.22 0.15 0.17 0.35 0.63 0.82 0.91 0.90 0.98 1.02 1.06 1.16 1.53 1.97 2.34 2.86 3.22 3.22 3.74 4.43 4.48 4.12 3.82 3.33 2.92 2.73 2.56 2.46 2.17 1.99 1.85 1.82 1.64 1.49 1.45 1.43 1.44 1.31 1.28 1.37 1.36 1.42 1.55 1.54 1.38 1.59
0.12 0.14 0.18 0.17 0.15 0.22 0.41 0.78 1.09 1.04 0.78 0.71 0.78 0.85 0.99 1.33 1.85 2.28 2.68 3.08 3.03 3.39 3.50 3.10 2.88 2.87 2.79 2.59 2.48 2.37 2.32 2.14 1.84 1.56 1.50 1.45 1.27 1.22 1.16 1.15 1.18 1.25 1.15 1.22 1.31 1.46 1.61 1.48 1.38
0.08 0.08 0.07 0.07 0.14 0.29 0.43 0.96 1.37 1.17 0.89 0.74 0.78 0.95 1.01 1.12 1.31 1.57 1.89 2.31 2.50 2.56 2.49 2.41 2.34 2.31 2.47 2.48 2.26 2.06 1.74 1.59 1.49 1.35 1.34 1.36 1.23 1.16 1.06 1.04 1.16 1.22 1.18 1.29 1.11 1.19 1.43 1.56 1.36
0.05 0.04 0.05 0.08 0.13 0.27 0.48 0.82 1.22 1.21 1.18 1.02 0.89 0.94 0.89 0.91 0.94 1.08 1.20 1.41 1.69 1.92 1.96 1.91 2.14 2.21 2.21 2.19 2.13 2.10 1.83 1.61 1.50 1.57 1.72 1.60 1.35 1.13 1.01 1.02 1.10 1.17 1.17 1.22 1.21 1.28 1.24 1.28 1.24
0.04 0.05 0.12 0.25 0.37 0.70 0.69 0.74 1.09 1.06 1.02 1.02 0.87 0.73 0.68 0.68 0.73 0.88 0.95 0.99 1.12 1.26 1.36 1.47 1.70 1.90 1.96 1.91 1.91 1.93 1.87 1.76 1.51 1.43 1.46 1.37 1.25 1.11 1.01 1.03 1.15 1.14 1.10 1.10 1.13 1.17 1.14 1.19 1.22
0.05 0.09 0.32 0.69 1.01 1.18 0.73 0.71 0.92 0.81 0.82 0.90 0.71 0.48 0.43 0.50 0.53 0.63 0.70 0.78 0.86 0.88 0.95 1.11 1.30 1.46 1.59 1.65 1.67 1.72 1.86 1.75 1.50 1.29 1.29 1.23 1.09 1.00 0.99 0.99 1.17 1.26 1.22 1.16 1.18 1.20 1.22 1.28 1.29
0.06 0.07 0.19 0.34 0.50 0.71 0.75 1.11 1.05 0.68 0.63 0.55 0.40 0.30 0.27 0.42 0.45 0.44 0.48 0.53 0.66 0.67 0.73 0.84 0.93 1.04 1.17 1.39 1.57 1.53 1.60 1.46 1.32 1.39 1.29 1.13 0.94 0.95 1.13 1.21 1.23 1.25 1.29 1.28 1.42 1.34 1.32 1.39 1.39
0.05 0.05 0.06 0.10 0.16 0.44 0.83 1.19 0.99 0.58 0.54 0.41 0.28 0.21 0.26 0.33 0.43 0.38 0.37 0.41 0.44 0.46 0.49 0.58 0.74 0.94 1.02 1.12 1.33 1.42 1.35 1.30 1.35 1.43 1.36 1.22 1.11 1.01 1.14 1.24 1.34 1.33 1.31 1.36 1.52 1.51 1.53 1.59 1.52
0.06 0.06 0.06 0.07 0.15 0.34 0.70 1.06 1.13 0.87 0.64 0.43 0.32 0.30 0.37 0.35 0.44 0.49 0.36 0.36 0.38 0.35 0.40 0.53 0.67 0.89 1.08 1.09 1.07 1.11 1.28 1.31 1.40 1.40 1.23 1.17 1.13 1.10 1.12 1.11 1.19 1.22 1.22 1.33 1.56 1.58 1.63 1.77 1.75
0.08 0.08 0.09 0.10 0.12 0.22 0.53 0.78 0.70 0.69 0.52 0.41 0.42 0.49 0.36 0.32 0.39 0.43 0.32 0.27 0.32 0.35 0.42 0.53 0.65 0.91 1.08 1.00 1.01 1.10 1.24 1.29 1.31 1.43 1.38 1.26 1.18 1.15 1.11 1.07 1.10 1.10 1.08 1.17 1.34 1.48 1.65 1.79 1.84
0.10 0.10 0.11 0.14 0.16 0.17 0.28 0.49 0.43 0.50 0.48 0.56 0.60 0.56 0.46 0.42 0.40 0.43 0.39 0.40 0.41 0.46 0.51 0.62 0.69 0.83 0.94 0.97 1.03 1.10 1.18 1.22 1.18 1.22 1.27 1.31 1.21 1.13 1.14 1.16 1.14 1.04 1.03 1.13 1.29 1.44 1.63 1.79 1.89

GEFSSGP_prec_meanprecacc_186.txt.gz
Total_Precipitation_Accumulation
0.04 0.10 0.22 0.48 1.32 1.67 1.46 0.77 0.53 0.41 0.39 0.48 0.47 0.42 0.51 0.67 0.89 1.32 0.77 0.27 0.10 0.06 0.08 0.16 0.21 0.19 0.19 0.20 0.21 0.25 0.25 0.24 0.23 0.22 0.21 0.18 0.19 0.20 0.22 0.24 0.27 0.31 0.33 0.30 0.27 0.30 0.31 0.30 0.26
0.05 0.14 0.28 0.69 1.60 2.04 1.52 0.73 0.45 0.31 0.39 0.52 0.61 0.56 0.47 0.49 0.35 0.28 0.35 0.43 0.14 0.05 0.05 0.08 0.16 0.18 0.17 0.17 0.20 0.23 0.25 0.23 0.23 0.22 0.23 0.23 0.25 0.28 0.31 0.31 0.30 0.31 0.30 0.27 0.26 0.24 0.26 0.25 0.23
0.08 0.15 0.36 0.80 1.21 1.33 1.10 0.60 0.34 0.32 0.39 0.56 0.61 0.47 0.41 0.52 0.36 0.25 0.24 0.27 0.14 0.08 0.06 0.09 0.14 0.16 0.17 0.17 0.20 0.22 0.23 0.22 0.23 0.23 0.25 0.27 0.29 0.31 0.32 0.33 0.34 0.31 0.29 0.27 0.26 0.24 0.20 0.22 0.23
0.08 0.17 0.39 0.61 0.62 0.54 0.46 0.37 0.32 0.34 0.42 0.44 0.52 0.51 0.39 0.44 0.35 0.27 0.27 0.24 0.17 0.13 0.11 0.14 0.17 0.17 0.18 0.17 0.18 0.19 0.21 0.21 0.22 0.22 0.25 0.28 0.29 0.32 0.36 0.35 0.35 0.32 0.29 0.24 0.26 0.26 0.22 0.22 0.24
0.08 0.23 0.45 0.49 0.36 0.36 0.37 0.36 0.36 0.40 0.44 0.55 0.66 0.69 0.65 0.49 0.38 0.46 0.55 0.46 0.31 0.23 0.20 0.22 0.25 0.24 0.21 0.21 0.20 0.21 0.20 0.21 0.23 0.25 0.27 0.29 0.30 0.34 0.37 0.34 0.32 0.30 0.28 0.22 0.24 0.30 0.29 0.32 0.35
0.10 0.27 0.33 0.31 0.27 0.30 0.36 0.36 0.36 0.41 0.51 0.73 0.75 0.71 0.72 0.64 0.53 0.59 0.63 0.78 0.65 0.38 0.29 0.28 0.34 0.33 0.28 0.27 0.27 0.26 0.24 0.25 0.26 0.25 0.26 0.28 0.30 0.35 0.34 0.32 0.34 0.32 0.29 0.27 0.26 0.28 0.34 0.41 0.41
0.14 0.29 0.26 0.23 0.20 0.24 0.25 0.34 0.44 0.46 0.56 0.73 0.64 0.62 0.82 0.91 0.75 0.69 0.68 0.76 0.67 0.46 0.43 0.37 0.34 0.32 0.32 0.35 0.38 0.36 0.30 0.31 0.31 0.27 0.26 0.27 0.31 0.34 0.33 0.34 0.38 0.36 0.33 0.34 0.33 0.28 0.29 0.33 0.38
0.08 0.15 0.16 0.16 0.15 0.19 0.18 0.23 0.38 0.53 0.58 0.56 0.60 0.77 1.11 1.03 0.69 0.66 0.72 0.77 0.70 0.62 0.58 0.56 0.50 0.44 0.37 0.37 0.42 0.44 0.40 0.38 0.35 0.33 0.32 0.37 0.42 0.43 0.41 0.37 0.43 0.41 0.39 0.43 0.43 0.38 0.35 0.41 0.48
0.04 0.09 0.12 0.10 0.09 0.15 0.17 0.22 0.32 0.46 0.50 0.57 0.75 0.81 0.87 0.73 0.59 0.73 0.88 1.01 1.08 0.91 0.79 0.70 0.60 0.53 0.48 0.39 0.38 0.44 0.46 0.46 0.43 0.47 0.48 0.58 0.74 0.77 0.78 0.70 0.74 0.71 0.68 0.70 0.70 0.67 0.62 0.59 0.54
0.04 0.07 0.07 0.05 0.06 0.12 0.14 0.22 0.38 0.53 0.63 0.86 1.17 1.22 0.94 0.79 0.74 0.84 1.07 1.18 1.42 1.17 0.88 0.81 0.63 0.57 0.48 0.40 0.51 0.62 0.63 0.67 0.69 0.81 0.85 1.06 1.27 1.27 1.01 1.13 1.24 1.19 1.21 1.12 1.10 1.29 1.10 0.85 0.77
0.02 0.03 0.02 0.03 0.03 0.05 0.11 0.18 0.28 0.46 0.82 1.29 1.37 1.19 0.97 1.04 1.06 1.06 1.36 1.43 1.35 1.20 1.19 1.12 0.89 0.78 0.73 0.78 0.71 0.79 0.92 1.07 1.05 1.04 1.17 1.45 1.36 1.21 1.11 1.19 1.50 1.66 1.73 1.64 1.67 1.80 1.49 1.43 1.61
0.01 0.01 0.01 0.03 0.04 0.05 0.06 0.10 0.21 0.43 0.90 1.06 1.02 0.96 0.93 1.12 1.17 1.26 1.57 1.63 1.64 1.51 1.75 1.81 1.48 1.39 1.26 1.10 1.01 0.95 0.96 1.14 1.28 1.47 1.52 1.66 1.74 1.66 1.51 1.55 1.75 1.89 2.03 2.38 2.30 2.20 2.08 2.03 1.92
0.01 0.01 0.01 0.02 0.04 0.07 0.05 0.11 0.29 0.61 0.81 0.70 0.60 0.83 0.90 1.23 1.55 1.73 1.96 1.80 2.05 2.14 2.35 2.52 2.08 1.96 1.83 1.79 1.67 1.43 1.45 1.53 1.62 1.81 1.95 2.01 2.16 2.18 2.12 2.03 1.98 1.84 1.94 2.28 2.52 2.40 2.45 2.39 2.22
0.01 0.01 0.01 0.02 0.04 0.05 0.09 0.21 0.39 0.67 0.62 0.57 0.72 1.12 1.33 1.30 1.58 1.96 2.10 2.18 2.50 2.66 2.77 2.90 2.76 2.75 2.58 2.34 2.34 2.31 1.97 1.93 1.92 1.96 1.90 2.09 2.30 2.57 2.67 2.55 2.40 2.09 2.01 2.09 2.39 2.50 2.66 2.58 2.43
0.00 0.02 0.05 0.07 0.08 0.07 0.12 0.41 0.56 0.68 0.58 0.60 0.83 1.18 1.52 1.45 1.59 1.87 2.08 2.55 3.25 3.57 3.44 3.46 3.44 3.67 3.48 3.05 2.75 2.49 2.31 2.25 2.30 2.29 2.18 2.29 2.49 2.70 2.70 2.51 2.18 1.97 1.99 2.11 2.07 2.12 2.41 2.21 2.08
0.01 0.05 0.16 0.18 0.13 0.11 0.20 0.70 0.81 0.72 0.85 0.92 1.10 1.26 1.54 1.57 1.60 1.82 2.29 3.05 3.89 4.40 4.29 4.08 3.70 4.01 3.95 3.60 3.32 3.02 2.76 2.77 2.69 2.43 2.32 2.24 2.37 2.31 2.37 2.04 1.71 1.81 1.98 2.05 2.09 2.03 2.13 2.15 2.23
0.04 0.08 0.16 0.24 0.17 0.14 0.25 0.88 0.91 0.68 0.95 1.20 1.11 1.25 1.46 1.61 1.75 1.88 2.44 3.26 4.07 4.82 5.00 4.96 4.85 4.50 4.18 3.98 3.80 3.62 3.42 3.09 2.75 2.56 2.42 2.15 1.92 1.79 1.90 1.69 1.61 1.67 1.84 1.87 1.75 1.96 2.14 2.11 2.15
0.07 0.09 0.16 0.24 0.18 0.17 0.31 0.65 0.76 0.78 0.94 1.11 1.10 1.12 1.21 1.46 1.87 2.00 2.30 3.03 3.92 4.78 5.32 5.48 5.47 5.05 4.50 4.01 3.60 3.52 3.33 3.06 2.80 2.55 2.30 1.95 1.75 1.60 1.77 1.64 1.53 1.58 1.71 1.76 1.88 2.03 2.10 1.91 1.86
0.07 0.09 0.18 0.24 0.18 0.20 0.36 0.55 0.69 0.81 1.05 1.18 1.20 1.15 1.18 1.46 1.88 2.10 2.39 2.86 3.63 4.37 5.04 5.14 5.32 4.79 4.12 3.54 3.08 2.97 2.78 2.49 2.43 2.32 2.13 1.98 1.78 1.69 1.80 1.63 1.57 1.47 1.53 1.54 1.64 1.76 1.78 1.53 1.70
0.09 0.12 0.20 0.22 0.15 0.18 0.36 0.63 0.83 0.92 0.91 0.98 1.02 1.07 1.18 1.54 1.97 2.34 2.87 3.23 3.25 3.76 4.46 4.51 4.16 3.89 3.41 3.00 2.79 2.62 2.54 2.25 2.09 1.96 1.93 1.75 1.61 1.57 1.55 1.55 1.40 1.37 1.44 1.42 1.49 1.61 1.58 1.41 1.62
0.12 0.14 0.18 0.17 0.16 0.23 0.41 0.79 1.09 1.05 0.80 0.72 0.78 0.86 1.01 1.35 1.86 2.29 2.70 3.10 3.07 3.43 3.53 3.15 2.94 2.96 2.87 2.68 2.55 2.43 2.38 2.19 1.91 1.70 1.67 1.58 1.41 1.36 1.31 1.27 1.28 1.34 1.22 1.27 1.37 1.52 1.65 1.51 1.42
0.08 0.08 0.07 0.07 0.14 0.29 0.43 0.97 1.38 1.18 0.90 0.75 0.78 0.96 1.02 1.13 1.32 1.59 1.93 2.35 2.54 2.62 2.54 2.47 2.41 2.38 2.55 2.55 2.31 2.10 1.78 1.64 1.55 1.45 1.47 1.50 1.34 1.27 1.21 1.17 1.26 1.29 1.24 1.35 1.17 1.25 1.49 1.61 1.42
0.05 0.04 0.05 0.08 0.13 0.27 0.48 0.82 1.23 1.21 1.18 1.02 0.89 0.95 0.90 0.93 0.97 1.12 1.24 1.45 1.73 1.97 2.02 1.98 2.20 2.28 2.27 2.24 2.18 2.14 1.87 1.67 1.58 1.66 1.82 1.72 1.46 1.23 1.10 1.11 1.20 1.26 1.25 1.29 1.27 1.34 1.30 1.36 1.32
0.04 0.05 0.12 0.25 0.37 0.70 0.69 0.74 1.09 1.06 1.02 1.02 0.87 0.73 0.69 0.70 0.75 0.92 0.98 1.03 1.16 1.31 1.41 1.51 1.74 1.94 1.98 1.93 1.93 1.96 1.92 1.82 1.59 1.51 1.57 1.51 1.37 1.20 1.07 1.09 1.22 1.23 1.20 1.21 1.22 1.23 1.19 1.24 1.27
0.05 0.09 0.32 0.69 1.01 1.18 0.73 0.71 0.93 0.81 0.82 0.90 0.71 0.49 0.44 0.52 0.55 0.66 0.72 0.81 0.91 0.93 0.99 1.14 1.33 1.48 1.61 1.66 1.69 1.75 1.90 1.80 1.55 1.37 1.37 1.32 1.17 1.06 1.03 1.02 1.22 1.32 1.29 1.25 1.28 1.28 1.28 1.33 1.34
0.06 0.07 0.19 0.34 0.50 0.71 0.75 1.11 1.05 0.68 0.63 0.55 0.40 0.30 0.28 0.43 0.46 0.45 0.50 0.55 0.69 0.74 0.79 0.89 0.97 1.06 1.20 1.42 1.60 1.57 1.65 1.51 1.38 1.47 1.36 1.20 1.00 1.00 1.17 1.25 1.29 1.30 1.33 1.33 1.49 1.40 1.38 1.45 1.46
0.05 0.05 0.06 0.10 0.16 0.44 0.83 1.19 0.99 0.58 0.54 0.41 0.28 0.23 0.27 0.34 0.44 0.40 0.39 0.43 0.46 0.51 0.57 0.65 0.82 0.98 1.05 1.15 1.37 1.46 1.40 1.37 1.42 1.52 1.44 1.29 1.17 1.06 1.19 1.30 1.39 1.36 1.34 1.40 1.57 1.56 1.58 1.65 1.60
0.06 0.06 0.06 0.07 0.15 0.34 0.70 1.06 1.13 0.87 0.64 0.43 0.33 0.33 0.41 0.38 0.47 0.51 0.38 0.37 0.40 0.39 0.47 0.58 0.73 0.93 1.11 1.12 1.11 1.15 1.34 1.39 1.47 1.47 1.31 1.24 1.19 1.15 1.17 1.16 1.24 1.24 1.24 1.36 1.59 1.62 1.69 1.83 1.81
0.08 0.08 0.09 0.10 0.12 0.22 0.53 0.78 0.70 0.69 0.52 0.42 0.43 0.51 0.40 0.38 0.44 0.47 0.35 0.30 0.34 0.38 0.45 0.56 0.68 0.94 1.13 1.05 1.07 1.16 1.30 1.35 1.36 1.47 1.44 1.32 1.24 1.21 1.16 1.12 1.14 1.13 1.10 1.20 1.37 1.51 1.70 1.83 1.88
0.10 0.10 0.11 0.14 0.16 0.17 0.28 0.49 0.43 0.50 0.48 0.56 0.61 0.57 0.48 0.47 0.46 0.48 0.43 0.45 0.47 0.50 0.54 0.64 0.71 0.85 0.97 1.02 1.10 1.16 1.25 1.27 1.22 1.26 1.34 1.38 1.28 1.20 1.20 1.23 1.19 1.08 1.07 1.17 1.31 1.48 1.66 1.82 1.92

GEFSSGP_prec_meanprecacc_192.txt.gz
Total_Precipitation_Accumulation
0.04 0.10 0.22 0.48 1.32 1.68 1.46 0.78 0.53 0.41 0.40 0.48 0.47 0.43 0.53 0.70 0.91 1.34 0.78 0.28 0.11 0.07 0.10 0.18 0.25 0.24 0.24 0.23 0.24 0.27 0.28 0.28 0.26 0.25 0.24 0.21 0.22 0.24 0.26 0.28 0.31 0.37 0.41 0.39 0.36 0.35 0.35 0.34 0.31
0.05 0.14 0.28 0.69 1.60 2.04 1.52 0.73 0.45 0.32 0.40 0.53 0.61 0.57 0.49 0.51 0.36 0.28 0.35 0.44 0.16 0.06 0.07 0.10 0.19 0.23 0.22 0.22 0.24 0.27 0.28 0.27 0.27 0.25 0.25 0.25 0.28 0.31 0.34 0.34 0.33 0.35 0.35 0.32 0.31 0.29 0.30 0.30 0.29
0.08 0.15 0.36 0.80 1.21 1.34 1.10 0.60 0.35 0.32 0.39 0.56 0.61 0.47 0.42 0.53 0.36 0.26 0.25 0.28 0.15 0.10 0.09 0.12 0.18 0.20 0.22 0.22 0.25 0.26 0.27 0.26 0.27 0.27 0.29 0.31 0.32 0.34 0.35 0.35 0.37 0.36 0.33 0.30 0.31 0.27 0.24 0.26 0.28
0.08 0.17 0.39 0.61 0.62 0.54 0.46 0.37 0.32 0.34 0.42 0.44 0.52 0.51 0.40 0.46 0.36 0.28 0.28 0.24 0.17 0.15 0.13 0.18 0.21 0.21 0.22 0.23 0.24 0.24 0.25 0.25 0.26 0.26 0.29 0.33 0.32 0.35 0.39 0.38 0.37 0.36 0.33 0.29 0.32 0.29 0.26 0.26 0.28
0.08 0.23 0.45 0.49 0.36 0.36 0.37 0.36 0.36 0.40 0.44 0.55 0.66 0.70 0.65 0.51 0.39 0.47 0.55 0.46 0.32 0.25 0.23 0.25 0.28 0.27 0.25 0.25 0.25 0.27 0.25 0.24 0.26 0.28 0.30 0.33 0.33 0.37 0.39 0.36 0.34 0.32 0.30 0.26 0.30 0.35 0.33 0.37 0.41
0.10 0.27 0.33 0.31 0.27 0.31 0.36 0.36 0.36 0.41 0.51 0.73 0.75 0.71 0.73 0.65 0.53 0.60 0.64 0.79 0.66 0.39 0.31 0.30 0.37 0.36 0.30 0.29 0.31 0.31 0.28 0.28 0.29 0.29 0.29 0.31 0.34 0.38 0.36 0.35 0.37 0.35 0.32 0.31 0.32 0.34 0.40 0.47 0.47
0.14 0.29 0.26 0.23 0.20 0.24 0.25 0.34 0.44 0.46 0.56 0.73 0.64 0.62 0.83 0.92 0.75 0.70 0.69 0.76 0.67 0.46 0.43 0.39 0.36 0.34 0.34 0.37 0.40 0.38 0.32 0.33 0.33 0.30 0.29 0.29 0.33 0.38 0.37 0.38 0.42 0.40 0.37 0.37 0.38 0.33 0.34 0.38 0.43
0.08 0.15 0.16 0.16 0.15 0.19 0.18 0.23 0.38 0.53 0.58 0.56 0.60 0.78 1.12 1.03 0.69 0.67 0.72 0.77 0.71 0.63 0.59 0.58 0.52 0.46 0.40 0.39 0.43 0.46 0.42 0.41 0.37 0.35 0.35 0.40 0.44 0.45 0.44 0.40 0.46 0.44 0.43 0.48 0.48 0.42 0.40 0.46 0.53
0.04 0.09 0.12 0.10 0.09 0.15 0.17 0.22 0.32 0.46 0.50 0.57 0.75 0.81 0.88 0.74 0.59 0.74 0.88 1.01 1.08 0.92 0.80 0.71 0.61 0.55 0.50 0.41 0.41 0.47 0.49 0.48 0.46 0.51 0.51 0.61 0.79 0.80 0.81 0.72 0.76 0.74 0.72 0.75 0.76 0.72 0.66 0.64 0.60
0.04 0.07 0.07 0.05 0.06 0.12 0.14 0.22 0.38 0.53 0.63 0.86 1.18 1.22 0.95 0.80 0.74 0.84 1.08 1.18 1.42 1.18 0.89 0.82 0.64 0.58 0.50 0.42 0.53 0.66 0.66 0.70 0.73 0.85 0.87 1.09 1.30 1.30 1.04 1.16 1.27 1.24 1.26 1.16 1.15 1.33 1.13 0.89 0.83
0.02 0.03 0.02 0.03 0.03 0.05 0.11 0.18 0.28 0.46 0.82 1.29 1.37 1.19 0.97 1.04 1.06 1.06 1.36 1.43 1.36 1.20 1.19 1.12 0.89 0.79 0.74 0.79 0.73 0.82 0.96 1.11 1.07 1.06 1.19 1.48 1.39 1.23 1.14 1.22 1.54 1.73 1.78 1.70 1.71 1.83 1.54 1.47 1.68
0.01 0.01 0.01 0.03 0.04 0.05 0.06 0.10 0.21 0.43 0.90 1.06 1.02 0.96 0.93 1.12 1.17 1.26 1.57 1.63 1.64 1.51 1.76 1.82 1.48 1.40 1.27 1.11 1.03 0.98 0.99 1.16 1.30 1.49 1.54 1.68 1.76 1.69 1.54 1.58 1.78 1.95 2.10 2.43 2.33 2.24 2.13 2.08 1.97
0.01 0.01 0.01 0.02 0.04 0.07 0.05 0.11 0.29 0.62 0.81 0.70 0.60 0.83 0.90 1.23 1.55 1.73 1.96 1.81 2.05 2.14 2.36 2.52 2.09 1.98 1.84 1.80 1.68 1.44 1.47 1.56 1.64 1.82 1.97 2.03 2.18 2.20 2.15 2.06 2.02 1.88 1.97 2.32 2.56 2.43 2.48 2.43 2.26
0.01 0.01 0.01 0.02 0.04 0.05 0.09 0.21 0.39 0.67 0.62 0.57 0.72 1.12 1.33 1.30 1.58 1.96 2.11 2.18 2.50 2.67 2.78 2.91 2.78 2.77 2.60 2.36 2.37 2.35 2.00 1.97 1.95 1.98 1.93 2.13 2.34 2.61 2.72 2.61 2.47 2.15 2.05 2.14 2.44 2.52 2.70 2.62 2.46
0.00 0.02 0.05 0.07 0.08 0.07 0.12 0.41 0.56 0.68 0.58 0.60 0.83 1.18 1.52 1.45 1.59 1.87 2.08 2.55 3.25 3.57 3.45 3.48 3.45 3.69 3.52 3.08 2.79 2.53 2.35 2.30 2.38 2.35 2.22 2.33 2.53 2.76 2.76 2.57 2.25 2.04 2.05 2.18 2.13 2.16 2.45 2.25 2.12
0.01 0.05 0.16 0.18 0.13 0.11 0.20 0.70 0.81 0.72 0.85 0.93 1.10 1.27 1.54 1.57 1.60 1.82 2.29 3.06 3.90 4.41 4.30 4.11 3.71 4.03 4.00 3.65 3.37 3.07 2.81 2.83 2.76 2.48 2.36 2.30 2.43 2.37 2.44 2.11 1.78 1.87 2.05 2.13 2.17 2.09 2.19 2.20 2.28
0.04 0.08 0.16 0.24 0.17 0.14 0.25 0.88 0.91 0.68 0.95 1.20 1.11 1.25 1.46 1.62 1.75 1.88 2.44 3.27 4.09 4.84 5.03 5.00 4.88 4.54 4.22 4.02 3.86 3.68 3.48 3.15 2.80 2.61 2.47 2.19 1.97 1.84 1.97 1.76 1.68 1.73 1.90 1.94 1.81 2.04 2.22 2.19 2.23
0.07 0.09 0.16 0.24 0.18 0.17 0.31 0.65 0.76 0.78 0.94 1.12 1.11 1.12 1.21 1.46 1.87 2.00 2.31 3.03 3.94 4.81 5.34 5.52 5.51 5.10 4.55 4.06 3.66 3.59 3.40 3.15 2.87 2.62 2.39 2.01 1.80 1.65 1.83 1.71 1.61 1.66 1.79 1.84 1.96 2.14 2.22 2.00 1.95
0.07 0.09 0.18 0.24 0.18 0.20 0.36 0.55 0.69 0.81 1.05 1.18 1.20 1.15 1.18 1.46 1.88 2.10 2.40 2.89 3.66 4.40 5.08 5.18 5.36 4.84 4.18 3.60 3.16 3.06 2.88 2.58 2.50 2.39 2.23 2.07 1.86 1.74 1.87 1.71 1.68 1.58 1.63 1.64 1.73 1.85 1.88 1.63 1.78
0.09 0.12 0.20 0.22 0.15 0.18 0.36 0.63 0.83 0.92 0.91 0.99 1.02 1.07 1.18 1.54 1.97 2.34 2.88 3.26 3.27 3.79 4.49 4.54 4.21 3.95 3.48 3.06 2.85 2.68 2.61 2.32 2.16 2.03 2.01 1.84 1.69 1.65 1.63 1.65 1.50 1.47 1.54 1.54 1.58 1.71 1.68 1.50 1.69
0.12 0.14 0.18 0.17 0.16 0.23 0.42 0.79 1.09 1.05 0.80 0.72 0.78 0.86 1.01 1.35 1.86 2.29 2.70 3.12 3.08 3.44 3.55 3.17 2.97 3.01 2.92 2.72 2.59 2.48 2.43 2.24 1.97 1.78 1.76 1.66 1.47 1.43 1.38 1.37 1.39 1.46 1.31 1.36 1.48 1.62 1.75 1.61 1.51
0.08 0.08 0.07 0.07 0.14 0.29 0.43 0.97 1.38 1.18 0.90 0.75 0.78 0.96 1.02 1.13 1.33 1.61 1.95 2.36 2.55 2.63 2.55 2.49 2.44 2.43 2.59 2.58 2.34 2.15 1.85 1.71 1.64 1.53 1.57 1.59 1.41 1.33 1.27 1.25 1.36 1.40 1.33 1.44 1.26 1.33 1.57 1.72 1.54
0.05 0.04 0.05 0.08 0.13 0.27 0.48 0.82 1.23 1.21 1.18 1.02 0.89 0.95 0.90 0.93 0.99 1.14 1.25 1.46 1.74 1.99 2.04 2.00 2.23 2.32 2.32 2.29 2.23 2.21 1.94 1.74 1.65 1.74 1.93 1.82 1.55 1.29 1.15 1.18 1.29 1.36 1.35 1.39 1.38 1.43 1.38 1.44 1.43
0.04 0.05 0.12 0.25 0.37 0.70 0.69 0.74 1.09 1.06 1.02 1.02 0.87 0.73 0.69 0.71 0.75 0.93 0.98 1.04 1.17 1.32 1.42 1.52 1.76 1.97 2.03 1.98 1.98 2.01 1.97 1.87 1.65 1.60 1.64 1.57 1.43 1.26 1.13 1.14 1.30 1.32 1.31 1.31 1.33 1.33 1.28 1.33 1.38
0.05 0.09 0.32 0.69 1.01 1.18 0.73 0.71 0.93 0.81 0.82 0.90 0.71 0.49 0.44 0.52 0.55 0.66 0.73 0.81 0.91 0.94 1.01 1.15 1.35 1.51 1.64 1.70 1.73 1.79 1.95 1.85 1.62 1.43 1.43 1.38 1.23 1.12 1.08 1.08 1.30 1.39 1.36 1.35 1.38 1.36 1.36 1.43 1.46
0.06 0.07 0.19 0.34 0.50 0.71 0.75 1.11 1.05 0.68 0.63 0.55 0.40 0.30 0.28 0.43 0.47 0.45 0.50 0.56 0.70 0.76 0.82 0.93 1.00 1.10 1.23 1.45 1.65 1.61 1.70 1.55 1.42 1.52 1.42 1.27 1.08 1.07 1.25 1.34 1.35 1.35 1.38 1.38 1.57 1.47 1.45 1.52 1.54
0.05 0.05 0.06 0.10 0.16 0.44 0.83 1.19 0.99 0.58 0.54 0.41 0.28 0.23 0.27 0.34 0.45 0.40 0.39 0.43 0.46 0.52 0.59 0.68 0.85 1.01 1.07 1.18 1.41 1.49 1.44 1.40 1.46 1.56 1.49 1.36 1.25 1.13 1.25 1.37 1.45 1.40 1.39 1.46 1.65 1.63 1.65 1.71 1.67
0.06 0.06 0.06 0.07 0.15 0.34 0.70 1.06 1.13 0.87 0.64 0.43 0.33 0.33 0.41 0.39 0.47 0.51 0.38 0.37 0.40 0.40 0.48 0.59 0.74 0.95 1.14 1.15 1.14 1.17 1.36 1.42 1.51 1.52 1.36 1.31 1.25 1.21 1.23 1.20 1.27 1.29 1.29 1.40 1.67 1.69 1.73 1.87 1.85
0.08 0.08 0.09 0.10 0.12 0.22 0.53 0.78 0.70 0.69 0.52 0.42 0.43 0.51 0.40 0.38 0.44 0.47 0.35 0.30 0.35 0.38 0.45 0.58 0.70 0.96 1.15 1.07 1.09 1.18 1.34 1.41 1.41 1.51 1.47 1.37 1.29 1.26 1.20 1.15 1.17 1.17 1.14 1.23 1.41 1.56 1.74 1.87 1.92
0.10 0.10 0.11 0.14 0.16 0.17 0.28 0.49 0.43 0.50 0.48 0.56 0.61 0.57 0.48 0.47 0.46 0.49 0.43 0.45 0.47 0.50 0.55 0.66 0.74 0.88 0.99 1.03 1.12 1.18 1.28 1.32 1.27 1.30 1.37 1.41 1.32 1.25 1.25 1.27 1.23 1.12 1.10 1.20 1.35 1.52 1.71 1.87 1.97

GEFSSGP_prec_meanprecacc_198.txt.gz
Total_Precipitation_Accumulation
0.04 0.10 0.22 0.49 1.34 1.70 1.46 0.78 0.53 0.41 0.40 0.48 0.47 0.44 0.55 0.75 0.96 1.39 0.82 0.28 0.12 0.08 0.11 0.19 0.28 0.28 0.28 0.28 0.29 0.31 0.31 0.31 0.30 0.30 0.29 0.27 0.28 0.30 0.32 0.35 0.39 0.45 0.49 0.47 0.43 0.41 0.40 0.38 0.35
0.06 0.14 0.28 0.70 1.62 2.06 1.53 0.73 0.45 0.32 0.40 0.53 0.61 0.58 0.50 0.53 0.38 0.31 0.38 0.45 0.17 0.08 0.08 0.11 0.21 0.25 0.26 0.27 0.30 0.31 0.32 0.32 0.32 0.29 0.29 0.29 0.32 0.35 0.40 0.41 0.40 0.43 0.41 0.38 0.37 0.34 0.34 0.33 0.31
0.08 0.15 0.36 0.81 1.21 1.34 1.10 0.60 0.35 0.32 0.39 0.56 0.61 0.48 0.43 0.55 0.38 0.27 0.26 0.29 0.17 0.11 0.10 0.13 0.18 0.22 0.24 0.26 0.32 0.32 0.32 0.32 0.32 0.30 0.32 0.34 0.35 0.37 0.40 0.43 0.44 0.42 0.38 0.36 0.36 0.31 0.28 0.30 0.32
0.08 0.18 0.39 0.61 0.62 0.54 0.46 0.37 0.32 0.34 0.42 0.44 0.52 0.52 0.42 0.49 0.37 0.28 0.28 0.25 0.21 0.18 0.14 0.18 0.22 0.22 0.24 0.25 0.30 0.30 0.28 0.29 0.30 0.29 0.31 0.35 0.34 0.37 0.42 0.43 0.42 0.41 0.38 0.34 0.36 0.32 0.28 0.28 0.31
0.08 0.23 0.46 0.49 0.36 0.36 0.37 0.36 0.36 0.41 0.44 0.55 0.66 0.70 0.67 0.54 0.40 0.47 0.55 0.47 0.34 0.29 0.23 0.26 0.29 0.28 0.26 0.27 0.29 0.31 0.28 0.29 0.29 0.30 0.32 0.35 0.35 0.39 0.42 0.39 0.37 0.36 0.34 0.30 0.34 0.38 0.36 0.39 0.42
0.10 0.27 0.33 0.31 0.27 0.31 0.36 0.36 0.36 0.41 0.51 0.73 0.76 0.71 0.75 0.68 0.54 0.60 0.65 0.81 0.67 0.40 0.31 0.30 0.37 0.36 0.31 0.31 0.34 0.34 0.31 0.32 0.31 0.30 0.31 0.33 0.35 0.40 0.38 0.37 0.40 0.36 0.34 0.34 0.36 0.37 0.43 0.49 0.49
0.14 0.29 0.26 0.23 0.20 0.24 0.25 0.34 0.44 0.46 0.56 0.73 0.65 0.63 0.85 0.95 0.77 0.71 0.71 0.78 0.69 0.46 0.44 0.40 0.37 0.35 0.34 0.38 0.41 0.40 0.34 0.36 0.34 0.31 0.30 0.30 0.34 0.39 0.38 0.40 0.45 0.42 0.39 0.39 0.41 0.34 0.36 0.39 0.44
0.08 0.15 0.16 0.16 0.15 0.19 0.18 0.23 0.38 0.53 0.58 0.56 0.61 0.80 1.14 1.06 0.70 0.68 0.74 0.78 0.72 0.64 0.59 0.59 0.54 0.48 0.41 0.39 0.44 0.46 0.43 0.42 0.39 0.36 0.36 0.41 0.47 0.47 0.45 0.41 0.47 0.46 0.44 0.49 0.51 0.44 0.41 0.47 0.53
0.04 0.09 0.12 0.10 0.09 0.15 0.17 0.22 0.32 0.46 0.50 0.57 0.76 0.83 0.89 0.75 0.60 0.74 0.90 1.03 1.10 0.93 0.81 0.72 0.62 0.55 0.51 0.42 0.41 0.48 0.50 0.50 0.50 0.53 0.53 0.69 0.90 0.86 0.87 0.74 0.77 0.76 0.73 0.76 0.78 0.74 0.67 0.65 0.60
0.04 0.07 0.07 0.05 0.06 0.12 0.14 0.22 0.38 0.53 0.63 0.86 1.18 1.22 0.95 0.81 0.74 0.84 1.09 1.19 1.43 1.19 0.89 0.82 0.65 0.60 0.51 0.43 0.55 0.72 0.70 0.74 0.80 0.92 0.95 1.18 1.39 1.40 1.10 1.19 1.28 1.25 1.28 1.18 1.18 1.36 1.17 0.92 0.87
0.02 0.03 0.02 0.03 0.03 0.05 0.11 0.18 0.28 0.46 0.82 1.29 1.37 1.19 0.97 1.05 1.06 1.06 1.36 1.44 1.36 1.21 1.19 1.12 0.90 0.80 0.76 0.82 0.75 0.88 1.02 1.18 1.14 1.11 1.25 1.54 1.44 1.29 1.19 1.28 1.58 1.77 1.83 1.74 1.74 1.87 1.60 1.54 1.73
0.01 0.01 0.01 0.03 0.04 0.05 0.06 0.10 0.21 0.44 0.91 1.06 1.02 0.96 0.93 1.12 1.18 1.26 1.57 1.63 1.64 1.51 1.76 1.82 1.48 1.41 1.29 1.13 1.06 1.01 1.03 1.23 1.37 1.57 1.60 1.74 1.82 1.73 1.59 1.65 1.86 2.02 2.18 2.53 2.40 2.30 2.16 2.11 2.00
0.01 0.01 0.01 0.02 0.04 0.07 0.05 0.11 0.29 0.62 0.81 0.70 0.60 0.83 0.90 1.23 1.55 1.73 1.96 1.81 2.05 2.14 2.36 2.53 2.09 1.98 1.85 1.83 1.73 1.47 1.51 1.62 1.70 1.89 2.02 2.08 2.23 2.24 2.20 2.12 2.08 1.94 2.03 2.38 2.62 2.47 2.52 2.47 2.29
0.01 0.01 0.01 0.02 0.04 0.05 0.10 0.21 0.39 0.67 0.63 0.57 0.72 1.12 1.33 1.30 1.58 1.96 2.11 2.18 2.50 2.67 2.79 2.91 2.79 2.78 2.62 2.38 2.40 2.38 2.02 2.00 2.00 2.03 1.97 2.17 2.39 2.65 2.76 2.65 2.50 2.19 2.11 2.19 2.47 2.55 2.74 2.69 2.49
0.00 0.02 0.06 0.07 0.08 0.08 0.13 0.43 0.56 0.68 0.58 0.60 0.83 1.18 1.53 1.45 1.59 1.87 2.08 2.56 3.26 3.58 3.46 3.49 3.47 3.70 3.54 3.11 2.81 2.55 2.36 2.32 2.41 2.38 2.25 2.37 2.59 2.82 2.81 2.62 2.29 2.08 2.09 2.22 2.17 2.19 2.47 2.29 2.15
0.02 0.06 0.19 0.19 0.13 0.11 0.21 0.72 0.81 0.72 0.85 0.93 1.10 1.27 1.54 1.57 1.60 1.82 2.30 3.07 3.92 4.42 4.32 4.12 3.72 4.04 4.02 3.68 3.41 3.09 2.83 2.84 2.77 2.50 2.39 2.34 2.48 2.42 2.50 2.18 1.85 1.94 2.10 2.18 2.24 2.13 2.23 2.24 2.31
0.05 0.09 0.17 0.24 0.17 0.14 0.26 0.88 0.91 0.68 0.95 1.21 1.11 1.25 1.46 1.62 1.76 1.88 2.44 3.28 4.11 4.86 5.05 5.02 4.90 4.56 4.26 4.08 3.91 3.73 3.52 3.19 2.84 2.65 2.52 2.23 2.01 1.88 2.03 1.83 1.77 1.82 1.97 2.00 1.86 2.10 2.28 2.26 2.29
0.07 0.10 0.16 0.24 0.19 0.18 0.31 0.66 0.76 0.78 0.94 1.12 1.11 1.12 1.21 1.46 1.88 2.00 2.31 3.04 3.96 4.83 5.36 5.53 5.54 5.14 4.60 4.14 3.74 3.67 3.45 3.19 2.93 2.68 2.46 2.08 1.86 1.70 1.88 1.77 1.69 1.74 1.87 1.93 2.04 2.24 2.33 2.09 2.02
0.07 0.09 0.19 0.25 0.19 0.20 0.36 0.55 0.69 0.81 1.05 1.18 1.20 1.15 1.18 1.46 1.88 2.10 2.41 2.89 3.67 4.41 5.09 5.20 5.42 4.90 4.25 3.67 3.24 3.14 2.95 2.64 2.55 2.45 2.27 2.12 1.91 1.78 1.92 1.77 1.78 1.67 1.71 1.71 1.80 1.94 2.00 1.74 1.87
0.09 0.12 0.20 0.22 0.15 0.18 0.36 0.63 0.83 0.92 0.91 0.99 1.02 1.07 1.18 1.54 1.97 2.34 2.88 3.26 3.27 3.79 4.51 4.57 4.25 4.00 3.53 3.12 2.92 2.76 2.68 2.38 2.21 2.08 2.06 1.86 1.72 1.68 1.67 1.72 1.60 1.56 1.64 1.63 1.67 1.83 1.79 1.60 1.80
0.12 0.14 0.18 0.17 0.16 0.23 0.42 0.80 1.10 1.05 0.80 0.72 0.78 0.86 1.01 1.35 1.86 2.30 2.71 3.13 3.09 3.45 3.55 3.19 3.01 3.06 2.97 2.78 2.66 2.54 2.50 2.31 2.05 1.86 1.84 1.70 1.49 1.47 1.43 1.43 1.47 1.55 1.40 1.49 1.60 1.75 1.87 1.73 1.65
0.08 0.08 0.07 0.07 0.14 0.30 0.44 0.99 1.40 1.18 0.90 0.75 0.78 0.96 1.02 1.13 1.33 1.61 1.95 2.36 2.55 2.63 2.56 2.51 2.47 2.48 2.64 2.64 2.40 2.21 1.92 1.79 1.72 1.60 1.64 1.65 1.44 1.35 1.30 1.28 1.41 1.47 1.41 1.58 1.36 1.46 1.71 1.87 1.69
0.05 0.04 0.05 0.08 0.13 0.27 0.48 0.83 1.24 1.22 1.18 1.02 0.89 0.95 0.90 0.93 0.99 1.14 1.26 1.46 1.74 1.99 2.04 2.01 2.26 2.36 2.36 2.33 2.28 2.25 1.99 1.80 1.72 1.82 2.01 1.90 1.61 1.33 1.17 1.22 1.35 1.43 1.43 1.50 1.48 1.56 1.50 1.58 1.58
0.04 0.05 0.12 0.25 0.37 0.70 0.69 0.74 1.10 1.06 1.02 1.02 0.87 0.73 0.69 0.71 0.75 0.93 0.99 1.04 1.17 1.32 1.43 1.53 1.78 2.00 2.06 2.02 2.02 2.05 2.04 1.97 1.76 1.70 1.74 1.65 1.51 1.33 1.17 1.20 1.38 1.41 1.42 1.44 1.46 1.46 1.41 1.48 1.55
0.05 0.09 0.32 0.69 1.01 1.18 0.73 0.71 0.93 0.81 0.82 0.90 0.71 0.49 0.44 0.52 0.55 0.66 0.73 0.81 0.92 0.95 1.02 1.18 1.37 1.54 1.67 1.75 1.79 1.85 2.03 1.93 1.70 1.50 1.51 1.47 1.31 1.18 1.15 1.17 1.41 1.50 1.48 1.46 1.51 1.49 1.48 1.57 1.62
0.06 0.07 0.19 0.34 0.50 0.71 0.75 1.11 1.05 0.68 0.63 0.56 0.40 0.31 0.28 0.43 0.47 0.45 0.50 0.56 0.71 0.77 0.84 0.97 1.05 1.13 1.27 1.52 1.74 1.70 1.78 1.62 1.48 1.59 1.50 1.35 1.15 1.14 1.32 1.42 1.43 1.42 1.46 1.47 1.69 1.58 1.59 1.66 1.68
0.05 0.05 0.06 0.10 0.16 0.45 0.84 1.20 0.99 0.58 0.54 0.41 0.28 0.23 0.27 0.34 0.45 0.40 0.39 0.43 0.47 0.53 0.61 0.72 0.93 1.07 1.12 1.23 1.46 1.55 1.51 1.48 1.54 1.65 1.57 1.44 1.35 1.22 1.35 1.44 1.52 1.47 1.47 1.55 1.77 1.75 1.78 1.85 1.79
0.06 0.06 0.06 0.08 0.15 0.34 0.71 1.07 1.13 0.87 0.64 0.43 0.33 0.33 0.41 0.39 0.47 0.52 0.39 0.38 0.41 0.41 0.50 0.61 0.78 0.99 1.18 1.18 1.17 1.21 1.43 1.49 1.57 1.58 1.44 1.40 1.33 1.29 1.33 1.28 1.33 1.34 1.36 1.49 1.77 1.80 1.84 1.97 1.94
0.08 0.08 0.09 0.10 0.13 0.22 0.54 0.79 0.70 0.69 0.52 0.42 0.43 0.51 0.40 0.38 0.45 0.48 0.36 0.31 0.35 0.39 0.46 0.59 0.73 0.99 1.18 1.09 1.10 1.21 1.38 1.46 1.48 1.59 1.55 1.44 1.35 1.32 1.27 1.22 1.24 1.24 1.21 1.31 1.50 1.65 1.83 1.94 1.99
0.10 0.10 0.11 0.14 0.16 0.17 0.28 0.50 0.43 0.50 0.48 0.56 0.61 0.57 0.49 0.48 0.46 0.49 0.43 0.45 0.47 0.51 0.56 0.66 0.75 0.88 1.00 1.05 1.13 1.19 1.30 1.37 1.37 1.40 1.45 1.49 1.40 1.33 1.33 1.35 1.32 1.20 1.17 1.27 1.41 1.57 1.75 1.92 2.02

GEFSSGP_prec_meanprecacc_204.txt.gz
Total_Precipitation_Accumulation
0.04 0.12 0.25 0.51 1.38 1.72 1.47 0.78 0.53 0.41 0.40 0.49 0.48 0.45 0.57 0.79 1.02 1.48 0.93 0.37 0.15 0.09 0.11 0.20 0.29 0.30 0.30 0.30 0.30 0.33 0.33 0.33 0.33 0.34 0.34 0.32 0.36 0.42 0.46 0.51 0.53 0.57 0.59 0.54 0.51 0.49 0.47 0.44 0.39
0.08 0.17 0.33 0.73 1.64 2.07 1.54 0.74 0.45 0.32 0.40 0.53 0.62 0.58 0.50 0.55 0.40 0.36 0.48 0.51 0.18 0.09 0.08 0.12 0.21 0.26 0.26 0.28 0.31 0.32 0.33 0.33 0.33 0.32 0.32 0.32 0.36 0.43 0.50 0.52 0.51 0.51 0.48 0.43 0.41 0.38 0.38 0.36 0.35
0.11 0.18 0.40 0.85 1.23 1.35 1.11 0.60 0.35 0.33 0.39 0.56 0.62 0.48 0.44 0.56 0.40 0.32 0.32 0.32 0.18 0.12 0.10 0.13 0.19 0.22 0.24 0.26 0.33 0.33 0.33 0.33 0.34 0.32 0.34 0.37 0.38 0.42 0.47 0.50 0.51 0.48 0.43 0.39 0.38 0.33 0.30 0.32 0.34
0.10 0.19 0.41 0.63 0.63 0.55 0.47 0.37 0.32 0.34 0.43 0.47 0.54 0.52 0.42 0.51 0.39 0.30 0.31 0.27 0.22 0.18 0.14 0.18 0.22 0.22 0.24 0.25 0.30 0.31 0.29 0.30 0.31 0.30 0.32 0.37 0.36 0.39 0.46 0.47 0.46 0.45 0.41 0.36 0.37 0.33 0.30 0.30 0.33
0.09 0.24 0.46 0.50 0.38 0.37 0.38 0.36 0.37 0.41 0.44 0.58 0.70 0.71 0.69 0.56 0.41 0.48 0.57 0.48 0.35 0.29 0.24 0.26 0.29 0.28 0.26 0.27 0.29 0.32 0.29 0.30 0.30 0.31 0.32 0.36 0.36 0.40 0.43 0.41 0.39 0.37 0.35 0.31 0.35 0.39 0.38 0.40 0.44
0.11 0.28 0.34 0.33 0.28 0.31 0.37 0.37 0.36 0.41 0.52 0.76 0.81 0.73 0.77 0.71 0.57 0.62 0.67 0.83 0.68 0.40 0.31 0.31 0.38 0.36 0.31 0.31 0.34 0.35 0.31 0.32 0.32 0.32 0.31 0.33 0.36 0.40 0.38 0.38 0.41 0.37 0.35 0.34 0.37 0.38 0.44 0.50 0.50
0.14 0.30 0.26 0.23 0.21 0.24 0.26 0.34 0.44 0.47 0.57 0.74 0.68 0.65 0.87 0.98 0.79 0.73 0.74 0.81 0.70 0.47 0.44 0.40 0.37 0.35 0.34 0.38 0.42 0.40 0.35 0.36 0.35 0.33 0.31 0.31 0.35 0.40 0.39 0.40 0.45 0.42 0.39 0.39 0.42 0.35 0.36 0.40 0.45
0.08 0.15 0.17 0.17 0.15 0.19 0.18 0.23 0.38 0.53 0.58 0.58 0.62 0.82 1.16 1.08 0.71 0.69 0.77 0.82 0.74 0.65 0.60 0.59 0.54 0.48 0.41 0.40 0.45 0.47 0.44 0.43 0.40 0.38 0.38 0.43 0.49 0.49 0.47 0.43 0.48 0.47 0.45 0.50 0.51 0.44 0.42 0.48 0.55
0.04 0.09 0.12 0.11 0.10 0.16 0.17 0.22 0.32 0.47 0.50 0.58 0.76 0.84 0.90 0.76 0.60 0.75 0.92 1.07 1.13 0.94 0.82 0.73 0.63 0.57 0.53 0.43 0.43 0.50 0.52 0.52 0.54 0.56 0.57 0.72 0.91 0.88 0.90 0.76 0.79 0.78 0.74 0.77 0.79 0.75 0.68 0.66 0.62
0.05 0.07 0.08 0.06 0.07 0.13 0.14 0.23 0.38 0.53 0.63 0.86 1.18 1.23 0.97 0.81 0.75 0.85 1.10 1.21 1.45 1.20 0.91 0.84 0.66 0.61 0.53 0.45 0.56 0.74 0.72 0.77 0.83 0.94 0.98 1.22 1.42 1.42 1.13 1.24 1.33 1.30 1.31 1.20 1.20 1.38 1.18 0.94 0.89
0.03 0.03 0.02 0.03 0.04 0.06 0.12 0.19 0.29 0.46 0.82 1.29 1.37 1.20 0.97 1.05 1.07 1.07 1.36 1.44 1.37 1.21 1.20 1.13 0.90 0.81 0.77 0.84 0.78 0.91 1.05 1.22 1.18 1.14 1.28 1.58 1.46 1.32 1.22 1.31 1.60 1.79 1.86 1.77 1.77 1.90 1.62 1.56 1.76
0.02 0.01 0.01 0.03 0.04 0.06 0.07 0.10 0.21 0.44 0.91 1.06 1.02 0.96 0.93 1.13 1.18 1.27 1.58 1.63 1.65 1.52 1.76 1.82 1.49 1.42 1.30 1.14 1.08 1.04 1.07 1.27 1.41 1.60 1.62 1.76 1.84 1.75 1.61 1.67 1.88 2.04 2.19 2.55 2.44 2.33 2.20 2.15 2.03
0.02 0.01 0.01 0.02 0.04 0.08 0.06 0.12 0.29 0.62 0.82 0.70 0.60 0.83 0.90 1.23 1.55 1.73 1.96 1.81 2.05 2.14 2.37 2.54 2.10 1.99 1.86 1.84 1.75 1.50 1.55 1.65 1.73 1.91 2.05 2.11 2.25 2.26 2.22 2.16 2.11 1.97 2.06 2.41 2.66 2.53 2.56 2.50 2.35
0.02 0.02 0.02 0.03 0.04 0.06 0.11 0.22 0.39 0.67 0.63 0.57 0.72 1.13 1.33 1.31 1.59 1.97 2.11 2.19 2.51 2.68 2.79 2.92 2.80 2.80 2.62 2.39 2.41 2.39 2.05 2.03 2.02 2.06 2.00 2.19 2.40 2.66 2.78 2.68 2.54 2.23 2.15 2.22 2.50 2.59 2.78 2.73 2.55
0.02 0.04 0.07 0.08 0.09 0.08 0.14 0.44 0.57 0.68 0.58 0.60 0.84 1.19 1.53 1.45 1.60 1.89 2.09 2.57 3.27 3.60 3.47 3.50 3.49 3.72 3.55 3.12 2.82 2.56 2.37 2.34 2.43 2.40 2.27 2.39 2.61 2.84 2.82 2.64 2.32 2.11 2.13 2.27 2.23 2.24 2.53 2.36 2.22
0.03 0.07 0.20 0.20 0.14 0.12 0.21 0.73 0.82 0.72 0.85 0.93 1.10 1.28 1.55 1.58 1.62 1.84 2.31 3.08 3.93 4.43 4.33 4.13 3.74 4.07 4.04 3.69 3.43 3.11 2.85 2.87 2.81 2.53 2.41 2.37 2.51 2.44 2.51 2.20 1.88 1.97 2.14 2.22 2.29 2.18 2.28 2.30 2.38
0.06 0.11 0.19 0.25 0.18 0.15 0.27 0.89 0.92 0.68 0.96 1.21 1.12 1.26 1.47 1.64 1.77 1.89 2.45 3.29 4.12 4.87 5.06 5.02 4.91 4.59 4.28 4.11 3.95 3.76 3.55 3.22 2.87 2.68 2.54 2.26 2.04 1.90 2.04 1.85 1.79 1.84 2.01 2.04 1.90 2.15 2.34 2.32 2.35
0.08 0.12 0.18 0.25 0.19 0.19 0.32 0.67 0.76 0.78 0.95 1.12 1.11 1.12 1.21 1.47 1.88 2.00 2.32 3.05 3.97 4.83 5.37 5.54 5.56 5.16 4.62 4.17 3.78 3.71 3.50 3.22 2.95 2.70 2.48 2.10 1.88 1.71 1.89 1.79 1.71 1.76 1.89 1.96 2.08 2.29 2.38 2.14 2.07
0.07 0.10 0.19 0.26 0.20 0.22 0.39 0.57 0.70 0.82 1.06 1.18 1.21 1.15 1.18 1.47 1.88 2.11 2.41 2.90 3.68 4.41 5.09 5.21 5.43 4.91 4.26 3.69 3.27 3.17 2.98 2.67 2.58 2.47 2.29 2.14 1.92 1.79 1.93 1.79 1.81 1.69 1.73 1.74 1.84 1.99 2.06 1.78 1.93
0.09 0.13 0.21 0.24 0.17 0.20 0.39 0.67 0.85 0.94 0.93 0.99 1.02 1.07 1.18 1.54 1.98 2.35 2.89 3.27 3.28 3.80 4.51 4.57 4.26 4.01 3.54 3.13 2.94 2.77 2.70 2.40 2.23 2.11 2.09 1.90 1.75 1.71 1.69 1.75 1.64 1.59 1.66 1.67 1.71 1.87 1.85 1.64 1.84
0.12 0.14 0.19 0.18 0.17 0.25 0.45 0.84 1.14 1.07 0.81 0.73 0.79 0.87 1.01 1.36 1.86 2.30 2.71 3.14 3.10 3.46 3.56 3.19 3.03 3.08 2.98 2.80 2.68 2.57 2.53 2.33 2.08 1.89 1.87 1.73 1.53 1.50 1.46 1.46 1.51 1.58 1.43 1.53 1.64 1.81 1.93 1.79 1.70
0.08 0.08 0.07 0.08 0.15 0.31 0.45 1.02 1.43 1.23 0.93 0.76 0.79 0.96 1.02 1.13 1.33 1.61 1.95 2.37 2.56 2.64 2.57 2.52 2.48 2.50 2.67 2.67 2.43 2.24 1.94 1.81 1.74 1.62 1.67 1.68 1.47 1.38 1.33 1.32 1.45 1.50 1.45 1.61 1.40 1.53 1.79 1.93 1.75
0.05 0.04 0.05 0.09 0.13 0.28 0.49 0.85 1.27 1.25 1.20 1.04 0.90 0.95 0.90 0.94 0.99 1.14 1.26 1.46 1.74 2.00 2.06 2.04 2.28 2.37 2.39 2.36 2.30 2.28 2.02 1.82 1.75 1.86 2.05 1.95 1.64 1.37 1.21 1.27 1.39 1.45 1.47 1.55 1.53 1.61 1.58 1.64 1.65
0.04 0.05 0.12 0.25 0.38 0.70 0.70 0.75 1.12 1.08 1.04 1.03 0.88 0.74 0.70 0.71 0.76 0.94 0.99 1.04 1.17 1.34 1.46 1.57 1.82 2.02 2.08 2.04 2.04 2.08 2.07 2.00 1.80 1.75 1.79 1.70 1.54 1.37 1.22 1.24 1.41 1.44 1.46 1.48 1.51 1.50 1.47 1.53 1.60
0.05 0.09 0.32 0.69 1.01 1.19 0.75 0.72 0.94 0.82 0.83 0.90 0.72 0.50 0.46 0.54 0.56 0.67 0.73 0.82 0.93 0.97 1.07 1.25 1.45 1.59 1.70 1.78 1.83 1.89 2.06 1.97 1.73 1.53 1.55 1.50 1.34 1.24 1.22 1.22 1.45 1.54 1.52 1.51 1.57 1.55 1.53 1.62 1.68
0.06 0.07 0.19 0.35 0.50 0.71 0.77 1.13 1.07 0.68 0.64 0.57 0.41 0.32 0.30 0.45 0.48 0.46 0.50 0.57 0.72 0.78 0.86 1.02 1.14 1.20 1.31 1.54 1.76 1.73 1.83 1.68 1.54 1.63 1.54 1.40 1.20 1.21 1.41 1.51 1.52 1.50 1.54 1.55 1.77 1.64 1.63 1.71 1.74
0.05 0.05 0.06 0.10 0.16 0.45 0.85 1.24 1.04 0.62 0.56 0.44 0.30 0.24 0.28 0.35 0.46 0.41 0.40 0.44 0.47 0.53 0.61 0.78 1.05 1.12 1.14 1.24 1.47 1.56 1.54 1.54 1.60 1.72 1.65 1.52 1.42 1.30 1.46 1.59 1.65 1.58 1.55 1.63 1.83 1.80 1.83 1.90 1.84
0.06 0.06 0.06 0.08 0.16 0.34 0.72 1.11 1.19 0.92 0.67 0.46 0.35 0.34 0.43 0.41 0.50 0.55 0.42 0.39 0.41 0.41 0.50 0.62 0.79 1.00 1.18 1.18 1.18 1.22 1.45 1.51 1.62 1.65 1.53 1.50 1.46 1.43 1.47 1.45 1.48 1.45 1.44 1.56 1.83 1.85 1.90 2.04 2.01
0.08 0.08 0.09 0.10 0.13 0.22 0.55 0.81 0.73 0.71 0.55 0.43 0.45 0.54 0.44 0.42 0.49 0.53 0.38 0.32 0.36 0.39 0.47 0.60 0.74 1.00 1.18 1.10 1.11 1.22 1.39 1.48 1.53 1.66 1.63 1.53 1.49 1.49 1.41 1.35 1.35 1.33 1.28 1.37 1.57 1.70 1.88 2.01 2.06
0.10 0.10 0.11 0.15 0.16 0.17 0.28 0.50 0.44 0.51 0.50 0.58 0.63 0.59 0.53 0.51 0.51 0.53 0.45 0.47 0.49 0.54 0.57 0.68 0.76 0.90 1.01 1.06 1.14 1.20 1.31 1.38 1.41 1.45 1.52 1.57 1.53 1.56 1.52 1.46 1.40 1.27 1.24 1.36 1.50 1.66 1.82 1.96 2.07

GEFSSGP_prec_meanprecacc_210.txt.gz
Total_Precipitation_Accumulation
0.06 0.13 0.25 0.52 1.38 1.72 1.47 0.78 0.54 0.42 0.41 0.50 0.50 0.46 0.59 0.80 1.02 1.48 0.93 0.38 0.16 0.11 0.15 0.23 0.31 0.31 0.32 0.32 0.33 0.36 0.37 0.38 0.46 0.55 0.59 0.57 0.58 0.63 0.64 0.65 0.69 0.72 0.72 0.67 0.66 0.67 0.60 0.53 0.46
0.08 0.17 0.33 0.73 1.64 2.07 1.54 0.75 0.46 0.32 0.40 0.54 0.62 0.59 0.51 0.55 0.40 0.37 0.48 0.52 0.20 0.10 0.10 0.14 0.23 0.27 0.27 0.29 0.33 0.35 0.37 0.37 0.42 0.46 0.51 0.54 0.58 0.61 0.64 0.63 0.62 0.61 0.57 0.52 0.53 0.49 0.47 0.44 0.41
0.12 0.19 0.41 0.85 1.23 1.35 1.12 0.61 0.36 0.33 0.40 0.57 0.63 0.48 0.44 0.57 0.41 0.33 0.33 0.33 0.19 0.12 0.11 0.15 0.20 0.24 0.26 0.27 0.34 0.35 0.35 0.36 0.39 0.38 0.43 0.49 0.53 0.54 0.57 0.60 0.61 0.56 0.50 0.46 0.45 0.39 0.36 0.40 0.41
0.11 0.20 0.41 0.63 0.64 0.55 0.47 0.38 0.33 0.35 0.43 0.47 0.55 0.53 0.43 0.51 0.39 0.31 0.31 0.27 0.22 0.19 0.15 0.20 0.23 0.23 0.25 0.26 0.31 0.32 0.31 0.32 0.34 0.33 0.36 0.42 0.44 0.47 0.53 0.54 0.54 0.51 0.46 0.39 0.40 0.36 0.35 0.37 0.39
0.10 0.24 0.46 0.50 0.38 0.37 0.38 0.36 0.38 0.42 0.45 0.58 0.70 0.71 0.70 0.59 0.42 0.48 0.58 0.49 0.35 0.29 0.24 0.28 0.30 0.28 0.26 0.28 0.31 0.32 0.30 0.32 0.32 0.34 0.35 0.38 0.39 0.44 0.48 0.46 0.44 0.41 0.38 0.33 0.37 0.42 0.42 0.45 0.49
0.11 0.29 0.34 0.33 0.29 0.31 0.37 0.37 0.36 0.42 0.53 0.76 0.82 0.73 0.78 0.74 0.58 0.63 0.68 0.84 0.69 0.41 0.31 0.32 0.39 0.37 0.31 0.32 0.36 0.36 0.32 0.34 0.35 0.35 0.34 0.36 0.38 0.42 0.40 0.41 0.43 0.39 0.36 0.36 0.39 0.40 0.47 0.53 0.53
0.15 0.30 0.27 0.23 0.21 0.24 0.26 0.34 0.44 0.47 0.57 0.75 0.68 0.65 0.88 1.01 0.81 0.74 0.75 0.81 0.70 0.47 0.44 0.40 0.38 0.36 0.35 0.40 0.43 0.42 0.37 0.38 0.38 0.36 0.33 0.34 0.38 0.42 0.40 0.42 0.47 0.44 0.40 0.41 0.43 0.37 0.39 0.43 0.48
0.08 0.15 0.17 0.17 0.15 0.20 0.18 0.23 0.38 0.53 0.58 0.58 0.62 0.82 1.16 1.09 0.73 0.70 0.78 0.83 0.75 0.65 0.60 0.59 0.55 0.48 0.42 0.41 0.46 0.49 0.46 0.45 0.42 0.41 0.40 0.45 0.52 0.52 0.50 0.46 0.50 0.48 0.46 0.51 0.53 0.46 0.44 0.51 0.59
0.04 0.09 0.12 0.11 0.10 0.16 0.17 0.22 0.32 0.47 0.50 0.58 0.76 0.84 0.91 0.76 0.60 0.76 0.93 1.08 1.14 0.95 0.83 0.74 0.64 0.57 0.54 0.44 0.44 0.51 0.54 0.53 0.55 0.58 0.59 0.74 0.92 0.89 0.92 0.79 0.83 0.80 0.76 0.78 0.81 0.77 0.70 0.68 0.65
0.05 0.07 0.08 0.06 0.07 0.13 0.14 0.23 0.38 0.53 0.63 0.86 1.18 1.23 0.97 0.81 0.75 0.86 1.10 1.22 1.46 1.21 0.91 0.84 0.67 0.62 0.54 0.46 0.57 0.74 0.73 0.77 0.84 0.95 0.99 1.22 1.42 1.43 1.14 1.26 1.36 1.33 1.33 1.22 1.22 1.41 1.21 0.95 0.90
0.03 0.03 0.02 0.04 0.04 0.06 0.12 0.19 0.29 0.46 0.82 1.29 1.37 1.20 0.97 1.05 1.07 1.07 1.37 1.45 1.37 1.22 1.21 1.13 0.91 0.82 0.78 0.85 0.79 0.92 1.06 1.22 1.19 1.15 1.29 1.59 1.48 1.33 1.23 1.32 1.62 1.81 1.87 1.78 1.78 1.92 1.63 1.56 1.76
0.02 0.01 0.01 0.03 0.04 0.06 0.07 0.10 0.21 0.44 0.91 1.06 1.02 0.96 0.93 1.13 1.18 1.28 1.58 1.64 1.65 1.53 1.77 1.84 1.51 1.43 1.31 1.16 1.08 1.05 1.08 1.28 1.42 1.61 1.64 1.78 1.85 1.76 1.62 1.69 1.90 2.04 2.20 2.57 2.45 2.35 2.22 2.16 2.04
0.02 0.01 0.01 0.02 0.04 0.08 0.06 0.12 0.29 0.62 0.82 0.70 0.60 0.83 0.91 1.23 1.56 1.74 1.97 1.82 2.06 2.16 2.38 2.56 2.13 2.02 1.89 1.85 1.76 1.51 1.56 1.67 1.75 1.93 2.07 2.12 2.26 2.27 2.22 2.16 2.12 1.97 2.07 2.42 2.68 2.54 2.57 2.51 2.36
0.02 0.02 0.02 0.03 0.05 0.06 0.11 0.22 0.39 0.67 0.63 0.57 0.72 1.13 1.34 1.31 1.60 1.98 2.12 2.20 2.52 2.69 2.81 2.95 2.83 2.83 2.67 2.42 2.43 2.41 2.06 2.04 2.04 2.08 2.02 2.21 2.42 2.67 2.79 2.69 2.54 2.24 2.16 2.23 2.51 2.60 2.79 2.74 2.56
0.02 0.04 0.07 0.08 0.09 0.08 0.14 0.44 0.57 0.68 0.58 0.60 0.84 1.19 1.53 1.46 1.61 1.89 2.09 2.58 3.28 3.61 3.48 3.52 3.52 3.75 3.59 3.16 2.86 2.59 2.40 2.37 2.45 2.42 2.30 2.42 2.64 2.85 2.83 2.64 2.33 2.12 2.14 2.28 2.24 2.27 2.55 2.38 2.25
0.03 0.08 0.20 0.20 0.14 0.13 0.22 0.74 0.82 0.72 0.85 0.93 1.10 1.28 1.55 1.59 1.63 1.85 2.32 3.09 3.94 4.45 4.34 4.15 3.76 4.09 4.07 3.73 3.47 3.16 2.91 2.93 2.85 2.56 2.45 2.41 2.55 2.47 2.53 2.21 1.90 1.99 2.15 2.24 2.32 2.21 2.31 2.34 2.42
0.07 0.11 0.19 0.25 0.18 0.16 0.27 0.90 0.92 0.68 0.96 1.21 1.12 1.26 1.47 1.64 1.78 1.90 2.46 3.30 4.13 4.89 5.08 5.05 4.93 4.61 4.31 4.14 3.98 3.80 3.60 3.26 2.91 2.72 2.57 2.29 2.08 1.93 2.06 1.87 1.81 1.86 2.03 2.06 1.92 2.18 2.38 2.37 2.40
0.09 0.12 0.18 0.25 0.19 0.19 0.33 0.67 0.77 0.78 0.95 1.12 1.11 1.12 1.22 1.48 1.89 2.02 2.33 3.07 3.99 4.86 5.40 5.55 5.57 5.18 4.65 4.20 3.81 3.74 3.53 3.25 2.98 2.72 2.50 2.12 1.90 1.73 1.91 1.80 1.72 1.77 1.91 1.99 2.11 2.35 2.44 2.19 2.14
0.07 0.10 0.19 0.26 0.20 0.22 0.39 0.57 0.71 0.83 1.06 1.18 1.21 1.16 1.21 1.49 1.90 2.12 2.42 2.92 3.70 4.43 5.11 5.22 5.44 4.93 4.27 3.71 3.30 3.20 3.00 2.70 2.60 2.49 2.32 2.16 1.94 1.81 1.95 1.82 1.83 1.71 1.76 1.77 1.88 2.05 2.13 1.83 1.98
0.10 0.13 0.22 0.24 0.17 0.20 0.39 0.67 0.85 0.94 0.93 0.99 1.04 1.10 1.21 1.57 1.99 2.36 2.90 3.29 3.30 3.82 4.53 4.59 4.28 4.02 3.56 3.16 2.96 2.79 2.73 2.42 2.24 2.13 2.11 1.92 1.77 1.73 1.72 1.80 1.68 1.62 1.68 1.68 1.75 1.93 1.92 1.70 1.91
0.12 0.14 0.19 0.19 0.17 0.25 0.45 0.84 1.14 1.08 0.81 0.73 0.79 0.89 1.03 1.37 1.87 2.30 2.72 3.15 3.12 3.49 3.58 3.21 3.04 3.09 3.01 2.84 2.70 2.58 2.55 2.36 2.11 1.92 1.89 1.75 1.55 1.52 1.49 1.49 1.53 1.61 1.45 1.55 1.69 1.86 1.98 1.85 1.76
0.08 0.08 0.07 0.08 0.15 0.31 0.46 1.02 1.43 1.23 0.93 0.76 0.79 0.96 1.03 1.14 1.33 1.62 1.96 2.38 2.57 2.66 2.58 2.53 2.50 2.52 2.69 2.70 2.45 2.26 1.96 1.84 1.76 1.65 1.70 1.71 1.49 1.41 1.38 1.35 1.48 1.54 1.49 1.65 1.45 1.57 1.84 1.99 1.80
0.05 0.04 0.05 0.09 0.13 0.28 0.49 0.85 1.27 1.26 1.21 1.04 0.91 0.96 0.91 0.94 0.99 1.15 1.26 1.48 1.76 2.01 2.08 2.06 2.31 2.39 2.42 2.39 2.32 2.30 2.03 1.84 1.78 1.89 2.07 1.97 1.67 1.40 1.25 1.30 1.43 1.50 1.52 1.58 1.56 1.64 1.62 1.68 1.70
0.04 0.05 0.12 0.26 0.38 0.71 0.70 0.75 1.12 1.08 1.04 1.03 0.88 0.75 0.71 0.72 0.77 0.95 1.00 1.06 1.19 1.35 1.48 1.59 1.84 2.05 2.11 2.07 2.07 2.10 2.10 2.03 1.84 1.78 1.81 1.71 1.56 1.40 1.25 1.26 1.44 1.48 1.51 1.53 1.56 1.55 1.50 1.56 1.64
0.06 0.09 0.32 0.69 1.02 1.19 0.75 0.72 0.94 0.82 0.83 0.91 0.72 0.50 0.47 0.55 0.60 0.73 0.76 0.84 0.95 0.98 1.08 1.27 1.47 1.62 1.74 1.80 1.85 1.91 2.07 1.99 1.76 1.56 1.58 1.53 1.37 1.27 1.25 1.25 1.49 1.59 1.58 1.58 1.64 1.60 1.56 1.65 1.72
0.06 0.07 0.19 0.35 0.50 0.71 0.77 1.13 1.07 0.68 0.64 0.57 0.42 0.32 0.30 0.47 0.55 0.59 0.55 0.58 0.73 0.79 0.87 1.03 1.16 1.24 1.35 1.56 1.77 1.74 1.84 1.69 1.56 1.66 1.57 1.44 1.24 1.26 1.47 1.59 1.60 1.57 1.62 1.64 1.84 1.70 1.68 1.75 1.79
0.05 0.05 0.06 0.10 0.16 0.45 0.85 1.24 1.04 0.62 0.56 0.44 0.31 0.25 0.29 0.37 0.52 0.50 0.44 0.45 0.48 0.54 0.62 0.79 1.06 1.14 1.17 1.25 1.47 1.56 1.55 1.56 1.61 1.74 1.68 1.56 1.47 1.35 1.51 1.66 1.74 1.66 1.63 1.72 1.91 1.86 1.89 1.97 1.90
0.06 0.06 0.06 0.08 0.16 0.34 0.72 1.11 1.19 0.92 0.67 0.46 0.36 0.35 0.43 0.46 0.58 0.61 0.45 0.40 0.42 0.42 0.51 0.62 0.80 1.01 1.19 1.18 1.18 1.22 1.45 1.52 1.63 1.67 1.56 1.54 1.50 1.49 1.53 1.50 1.53 1.51 1.51 1.63 1.90 1.92 1.97 2.11 2.07
0.08 0.08 0.09 0.10 0.13 0.22 0.55 0.81 0.73 0.71 0.55 0.43 0.45 0.54 0.44 0.44 0.50 0.55 0.39 0.32 0.36 0.39 0.47 0.60 0.74 1.00 1.19 1.10 1.12 1.23 1.39 1.49 1.54 1.67 1.65 1.56 1.52 1.54 1.49 1.45 1.46 1.43 1.36 1.44 1.63 1.76 1.95 2.07 2.12
0.10 0.11 0.11 0.15 0.16 0.17 0.29 0.50 0.44 0.51 0.50 0.58 0.63 0.59 0.53 0.51 0.52 0.54 0.45 0.47 0.50 0.54 0.58 0.68 0.77 0.90 1.01 1.06 1.15 1.21 1.31 1.39 1.42 1.46 1.53 1.60 1.56 1.61 1.58 1.53 1.51 1.39 1.35 1.44 1.56 1.71 1.87 2.01 2.13

GEFSSGP_prec_meanprecacc_216.txt.gz
Total_Precipitation_Accumulation
0.06 0.13 0.26 0.52 1.39 1.72 1.47 0.79 0.54 0.42 0.42 0.51 0.50 0.47 0.60 0.82 1.04 1.49 0.94 0.40 0.18 0.14 0.19 0.26 0.36 0.37 0.38 0.40 0.47 0.52 0.54 0.57 0.65 0.74 0.80 0.77 0.76 0.80 0.85 0.90 0.99 0.96 0.90 0.81 0.78 0.79 0.72 0.64 0.56
0.09 0.17 0.33 0.73 1.64 2.07 1.55 0.75 0.47 0.33 0.41 0.54 0.63 0.59 0.51 0.56 0.40 0.37 0.49 0.54 0.22 0.12 0.12 0.16 0.26 0.32 0.33 0.38 0.49 0.55 0.58 0.60 0.63 0.64 0.68 0.71 0.77 0.81 0.86 0.92 0.90 0.83 0.75 0.67 0.67 0.62 0.59 0.54 0.49
0.12 0.19 0.41 0.85 1.23 1.35 1.12 0.62 0.37 0.35 0.40 0.58 0.64 0.49 0.45 0.58 0.41 0.33 0.34 0.34 0.20 0.13 0.13 0.18 0.24 0.27 0.30 0.35 0.47 0.52 0.54 0.55 0.56 0.52 0.57 0.66 0.71 0.71 0.78 0.86 0.84 0.76 0.68 0.63 0.60 0.52 0.48 0.48 0.47
0.11 0.20 0.41 0.63 0.64 0.55 0.47 0.38 0.34 0.37 0.44 0.47 0.55 0.53 0.43 0.52 0.39 0.31 0.32 0.28 0.23 0.19 0.17 0.23 0.27 0.26 0.29 0.32 0.39 0.41 0.42 0.46 0.47 0.45 0.49 0.58 0.60 0.63 0.71 0.74 0.73 0.68 0.63 0.54 0.54 0.49 0.47 0.45 0.45
0.10 0.24 0.46 0.50 0.38 0.37 0.38 0.37 0.39 0.43 0.46 0.59 0.70 0.72 0.70 0.59 0.43 0.49 0.58 0.50 0.36 0.30 0.25 0.30 0.33 0.31 0.29 0.32 0.35 0.38 0.36 0.41 0.45 0.45 0.48 0.51 0.50 0.55 0.60 0.58 0.55 0.51 0.50 0.45 0.49 0.52 0.52 0.54 0.56
0.11 0.29 0.34 0.33 0.29 0.31 0.37 0.38 0.38 0.43 0.53 0.77 0.82 0.73 0.79 0.75 0.58 0.63 0.69 0.85 0.69 0.41 0.32 0.34 0.42 0.40 0.35 0.35 0.39 0.40 0.36 0.41 0.45 0.43 0.43 0.45 0.45 0.49 0.48 0.48 0.49 0.45 0.43 0.44 0.48 0.48 0.53 0.58 0.60
0.15 0.30 0.27 0.23 0.21 0.24 0.26 0.34 0.44 0.47 0.57 0.75 0.68 0.65 0.88 1.02 0.82 0.74 0.75 0.82 0.71 0.47 0.44 0.42 0.40 0.38 0.38 0.42 0.46 0.45 0.40 0.42 0.43 0.41 0.39 0.40 0.45 0.48 0.46 0.48 0.52 0.49 0.46 0.46 0.49 0.41 0.42 0.46 0.53
0.08 0.15 0.17 0.17 0.15 0.20 0.18 0.23 0.38 0.53 0.58 0.58 0.62 0.82 1.16 1.09 0.73 0.71 0.79 0.83 0.75 0.66 0.60 0.60 0.56 0.50 0.43 0.42 0.48 0.52 0.49 0.48 0.45 0.44 0.45 0.50 0.56 0.56 0.53 0.48 0.53 0.52 0.51 0.56 0.57 0.50 0.49 0.55 0.63
0.04 0.09 0.12 0.11 0.10 0.16 0.17 0.22 0.32 0.47 0.50 0.58 0.76 0.84 0.91 0.76 0.60 0.76 0.94 1.08 1.14 0.96 0.83 0.75 0.65 0.58 0.54 0.45 0.44 0.53 0.56 0.56 0.58 0.62 0.63 0.79 0.97 0.93 0.94 0.81 0.85 0.82 0.80 0.83 0.85 0.80 0.74 0.71 0.68
0.05 0.07 0.08 0.06 0.07 0.13 0.14 0.23 0.38 0.53 0.63 0.86 1.18 1.23 0.97 0.81 0.75 0.86 1.11 1.23 1.47 1.23 0.93 0.85 0.68 0.64 0.56 0.47 0.58 0.76 0.73 0.79 0.87 0.98 1.02 1.26 1.46 1.46 1.16 1.28 1.39 1.36 1.37 1.26 1.26 1.44 1.23 0.98 0.93
0.03 0.03 0.02 0.04 0.04 0.06 0.12 0.19 0.29 0.46 0.82 1.30 1.37 1.20 0.97 1.05 1.07 1.07 1.37 1.45 1.39 1.24 1.22 1.15 0.92 0.84 0.81 0.88 0.81 0.93 1.07 1.24 1.21 1.16 1.32 1.62 1.51 1.35 1.25 1.35 1.66 1.84 1.90 1.80 1.81 1.94 1.65 1.59 1.79
0.02 0.01 0.01 0.03 0.04 0.06 0.07 0.10 0.21 0.44 0.91 1.06 1.02 0.96 0.93 1.13 1.18 1.28 1.59 1.65 1.67 1.54 1.79 1.85 1.52 1.44 1.33 1.19 1.11 1.07 1.09 1.30 1.44 1.63 1.67 1.80 1.88 1.79 1.64 1.72 1.93 2.07 2.22 2.59 2.48 2.39 2.24 2.17 2.05
0.02 0.01 0.01 0.02 0.04 0.08 0.06 0.12 0.29 0.62 0.82 0.70 0.60 0.83 0.91 1.23 1.56 1.74 1.98 1.83 2.08 2.18 2.40 2.57 2.14 2.04 1.91 1.89 1.81 1.54 1.59 1.71 1.78 1.97 2.10 2.15 2.29 2.29 2.25 2.19 2.14 2.00 2.09 2.44 2.71 2.57 2.60 2.53 2.37
0.02 0.02 0.02 0.03 0.05 0.06 0.11 0.22 0.39 0.67 0.63 0.57 0.72 1.13 1.34 1.31 1.60 1.98 2.12 2.20 2.54 2.71 2.83 2.96 2.85 2.86 2.70 2.46 2.48 2.45 2.08 2.07 2.07 2.12 2.05 2.24 2.45 2.71 2.83 2.72 2.58 2.27 2.19 2.26 2.55 2.62 2.82 2.77 2.58
0.03 0.04 0.07 0.08 0.09 0.08 0.14 0.44 0.57 0.69 0.58 0.61 0.84 1.20 1.53 1.46 1.61 1.90 2.10 2.58 3.29 3.62 3.50 3.54 3.53 3.77 3.62 3.20 2.90 2.62 2.43 2.39 2.49 2.46 2.34 2.45 2.67 2.90 2.87 2.68 2.37 2.15 2.17 2.33 2.29 2.31 2.59 2.42 2.28
0.04 0.08 0.20 0.20 0.14 0.13 0.22 0.74 0.82 0.72 0.85 0.93 1.11 1.28 1.55 1.59 1.63 1.86 2.32 3.10 3.95 4.46 4.36 4.18 3.78 4.12 4.10 3.77 3.52 3.20 2.95 2.97 2.91 2.60 2.48 2.44 2.58 2.50 2.58 2.25 1.94 2.03 2.19 2.29 2.39 2.28 2.37 2.40 2.47
0.07 0.11 0.19 0.25 0.18 0.16 0.27 0.90 0.92 0.68 0.96 1.21 1.12 1.26 1.47 1.64 1.78 1.91 2.46 3.30 4.13 4.90 5.10 5.07 4.95 4.64 4.36 4.20 4.03 3.84 3.65 3.33 2.96 2.76 2.62 2.34 2.12 1.95 2.09 1.92 1.86 1.90 2.08 2.12 1.97 2.25 2.45 2.45 2.49
0.09 0.12 0.18 0.25 0.20 0.19 0.33 0.67 0.77 0.78 0.95 1.12 1.11 1.13 1.23 1.49 1.90 2.02 2.33 3.07 4.00 4.87 5.40 5.57 5.59 5.22 4.70 4.25 3.87 3.80 3.58 3.31 3.03 2.76 2.55 2.17 1.95 1.76 1.94 1.85 1.78 1.83 1.97 2.06 2.18 2.43 2.53 2.28 2.25
0.07 0.10 0.19 0.26 0.20 0.22 0.39 0.57 0.71 0.83 1.06 1.18 1.21 1.17 1.21 1.49 1.90 2.12 2.43 2.92 3.71 4.44 5.12 5.23 5.46 4.97 4.32 3.76 3.36 3.26 3.07 2.77 2.67 2.53 2.35 2.20 1.99 1.86 2.01 1.86 1.89 1.76 1.81 1.83 1.94 2.13 2.22 1.92 2.07
0.10 0.13 0.22 0.24 0.17 0.20 0.39 0.67 0.85 0.94 0.93 0.99 1.04 1.10 1.21 1.57 1.99 2.36 2.90 3.29 3.31 3.84 4.55 4.60 4.30 4.05 3.59 3.20 3.02 2.85 2.79 2.48 2.30 2.17 2.15 1.95 1.79 1.77 1.76 1.85 1.73 1.68 1.76 1.76 1.83 2.02 2.01 1.77 1.98
0.12 0.14 0.19 0.19 0.17 0.25 0.45 0.84 1.14 1.08 0.81 0.73 0.79 0.89 1.03 1.37 1.88 2.31 2.72 3.16 3.13 3.50 3.59 3.22 3.06 3.12 3.04 2.87 2.75 2.63 2.60 2.41 2.15 1.96 1.94 1.79 1.59 1.58 1.56 1.53 1.59 1.68 1.51 1.63 1.80 1.95 2.07 1.93 1.84
0.08 0.08 0.08 0.08 0.15 0.31 0.46 1.03 1.43 1.23 0.93 0.76 0.79 0.96 1.03 1.14 1.34 1.63 1.96 2.38 2.58 2.67 2.59 2.55 2.52 2.55 2.73 2.73 2.49 2.31 2.01 1.89 1.82 1.71 1.75 1.75 1.53 1.45 1.43 1.40 1.54 1.61 1.55 1.72 1.52 1.63 1.91 2.08 1.89
0.05 0.05 0.05 0.09 0.13 0.28 0.49 0.86 1.27 1.26 1.21 1.04 0.91 0.96 0.91 0.95 1.03 1.17 1.27 1.48 1.76 2.02 2.08 2.07 2.33 2.42 2.44 2.42 2.36 2.34 2.07 1.87 1.82 1.94 2.12 2.02 1.72 1.44 1.28 1.34 1.48 1.55 1.57 1.64 1.61 1.71 1.70 1.76 1.79
0.04 0.05 0.13 0.26 0.38 0.71 0.70 0.75 1.12 1.08 1.04 1.03 0.88 0.75 0.71 0.73 0.78 0.98 1.03 1.06 1.20 1.35 1.48 1.59 1.85 2.06 2.13 2.10 2.10 2.14 2.12 2.07 1.88 1.83 1.87 1.77 1.62 1.45 1.28 1.30 1.50 1.55 1.57 1.58 1.62 1.62 1.57 1.63 1.71
0.06 0.09 0.32 0.70 1.02 1.19 0.75 0.72 0.94 0.82 0.83 0.91 0.72 0.50 0.47 0.56 0.61 0.81 0.80 0.84 0.95 0.98 1.09 1.27 1.47 1.63 1.75 1.83 1.88 1.93 2.10 2.02 1.80 1.61 1.63 1.58 1.42 1.32 1.30 1.29 1.55 1.64 1.63 1.62 1.68 1.66 1.63 1.72 1.78
0.06 0.07 0.19 0.35 0.50 0.71 0.77 1.13 1.07 0.68 0.64 0.57 0.42 0.32 0.30 0.47 0.55 0.62 0.57 0.58 0.73 0.80 0.88 1.04 1.17 1.25 1.36 1.58 1.79 1.76 1.86 1.72 1.58 1.70 1.61 1.48 1.28 1.30 1.51 1.63 1.64 1.61 1.65 1.68 1.88 1.74 1.74 1.81 1.84
0.05 0.05 0.06 0.10 0.16 0.45 0.85 1.24 1.04 0.62 0.56 0.44 0.31 0.25 0.29 0.37 0.52 0.50 0.44 0.45 0.49 0.54 0.62 0.79 1.06 1.15 1.19 1.27 1.49 1.58 1.57 1.57 1.63 1.76 1.71 1.58 1.49 1.37 1.54 1.69 1.76 1.68 1.66 1.76 1.96 1.90 1.94 2.04 1.97
0.06 0.06 0.06 0.08 0.16 0.34 0.72 1.11 1.19 0.92 0.67 0.46 0.36 0.35 0.43 0.46 0.58 0.61 0.45 0.40 0.42 0.42 0.51 0.62 0.80 1.01 1.20 1.19 1.19 1.23 1.46 1.53 1.64 1.68 1.58 1.56 1.52 1.50 1.55 1.53 1.56 1.54 1.54 1.66 1.95 1.96 2.02 2.17 2.13
0.08 0.08 0.09 0.10 0.13 0.22 0.55 0.81 0.73 0.71 0.55 0.43 0.45 0.54 0.44 0.44 0.50 0.55 0.39 0.32 0.36 0.39 0.47 0.60 0.74 1.01 1.19 1.10 1.12 1.24 1.40 1.50 1.55 1.68 1.66 1.58 1.54 1.57 1.51 1.47 1.48 1.46 1.39 1.48 1.67 1.80 1.99 2.11 2.17
0.10 0.11 0.11 0.15 0.16 0.17 0.29 0.50 0.44 0.51 0.50 0.58 0.63 0.59 0.53 0.51 0.52 0.54 0.45 0.47 0.50 0.54 0.58 0.68 0.77 0.90 1.02 1.06 1.16 1.22 1.32 1.40 1.43 1.47 1.55 1.62 1.58 1.63 1.60 1.54 1.52 1.40 1.38 1.48 1.61 1.76 1.93 2.07 2.18

GEFSSGP_prec_meanprecacc_222.txt.gz
Total_Precipitation_Accumulation
0.06 0.13 0.26 0.53 1.43 1.76 1.49 0.80 0.54 0.43 0.42 0.51 0.50 0.47 0.62 0.85 1.10 1.55 0.98 0.41 0.20 0.16 0.22 0.31 0.45 0.53 0.57 0.55 0.57 0.59 0.61 0.66 0.80 0.97 1.15 1.02 0.94 0.95 1.01 1.05 1.13 1.12 1.06 0.95 0.91 0.90 0.82 0.73 0.65
0.09 0.18 0.34 0.76 1.69 2.09 1.58 0.78 0.49 0.34 0.41 0.54 0.63 0.59 0.52 0.57 0.41 0.38 0.51 0.55 0.23 0.13 0.14 0.20 0.35 0.49 0.55 0.57 0.60 0.64 0.65 0.69 0.77 0.80 0.90 0.95 0.97 0.99 1.03 1.07 1.07 1.01 0.90 0.82 0.80 0.72 0.68 0.64 0.58
0.12 0.19 0.42 0.87 1.24 1.36 1.13 0.64 0.39 0.35 0.41 0.58 0.65 0.49 0.45 0.59 0.42 0.34 0.36 0.35 0.21 0.14 0.14 0.21 0.31 0.41 0.51 0.56 0.61 0.61 0.62 0.65 0.67 0.64 0.72 0.85 0.90 0.96 1.04 1.08 1.03 0.93 0.84 0.76 0.71 0.64 0.59 0.58 0.54
0.12 0.21 0.42 0.63 0.64 0.56 0.48 0.40 0.35 0.38 0.45 0.48 0.56 0.54 0.43 0.52 0.40 0.32 0.33 0.29 0.23 0.20 0.17 0.25 0.31 0.33 0.41 0.49 0.53 0.52 0.51 0.55 0.56 0.55 0.63 0.75 0.79 0.88 1.01 0.98 0.93 0.85 0.79 0.70 0.68 0.62 0.57 0.53 0.51
0.10 0.25 0.47 0.51 0.38 0.37 0.40 0.38 0.40 0.45 0.48 0.60 0.71 0.72 0.72 0.60 0.43 0.49 0.59 0.50 0.36 0.30 0.25 0.30 0.34 0.34 0.37 0.45 0.49 0.51 0.47 0.50 0.55 0.57 0.64 0.71 0.72 0.79 0.86 0.81 0.75 0.70 0.68 0.64 0.66 0.65 0.60 0.60 0.61
0.12 0.29 0.34 0.33 0.29 0.31 0.37 0.38 0.39 0.44 0.54 0.77 0.83 0.74 0.81 0.77 0.59 0.63 0.69 0.86 0.70 0.41 0.32 0.34 0.42 0.42 0.39 0.44 0.51 0.52 0.47 0.51 0.54 0.53 0.56 0.59 0.60 0.65 0.64 0.65 0.67 0.64 0.61 0.61 0.62 0.59 0.60 0.63 0.64
0.15 0.30 0.27 0.23 0.21 0.24 0.26 0.35 0.45 0.47 0.58 0.75 0.68 0.65 0.89 1.03 0.82 0.75 0.75 0.82 0.71 0.48 0.45 0.42 0.40 0.39 0.40 0.47 0.53 0.53 0.48 0.50 0.50 0.48 0.47 0.49 0.54 0.57 0.56 0.60 0.66 0.64 0.60 0.60 0.60 0.50 0.48 0.52 0.57
0.09 0.15 0.17 0.17 0.15 0.20 0.18 0.23 0.39 0.53 0.59 0.58 0.62 0.82 1.17 1.10 0.74 0.71 0.79 0.84 0.75 0.66 0.62 0.62 0.57 0.51 0.44 0.43 0.51 0.56 0.54 0.54 0.51 0.51 0.51 0.56 0.62 0.61 0.59 0.55 0.61 0.60 0.58 0.63 0.63 0.56 0.54 0.61 0.68
0.05 0.09 0.12 0.11 0.10 0.16 0.17 0.22 0.32 0.47 0.50 0.58 0.76 0.84 0.91 0.76 0.61 0.76 0.94 1.09 1.14 0.96 0.85 0.78 0.66 0.59 0.55 0.45 0.45 0.54 0.58 0.60 0.65 0.69 0.70 0.86 1.05 0.98 0.99 0.84 0.88 0.85 0.83 0.87 0.88 0.84 0.78 0.75 0.72
0.05 0.07 0.08 0.06 0.07 0.13 0.14 0.23 0.38 0.55 0.65 0.88 1.19 1.23 0.97 0.82 0.75 0.86 1.11 1.24 1.48 1.24 0.93 0.86 0.70 0.64 0.58 0.49 0.60 0.79 0.76 0.83 0.94 1.08 1.10 1.33 1.54 1.53 1.20 1.31 1.41 1.38 1.39 1.28 1.28 1.46 1.26 1.01 0.96
0.03 0.03 0.02 0.04 0.04 0.06 0.12 0.19 0.29 0.47 0.84 1.32 1.39 1.20 0.97 1.05 1.07 1.07 1.38 1.46 1.40 1.24 1.22 1.15 0.93 0.84 0.82 0.89 0.83 0.96 1.10 1.28 1.25 1.21 1.36 1.67 1.56 1.40 1.29 1.38 1.69 1.87 1.93 1.83 1.83 1.98 1.72 1.63 1.82
0.02 0.01 0.01 0.03 0.04 0.06 0.07 0.10 0.21 0.44 0.91 1.06 1.02 0.96 0.93 1.13 1.19 1.28 1.59 1.65 1.67 1.55 1.79 1.85 1.52 1.45 1.34 1.20 1.14 1.10 1.12 1.33 1.46 1.67 1.71 1.84 1.94 1.85 1.70 1.77 1.98 2.12 2.27 2.64 2.53 2.43 2.27 2.20 2.06
0.02 0.01 0.01 0.02 0.04 0.08 0.06 0.12 0.29 0.62 0.82 0.70 0.60 0.83 0.91 1.23 1.56 1.74 1.98 1.83 2.08 2.18 2.41 2.58 2.15 2.04 1.92 1.91 1.84 1.56 1.61 1.74 1.81 2.00 2.13 2.19 2.34 2.36 2.33 2.25 2.21 2.06 2.14 2.48 2.75 2.60 2.63 2.55 2.38
0.03 0.02 0.02 0.03 0.05 0.06 0.11 0.22 0.39 0.67 0.63 0.57 0.72 1.13 1.34 1.31 1.60 1.98 2.12 2.20 2.54 2.71 2.83 2.97 2.87 2.88 2.72 2.48 2.51 2.48 2.11 2.13 2.11 2.16 2.09 2.27 2.50 2.78 2.92 2.78 2.64 2.32 2.23 2.29 2.58 2.64 2.86 2.80 2.60
0.03 0.05 0.08 0.08 0.09 0.09 0.14 0.44 0.57 0.69 0.58 0.61 0.84 1.20 1.53 1.46 1.61 1.90 2.10 2.58 3.29 3.62 3.50 3.55 3.54 3.78 3.64 3.23 2.93 2.66 2.46 2.42 2.52 2.51 2.39 2.49 2.71 2.98 2.95 2.76 2.44 2.21 2.21 2.36 2.33 2.34 2.63 2.46 2.33
0.04 0.08 0.21 0.20 0.14 0.13 0.22 0.74 0.82 0.72 0.85 0.93 1.11 1.28 1.55 1.59 1.63 1.86 2.32 3.10 3.95 4.46 4.37 4.19 3.79 4.13 4.12 3.81 3.57 3.25 2.99 3.01 2.94 2.63 2.52 2.47 2.64 2.56 2.65 2.33 2.01 2.09 2.24 2.34 2.45 2.33 2.42 2.46 2.54
0.07 0.12 0.19 0.25 0.18 0.16 0.27 0.90 0.92 0.68 0.96 1.21 1.12 1.26 1.47 1.64 1.78 1.91 2.46 3.30 4.14 4.91 5.11 5.08 4.97 4.67 4.40 4.23 4.08 3.88 3.71 3.38 3.00 2.79 2.65 2.38 2.15 1.98 2.15 2.01 1.94 1.97 2.15 2.17 2.01 2.32 2.55 2.55 2.57
0.09 0.12 0.18 0.25 0.20 0.19 0.33 0.67 0.77 0.78 0.95 1.12 1.11 1.13 1.23 1.49 1.90 2.02 2.33 3.07 4.00 4.88 5.41 5.58 5.61 5.25 4.74 4.31 3.95 3.89 3.64 3.36 3.07 2.81 2.60 2.21 2.00 1.79 2.00 1.92 1.85 1.89 2.06 2.14 2.26 2.52 2.65 2.39 2.34
0.08 0.10 0.20 0.27 0.21 0.22 0.39 0.58 0.71 0.83 1.06 1.18 1.21 1.17 1.21 1.50 1.91 2.12 2.43 2.92 3.72 4.46 5.14 5.24 5.48 5.01 4.37 3.84 3.46 3.35 3.15 2.83 2.71 2.57 2.39 2.24 2.03 1.89 2.08 1.93 1.97 1.83 1.89 1.92 2.04 2.27 2.38 2.04 2.17
0.10 0.13 0.22 0.24 0.17 0.20 0.41 0.68 0.85 0.94 0.93 0.99 1.04 1.10 1.21 1.57 2.02 2.37 2.90 3.29 3.31 3.85 4.56 4.61 4.31 4.08 3.64 3.26 3.10 2.93 2.87 2.55 2.35 2.20 2.18 1.98 1.83 1.83 1.84 1.95 1.83 1.78 1.86 1.87 1.94 2.16 2.15 1.89 2.08
0.13 0.15 0.19 0.19 0.17 0.25 0.46 0.85 1.15 1.08 0.81 0.73 0.79 0.89 1.03 1.37 1.88 2.31 2.73 3.16 3.13 3.51 3.60 3.23 3.07 3.15 3.09 2.93 2.81 2.68 2.68 2.48 2.21 2.02 1.99 1.82 1.62 1.62 1.64 1.63 1.68 1.78 1.60 1.74 1.91 2.05 2.17 2.05 1.97
0.09 0.08 0.08 0.08 0.15 0.31 0.46 1.03 1.44 1.23 0.93 0.76 0.79 0.96 1.03 1.14 1.34 1.63 1.97 2.39 2.58 2.67 2.59 2.55 2.53 2.57 2.76 2.77 2.54 2.35 2.07 1.97 1.90 1.78 1.82 1.80 1.57 1.49 1.50 1.48 1.63 1.70 1.64 1.83 1.59 1.71 2.00 2.21 2.03
0.05 0.05 0.05 0.10 0.14 0.30 0.51 0.87 1.28 1.26 1.21 1.04 0.91 0.96 0.91 0.95 1.03 1.17 1.27 1.48 1.77 2.02 2.08 2.07 2.34 2.43 2.46 2.45 2.39 2.39 2.12 1.94 1.89 1.99 2.19 2.10 1.79 1.48 1.33 1.42 1.57 1.65 1.68 1.75 1.70 1.80 1.78 1.86 1.88
0.05 0.06 0.13 0.27 0.40 0.74 0.73 0.77 1.13 1.09 1.04 1.04 0.89 0.75 0.71 0.73 0.79 0.98 1.03 1.06 1.20 1.35 1.48 1.60 1.86 2.07 2.14 2.11 2.12 2.17 2.17 2.12 1.95 1.88 1.93 1.84 1.70 1.52 1.35 1.38 1.59 1.65 1.69 1.71 1.73 1.71 1.65 1.72 1.80
0.06 0.09 0.33 0.71 1.04 1.21 0.77 0.75 0.95 0.83 0.84 0.91 0.72 0.50 0.47 0.56 0.61 0.81 0.80 0.84 0.95 0.98 1.09 1.27 1.48 1.64 1.76 1.84 1.90 1.96 2.13 2.06 1.84 1.65 1.67 1.64 1.49 1.41 1.38 1.36 1.63 1.73 1.72 1.71 1.78 1.75 1.73 1.82 1.87
0.06 0.07 0.20 0.36 0.51 0.72 0.77 1.14 1.07 0.69 0.65 0.57 0.42 0.32 0.30 0.47 0.55 0.62 0.57 0.58 0.73 0.80 0.88 1.04 1.17 1.26 1.38 1.60 1.82 1.79 1.89 1.75 1.62 1.73 1.63 1.52 1.33 1.36 1.56 1.67 1.70 1.67 1.71 1.74 1.96 1.82 1.82 1.90 1.92
0.05 0.05 0.07 0.10 0.16 0.45 0.85 1.24 1.04 0.63 0.56 0.44 0.31 0.25 0.29 0.37 0.52 0.50 0.44 0.45 0.49 0.54 0.62 0.79 1.07 1.16 1.21 1.29 1.51 1.61 1.59 1.60 1.66 1.78 1.73 1.61 1.53 1.40 1.57 1.72 1.81 1.72 1.70 1.80 2.01 1.97 2.00 2.10 2.02
0.06 0.06 0.06 0.08 0.16 0.35 0.72 1.12 1.20 0.93 0.68 0.46 0.36 0.35 0.43 0.46 0.59 0.61 0.45 0.40 0.42 0.42 0.51 0.62 0.81 1.02 1.20 1.20 1.20 1.25 1.48 1.55 1.66 1.70 1.59 1.58 1.56 1.55 1.60 1.57 1.60 1.58 1.58 1.71 2.00 2.01 2.06 2.22 2.17
0.08 0.08 0.09 0.10 0.13 0.23 0.56 0.82 0.74 0.73 0.57 0.45 0.45 0.54 0.44 0.44 0.50 0.56 0.39 0.32 0.36 0.39 0.47 0.60 0.74 1.01 1.19 1.10 1.13 1.26 1.42 1.51 1.56 1.69 1.67 1.61 1.58 1.61 1.55 1.51 1.52 1.49 1.42 1.50 1.69 1.82 2.02 2.15 2.21
0.10 0.11 0.11 0.15 0.16 0.17 0.29 0.52 0.45 0.52 0.51 0.58 0.63 0.61 0.54 0.51 0.52 0.54 0.45 0.47 0.50 0.54 0.58 0.68 0.77 0.90 1.02 1.07 1.16 1.23 1.34 1.42 1.45 1.49 1.58 1.65 1.62 1.68 1.64 1.58 1.55 1.42 1.40 1.50 1.62 1.77 1.94 2.09 2.20

GEFSSGP_prec_meanprecacc_228.txt.gz
Total_Precipitation_Accumulation
0.06 0.15 0.30 0.62 1.53 1.83 1.53 0.81 0.56 0.43 0.42 0.52 0.51 0.48 0.63 0.88 1.13 1.61 1.08 0.50 0.25 0.21 0.26 0.37 0.53 0.59 0.60 0.57 0.59 0.62 0.65 0.73 0.88 1.08 1.26 1.18 1.11 1.11 1.15 1.16 1.25 1.24 1.19 1.09 1.02 0.99 0.90 0.81 0.73
0.11 0.22 0.41 0.84 1.75 2.14 1.64 0.79 0.50 0.35 0.42 0.54 0.63 0.59 0.52 0.57 0.42 0.43 0.62 0.66 0.29 0.19 0.21 0.28 0.43 0.55 0.58 0.59 0.62 0.67 0.72 0.79 0.86 0.91 1.05 1.10 1.10 1.10 1.13 1.17 1.17 1.12 1.03 0.94 0.88 0.79 0.74 0.71 0.64
0.16 0.25 0.49 0.95 1.26 1.37 1.15 0.65 0.41 0.39 0.43 0.59 0.65 0.49 0.45 0.60 0.42 0.38 0.44 0.43 0.27 0.19 0.21 0.30 0.38 0.46 0.55 0.59 0.63 0.64 0.68 0.76 0.76 0.73 0.84 0.98 1.04 1.07 1.13 1.17 1.13 1.04 0.95 0.86 0.79 0.70 0.65 0.63 0.61
0.15 0.26 0.47 0.67 0.65 0.56 0.49 0.40 0.36 0.40 0.47 0.48 0.56 0.54 0.43 0.52 0.40 0.35 0.38 0.35 0.29 0.24 0.21 0.32 0.38 0.40 0.45 0.52 0.56 0.55 0.55 0.63 0.66 0.64 0.75 0.89 0.97 1.01 1.09 1.07 1.03 0.97 0.91 0.79 0.75 0.67 0.62 0.58 0.56
0.14 0.28 0.50 0.52 0.38 0.38 0.40 0.39 0.40 0.46 0.49 0.60 0.71 0.72 0.72 0.61 0.44 0.51 0.63 0.57 0.42 0.34 0.29 0.35 0.42 0.43 0.44 0.48 0.51 0.54 0.50 0.55 0.62 0.68 0.78 0.86 0.87 0.92 0.96 0.92 0.88 0.84 0.80 0.72 0.72 0.69 0.65 0.64 0.66
0.15 0.32 0.36 0.34 0.29 0.31 0.38 0.38 0.40 0.47 0.56 0.78 0.83 0.74 0.81 0.78 0.60 0.65 0.72 0.91 0.74 0.45 0.34 0.36 0.45 0.46 0.44 0.49 0.54 0.55 0.51 0.55 0.61 0.64 0.69 0.72 0.74 0.80 0.79 0.81 0.82 0.79 0.74 0.69 0.68 0.65 0.65 0.67 0.68
0.17 0.32 0.28 0.24 0.22 0.25 0.26 0.36 0.46 0.49 0.61 0.76 0.68 0.66 0.90 1.05 0.84 0.77 0.78 0.86 0.75 0.51 0.48 0.44 0.42 0.41 0.44 0.52 0.57 0.57 0.52 0.54 0.55 0.55 0.57 0.64 0.74 0.78 0.77 0.78 0.79 0.76 0.71 0.68 0.67 0.55 0.53 0.55 0.60
0.10 0.16 0.18 0.18 0.16 0.20 0.19 0.24 0.39 0.53 0.60 0.58 0.62 0.82 1.17 1.11 0.74 0.72 0.81 0.86 0.78 0.69 0.65 0.64 0.59 0.52 0.46 0.46 0.56 0.62 0.59 0.58 0.55 0.56 0.58 0.69 0.81 0.81 0.78 0.69 0.73 0.72 0.69 0.71 0.70 0.61 0.59 0.63 0.70
0.05 0.10 0.13 0.12 0.10 0.16 0.17 0.22 0.32 0.47 0.50 0.58 0.76 0.84 0.91 0.76 0.61 0.77 0.95 1.10 1.16 0.99 0.89 0.83 0.70 0.61 0.56 0.47 0.47 0.58 0.63 0.65 0.70 0.74 0.75 0.95 1.16 1.11 1.12 0.97 1.01 0.98 0.93 0.95 0.96 0.90 0.82 0.78 0.75
0.06 0.08 0.08 0.06 0.07 0.13 0.14 0.23 0.38 0.56 0.66 0.88 1.19 1.23 0.97 0.82 0.76 0.87 1.12 1.25 1.50 1.26 0.96 0.89 0.75 0.68 0.61 0.51 0.62 0.82 0.78 0.86 0.97 1.09 1.12 1.41 1.64 1.62 1.31 1.44 1.53 1.49 1.48 1.38 1.37 1.53 1.31 1.03 0.98
0.03 0.04 0.02 0.04 0.04 0.06 0.12 0.19 0.29 0.47 0.84 1.32 1.39 1.20 0.97 1.05 1.08 1.08 1.38 1.47 1.41 1.26 1.24 1.16 0.96 0.88 0.85 0.93 0.86 0.99 1.14 1.31 1.28 1.23 1.38 1.72 1.62 1.48 1.39 1.49 1.80 1.96 2.01 1.92 1.91 2.03 1.76 1.67 1.85
0.02 0.01 0.01 0.03 0.04 0.06 0.07 0.10 0.21 0.44 0.91 1.06 1.02 0.96 0.93 1.13 1.19 1.28 1.59 1.66 1.68 1.55 1.80 1.86 1.53 1.47 1.37 1.23 1.17 1.14 1.21 1.37 1.50 1.70 1.73 1.86 1.98 1.91 1.78 1.84 2.04 2.18 2.31 2.69 2.58 2.49 2.32 2.24 2.10
0.03 0.02 0.01 0.02 0.05 0.08 0.06 0.12 0.29 0.62 0.82 0.70 0.60 0.83 0.91 1.23 1.56 1.75 1.98 1.84 2.09 2.19 2.41 2.58 2.16 2.06 1.94 1.94 1.88 1.60 1.68 1.80 1.91 2.03 2.15 2.20 2.36 2.39 2.37 2.29 2.24 2.09 2.18 2.53 2.79 2.66 2.67 2.58 2.41
0.04 0.03 0.02 0.03 0.05 0.06 0.11 0.22 0.39 0.67 0.63 0.57 0.72 1.13 1.34 1.32 1.60 1.98 2.12 2.20 2.54 2.72 2.84 2.98 2.88 2.88 2.73 2.50 2.54 2.52 2.17 2.22 2.19 2.19 2.12 2.30 2.51 2.80 2.94 2.81 2.66 2.36 2.26 2.33 2.61 2.67 2.89 2.82 2.63
0.04 0.05 0.08 0.09 0.09 0.09 0.15 0.45 0.57 0.69 0.58 0.61 0.84 1.20 1.53 1.46 1.61 1.90 2.10 2.58 3.29 3.62 3.51 3.55 3.54 3.78 3.65 3.24 2.95 2.69 2.51 2.46 2.57 2.54 2.42 2.51 2.73 2.99 2.97 2.79 2.47 2.24 2.23 2.39 2.36 2.36 2.65 2.48 2.35
0.05 0.10 0.22 0.21 0.15 0.13 0.23 0.74 0.82 0.72 0.86 0.93 1.11 1.28 1.55 1.59 1.63 1.86 2.33 3.10 3.95 4.46 4.37 4.20 3.79 4.13 4.13 3.81 3.58 3.27 3.02 3.05 2.97 2.66 2.55 2.50 2.67 2.58 2.67 2.35 2.03 2.11 2.26 2.35 2.47 2.36 2.45 2.49 2.58
0.10 0.15 0.21 0.26 0.18 0.16 0.28 0.90 0.92 0.68 0.96 1.21 1.12 1.26 1.47 1.64 1.79 1.91 2.46 3.30 4.14 4.91 5.12 5.08 4.97 4.68 4.41 4.24 4.09 3.90 3.73 3.40 3.01 2.82 2.68 2.41 2.17 1.99 2.17 2.02 1.96 1.99 2.17 2.19 2.04 2.35 2.58 2.58 2.61
0.11 0.15 0.20 0.27 0.21 0.20 0.34 0.68 0.77 0.79 0.95 1.12 1.11 1.13 1.23 1.50 1.93 2.03 2.35 3.09 4.02 4.89 5.42 5.58 5.62 5.26 4.76 4.32 3.97 3.90 3.66 3.37 3.09 2.83 2.63 2.24 2.03 1.81 2.02 1.94 1.87 1.91 2.08 2.17 2.29 2.57 2.68 2.42 2.37
0.09 0.12 0.21 0.28 0.22 0.23 0.41 0.59 0.72 0.83 1.06 1.19 1.22 1.17 1.21 1.51 1.96 2.14 2.44 2.93 3.73 4.47 5.14 5.25 5.49 5.02 4.38 3.85 3.48 3.37 3.16 2.85 2.72 2.59 2.41 2.26 2.05 1.91 2.10 1.94 2.00 1.86 1.93 1.95 2.07 2.31 2.42 2.08 2.21
0.11 0.14 0.23 0.25 0.18 0.22 0.43 0.71 0.86 0.95 0.94 1.00 1.05 1.10 1.21 1.58 2.03 2.38 2.90 3.30 3.33 3.87 4.56 4.61 4.32 4.09 3.64 3.26 3.11 2.94 2.88 2.56 2.37 2.21 2.21 2.01 1.85 1.85 1.85 1.98 1.86 1.82 1.93 1.93 2.01 2.20 2.20 1.94 2.14
0.13 0.16 0.20 0.20 0.18 0.27 0.48 0.88 1.16 1.08 0.82 0.74 0.80 0.89 1.03 1.38 1.89 2.31 2.73 3.16 3.14 3.52 3.60 3.23 3.07 3.15 3.10 2.94 2.83 2.70 2.69 2.49 2.22 2.04 2.01 1.84 1.64 1.65 1.66 1.67 1.74 1.85 1.68 1.80 1.97 2.11 2.23 2.11 2.03
0.11 0.09 0.09 0.09 0.16 0.33 0.49 1.07 1.46 1.25 0.94 0.77 0.80 0.97 1.03 1.15 1.35 1.63 1.97 2.39 2.59 2.68 2.59 2.55 2.53 2.58 2.77 2.77 2.54 2.36 2.09 1.99 1.91 1.80 1.84 1.82 1.59 1.52 1.53 1.52 1.67 1.75 1.69 1.89 1.66 1.78 2.07 2.27 2.07
0.07 0.05 0.06 0.10 0.15 0.32 0.55 0.91 1.31 1.28 1.23 1.06 0.93 0.98 0.92 0.96 1.04 1.18 1.27 1.48 1.77 2.02 2.08 2.07 2.35 2.44 2.48 2.46 2.41 2.41 2.14 1.96 1.90 2.02 2.22 2.14 1.83 1.51 1.35 1.45 1.59 1.68 1.72 1.80 1.75 1.86 1.85 1.93 1.96
0.05 0.06 0.14 0.28 0.41 0.75 0.74 0.80 1.16 1.12 1.06 1.06 0.91 0.77 0.73 0.76 0.81 0.99 1.03 1.06 1.20 1.35 1.48 1.60 1.86 2.08 2.16 2.12 2.13 2.19 2.18 2.14 1.96 1.90 1.95 1.89 1.75 1.55 1.39 1.42 1.62 1.68 1.72 1.74 1.78 1.78 1.73 1.81 1.90
0.06 0.09 0.34 0.73 1.05 1.22 0.79 0.76 0.97 0.84 0.86 0.93 0.75 0.52 0.48 0.58 0.64 0.81 0.80 0.84 0.95 0.98 1.09 1.27 1.48 1.64 1.76 1.84 1.92 1.98 2.15 2.08 1.86 1.66 1.69 1.68 1.54 1.45 1.43 1.41 1.66 1.76 1.74 1.72 1.81 1.79 1.77 1.88 1.94
0.06 0.07 0.21 0.37 0.52 0.74 0.79 1.15 1.08 0.70 0.66 0.59 0.44 0.34 0.32 0.48 0.56 0.62 0.57 0.58 0.73 0.80 0.88 1.04 1.17 1.26 1.38 1.60 1.83 1.81 1.91 1.77 1.64 1.74 1.65 1.54 1.35 1.38 1.59 1.70 1.72 1.69 1.73 1.75 1.98 1.83 1.84 1.92 1.95
0.05 0.05 0.07 0.11 0.17 0.47 0.89 1.27 1.06 0.64 0.57 0.46 0.33 0.26 0.30 0.38 0.53 0.51 0.44 0.46 0.49 0.54 0.62 0.79 1.07 1.17 1.21 1.30 1.52 1.62 1.60 1.61 1.67 1.80 1.74 1.62 1.54 1.41 1.59 1.74 1.83 1.74 1.72 1.82 2.03 1.99 2.03 2.13 2.04
0.06 0.06 0.06 0.09 0.17 0.36 0.76 1.15 1.24 0.99 0.73 0.49 0.38 0.37 0.45 0.47 0.59 0.62 0.45 0.41 0.43 0.42 0.51 0.62 0.81 1.02 1.21 1.21 1.21 1.25 1.49 1.56 1.67 1.71 1.60 1.59 1.57 1.56 1.61 1.57 1.62 1.61 1.60 1.73 2.02 2.04 2.09 2.24 2.19
0.08 0.08 0.09 0.11 0.15 0.26 0.57 0.84 0.78 0.78 0.63 0.50 0.49 0.58 0.47 0.45 0.52 0.58 0.40 0.33 0.37 0.40 0.47 0.61 0.75 1.03 1.23 1.14 1.15 1.26 1.43 1.52 1.57 1.71 1.69 1.62 1.60 1.63 1.57 1.52 1.55 1.52 1.45 1.52 1.71 1.83 2.03 2.16 2.21
0.10 0.11 0.11 0.15 0.17 0.18 0.30 0.53 0.46 0.54 0.55 0.63 0.66 0.63 0.56 0.53 0.54 0.56 0.47 0.48 0.50 0.55 0.58 0.70 0.80 0.97 1.09 1.11 1.18 1.24 1.34 1.42 1.47 1.52 1.60 1.67 1.64 1.69 1.66 1.61 1.58 1.45 1.42 1.51 1.64 1.78 1.95 2.10 2.21

GEFSSGP_prec_meanprecacc_234.txt.gz
Total_Precipitation_Accumulation
0.07 0.16 0.31 0.63 1.54 1.86 1.54 0.83 0.57 0.44 0.43 0.53 0.52 0.49 0.66 0.91 1.17 1.65 1.12 0.55 0.28 0.23 0.29 0.42 0.59 0.64 0.62 0.59 0.61 0.65 0.70 0.79 0.96 1.17 1.37 1.32 1.28 1.28 1.29 1.29 1.36 1.38 1.33 1.23 1.14 1.11 1.02 0.92 0.82
0.12 0.24 0.42 0.84 1.76 2.16 1.65 0.81 0.51 0.36 0.42 0.55 0.64 0.60 0.54 0.61 0.45 0.47 0.70 0.74 0.35 0.24 0.26 0.34 0.48 0.58 0.60 0.61 0.64 0.70 0.77 0.85 0.97 1.03 1.17 1.22 1.23 1.24 1.25 1.27 1.26 1.22 1.15 1.07 0.99 0.89 0.83 0.79 0.72
0.17 0.26 0.50 0.96 1.27 1.39 1.17 0.66 0.42 0.40 0.43 0.59 0.66 0.50 0.47 0.63 0.48 0.46 0.56 0.55 0.34 0.24 0.25 0.36 0.41 0.49 0.58 0.62 0.66 0.69 0.77 0.87 0.90 0.89 0.98 1.11 1.16 1.18 1.23 1.24 1.20 1.12 1.05 0.98 0.89 0.78 0.73 0.71 0.68
0.16 0.26 0.47 0.68 0.65 0.56 0.49 0.41 0.39 0.42 0.47 0.48 0.56 0.55 0.46 0.56 0.47 0.46 0.52 0.46 0.34 0.26 0.24 0.38 0.43 0.43 0.48 0.56 0.60 0.59 0.66 0.79 0.81 0.81 0.88 1.01 1.07 1.10 1.17 1.14 1.09 1.05 1.01 0.89 0.84 0.75 0.69 0.64 0.62
0.14 0.28 0.51 0.52 0.38 0.38 0.41 0.40 0.44 0.50 0.50 0.60 0.71 0.73 0.74 0.64 0.50 0.62 0.75 0.65 0.46 0.36 0.31 0.39 0.46 0.46 0.47 0.52 0.55 0.59 0.59 0.69 0.76 0.81 0.90 0.97 0.96 1.00 1.04 0.99 0.96 0.93 0.90 0.81 0.80 0.76 0.70 0.69 0.69
0.16 0.32 0.36 0.34 0.30 0.32 0.39 0.40 0.42 0.49 0.56 0.78 0.83 0.74 0.84 0.82 0.66 0.73 0.80 0.97 0.78 0.47 0.36 0.38 0.48 0.50 0.48 0.53 0.59 0.62 0.62 0.71 0.78 0.78 0.81 0.84 0.82 0.87 0.86 0.89 0.93 0.91 0.86 0.79 0.77 0.71 0.69 0.71 0.72
0.18 0.33 0.28 0.24 0.22 0.25 0.27 0.36 0.47 0.50 0.61 0.76 0.68 0.66 0.91 1.08 0.88 0.83 0.84 0.91 0.79 0.54 0.50 0.46 0.43 0.43 0.47 0.56 0.62 0.63 0.63 0.71 0.77 0.74 0.72 0.77 0.83 0.86 0.83 0.88 0.91 0.87 0.80 0.74 0.73 0.60 0.58 0.59 0.65
0.10 0.17 0.18 0.18 0.16 0.20 0.19 0.24 0.39 0.54 0.60 0.58 0.62 0.82 1.18 1.12 0.77 0.76 0.84 0.89 0.81 0.72 0.67 0.65 0.60 0.53 0.47 0.50 0.62 0.69 0.69 0.72 0.73 0.76 0.78 0.85 0.94 0.92 0.87 0.78 0.82 0.81 0.76 0.76 0.74 0.66 0.62 0.66 0.74
0.06 0.10 0.13 0.12 0.10 0.16 0.17 0.22 0.32 0.47 0.51 0.58 0.76 0.84 0.91 0.76 0.62 0.79 0.97 1.12 1.18 1.00 0.90 0.85 0.71 0.62 0.57 0.49 0.51 0.63 0.70 0.74 0.82 0.89 0.92 1.11 1.29 1.22 1.21 1.03 1.09 1.05 0.98 1.00 1.01 0.95 0.86 0.81 0.78
0.06 0.08 0.08 0.06 0.07 0.13 0.14 0.23 0.38 0.56 0.66 0.88 1.19 1.24 0.97 0.82 0.76 0.87 1.13 1.26 1.50 1.27 0.97 0.91 0.77 0.69 0.61 0.52 0.63 0.85 0.82 0.89 1.02 1.15 1.22 1.54 1.76 1.73 1.38 1.50 1.61 1.56 1.54 1.44 1.43 1.60 1.36 1.07 1.01
0.03 0.04 0.02 0.04 0.04 0.06 0.12 0.19 0.29 0.47 0.84 1.32 1.39 1.20 0.98 1.05 1.08 1.08 1.38 1.47 1.41 1.26 1.24 1.18 0.98 0.90 0.86 0.94 0.87 1.00 1.15 1.33 1.29 1.25 1.43 1.82 1.71 1.56 1.45 1.56 1.88 2.03 2.08 1.98 1.97 2.09 1.80 1.70 1.87
0.02 0.01 0.01 0.03 0.04 0.06 0.07 0.10 0.21 0.44 0.91 1.06 1.02 0.96 0.93 1.13 1.19 1.28 1.59 1.66 1.68 1.56 1.81 1.87 1.56 1.50 1.39 1.24 1.18 1.15 1.23 1.38 1.52 1.72 1.77 1.93 2.06 1.99 1.85 1.92 2.12 2.26 2.38 2.76 2.64 2.54 2.36 2.27 2.13
0.03 0.02 0.01 0.02 0.05 0.08 0.06 0.12 0.29 0.62 0.82 0.70 0.60 0.83 0.91 1.23 1.56 1.75 1.98 1.84 2.09 2.19 2.42 2.59 2.17 2.08 1.96 1.96 1.90 1.62 1.70 1.81 1.93 2.06 2.19 2.25 2.43 2.47 2.44 2.37 2.31 2.16 2.24 2.58 2.83 2.70 2.71 2.61 2.44
0.04 0.03 0.02 0.03 0.05 0.06 0.11 0.22 0.40 0.68 0.63 0.57 0.72 1.13 1.34 1.32 1.60 1.98 2.13 2.21 2.54 2.72 2.84 2.98 2.88 2.89 2.74 2.52 2.55 2.53 2.18 2.25 2.23 2.25 2.18 2.35 2.57 2.87 3.00 2.87 2.72 2.41 2.31 2.36 2.64 2.71 2.92 2.85 2.65
0.05 0.05 0.08 0.09 0.09 0.09 0.15 0.45 0.57 0.69 0.58 0.61 0.84 1.20 1.53 1.46 1.61 1.90 2.10 2.59 3.29 3.63 3.51 3.56 3.55 3.79 3.65 3.25 2.96 2.70 2.52 2.48 2.59 2.57 2.46 2.56 2.78 3.04 3.03 2.85 2.52 2.29 2.29 2.43 2.40 2.40 2.70 2.52 2.38
0.06 0.10 0.22 0.21 0.15 0.14 0.23 0.74 0.82 0.72 0.86 0.93 1.11 1.28 1.55 1.59 1.63 1.86 2.33 3.11 3.95 4.47 4.38 4.20 3.80 4.14 4.14 3.82 3.58 3.28 3.03 3.06 2.98 2.67 2.58 2.54 2.71 2.61 2.71 2.40 2.09 2.16 2.31 2.41 2.52 2.41 2.49 2.53 2.62
0.11 0.15 0.21 0.26 0.19 0.16 0.28 0.90 0.92 0.68 0.96 1.21 1.12 1.26 1.47 1.65 1.79 1.91 2.47 3.31 4.15 4.92 5.12 5.09 4.98 4.69 4.43 4.25 4.10 3.90 3.74 3.40 3.02 2.84 2.71 2.45 2.21 2.01 2.18 2.05 2.00 2.03 2.22 2.25 2.09 2.39 2.61 2.62 2.65
0.12 0.15 0.20 0.27 0.22 0.20 0.34 0.69 0.77 0.79 0.95 1.13 1.11 1.13 1.23 1.50 1.93 2.03 2.35 3.09 4.02 4.89 5.43 5.59 5.63 5.29 4.79 4.34 3.98 3.91 3.67 3.38 3.10 2.86 2.66 2.29 2.07 1.84 2.05 1.98 1.91 1.95 2.12 2.22 2.34 2.61 2.72 2.46 2.41
0.10 0.13 0.21 0.28 0.22 0.24 0.41 0.59 0.72 0.83 1.06 1.19 1.22 1.17 1.21 1.51 1.97 2.14 2.45 2.93 3.74 4.47 5.15 5.25 5.51 5.04 4.41 3.87 3.49 3.37 3.17 2.86 2.74 2.61 2.45 2.30 2.07 1.95 2.15 1.99 2.04 1.91 1.98 2.00 2.11 2.36 2.48 2.14 2.26
0.11 0.15 0.24 0.25 0.18 0.22 0.43 0.71 0.87 0.95 0.94 1.00 1.05 1.11 1.22 1.58 2.04 2.38 2.91 3.30 3.33 3.87 4.57 4.61 4.32 4.10 3.67 3.28 3.12 2.95 2.89 2.57 2.38 2.24 2.24 2.04 1.90 1.90 1.90 2.02 1.90 1.87 1.98 1.98 2.05 2.26 2.26 2.00 2.20
0.14 0.17 0.21 0.20 0.18 0.27 0.49 0.89 1.17 1.09 0.82 0.74 0.80 0.90 1.03 1.38 1.89 2.31 2.73 3.17 3.14 3.52 3.60 3.23 3.08 3.16 3.11 2.95 2.85 2.72 2.70 2.50 2.23 2.06 2.03 1.88 1.69 1.69 1.70 1.71 1.77 1.88 1.71 1.84 2.01 2.16 2.27 2.14 2.08
0.11 0.09 0.09 0.09 0.17 0.33 0.49 1.07 1.47 1.25 0.94 0.77 0.80 0.97 1.04 1.15 1.35 1.63 1.97 2.39 2.59 2.68 2.59 2.56 2.54 2.58 2.78 2.79 2.57 2.38 2.10 2.00 1.93 1.82 1.87 1.85 1.62 1.54 1.56 1.56 1.71 1.79 1.74 1.93 1.69 1.81 2.09 2.28 2.10
0.07 0.05 0.06 0.11 0.16 0.32 0.55 0.91 1.31 1.29 1.23 1.06 0.93 0.98 0.93 0.97 1.04 1.18 1.27 1.48 1.77 2.02 2.09 2.07 2.35 2.45 2.48 2.47 2.43 2.43 2.16 1.98 1.94 2.05 2.24 2.17 1.84 1.52 1.37 1.47 1.62 1.72 1.77 1.84 1.78 1.88 1.87 1.95 1.99
0.05 0.06 0.14 0.28 0.42 0.76 0.75 0.81 1.16 1.12 1.07 1.06 0.92 0.78 0.73 0.77 0.82 0.99 1.03 1.07 1.20 1.35 1.48 1.60 1.87 2.08 2.16 2.13 2.15 2.21 2.21 2.17 2.00 1.93 1.98 1.91 1.77 1.57 1.40 1.44 1.63 1.71 1.75 1.76 1.80 1.80 1.74 1.83 1.92
0.06 0.09 0.34 0.74 1.06 1.23 0.80 0.77 0.97 0.85 0.86 0.94 0.75 0.52 0.49 0.59 0.64 0.82 0.81 0.85 0.95 0.99 1.09 1.27 1.48 1.65 1.77 1.85 1.94 2.00 2.18 2.12 1.89 1.68 1.71 1.70 1.56 1.47 1.45 1.43 1.69 1.78 1.76 1.75 1.83 1.80 1.78 1.90 1.97
0.07 0.07 0.21 0.38 0.53 0.74 0.79 1.15 1.08 0.70 0.67 0.60 0.44 0.34 0.32 0.48 0.57 0.62 0.57 0.59 0.74 0.80 0.88 1.04 1.17 1.26 1.38 1.60 1.83 1.82 1.94 1.79 1.66 1.76 1.66 1.56 1.37 1.40 1.61 1.72 1.75 1.72 1.76 1.77 1.99 1.85 1.86 1.94 1.97
0.06 0.05 0.07 0.11 0.17 0.47 0.89 1.27 1.06 0.64 0.58 0.47 0.34 0.26 0.31 0.39 0.53 0.51 0.44 0.46 0.50 0.55 0.62 0.79 1.07 1.17 1.21 1.30 1.52 1.63 1.62 1.62 1.69 1.81 1.75 1.63 1.56 1.45 1.62 1.77 1.85 1.77 1.75 1.84 2.05 2.00 2.04 2.14 2.05
0.06 0.06 0.07 0.09 0.17 0.36 0.76 1.15 1.25 1.00 0.73 0.50 0.39 0.37 0.45 0.47 0.60 0.63 0.46 0.41 0.44 0.43 0.51 0.63 0.81 1.02 1.21 1.21 1.21 1.26 1.50 1.57 1.68 1.72 1.62 1.61 1.58 1.58 1.64 1.61 1.65 1.64 1.62 1.75 2.05 2.05 2.10 2.26 2.20
0.08 0.08 0.09 0.11 0.15 0.26 0.57 0.84 0.78 0.78 0.64 0.50 0.50 0.59 0.47 0.46 0.52 0.59 0.41 0.33 0.37 0.41 0.48 0.62 0.76 1.04 1.23 1.15 1.16 1.27 1.44 1.53 1.58 1.73 1.71 1.64 1.61 1.65 1.60 1.55 1.58 1.56 1.46 1.53 1.72 1.84 2.04 2.17 2.23
0.10 0.11 0.11 0.15 0.17 0.18 0.30 0.53 0.46 0.54 0.55 0.64 0.67 0.64 0.56 0.54 0.54 0.57 0.49 0.49 0.51 0.56 0.60 0.71 0.83 1.01 1.12 1.14 1.21 1.27 1.37 1.44 1.48 1.53 1.62 1.69 1.67 1.71 1.68 1.63 1.59 1.47 1.44 1.53 1.65 1.79 1.96 2.11 2.23

GEFSSGP_prec_meanprecacc_240.txt.gz
Total_Precipitation_Accumulation
0.07 0.16 0.31 0.63 1.55 1.87 1.55 0.84 0.58 0.45 0.45 0.54 0.53 0.50 0.68 0.94 1.20 1.68 1.14 0.56 0.30 0.26 0.33 0.47 0.67 0.72 0.68 0.64 0.67 0.72 0.78 0.91 1.07 1.32 1.52 1.46 1.41 1.42 1.44 1.39 1.44 1.48 1.46 1.35 1.26 1.23 1.11 1.01 0.91
0.12 0.24 0.42 0.85 1.78 2.17 1.66 0.83 0.53 0.39 0.44 0.56 0.65 0.61 0.55 0.63 0.48 0.51 0.72 0.76 0.38 0.28 0.32 0.40 0.56 0.66 0.66 0.67 0.69 0.76 0.83 0.96 1.10 1.18 1.32 1.36 1.37 1.38 1.41 1.39 1.35 1.34 1.28 1.19 1.12 1.02 0.93 0.88 0.80
0.17 0.26 0.50 0.96 1.28 1.39 1.18 0.69 0.46 0.42 0.44 0.60 0.67 0.51 0.50 0.67 0.51 0.51 0.60 0.59 0.37 0.27 0.32 0.43 0.47 0.55 0.64 0.67 0.72 0.75 0.83 0.97 1.01 1.03 1.14 1.28 1.31 1.33 1.40 1.39 1.35 1.31 1.24 1.13 1.01 0.90 0.84 0.80 0.74
0.16 0.26 0.47 0.68 0.65 0.57 0.51 0.43 0.41 0.44 0.48 0.49 0.57 0.57 0.49 0.61 0.53 0.52 0.56 0.49 0.36 0.28 0.29 0.44 0.48 0.49 0.54 0.62 0.66 0.65 0.72 0.85 0.90 0.95 1.02 1.16 1.21 1.22 1.29 1.26 1.24 1.23 1.17 1.02 0.97 0.88 0.80 0.71 0.66
0.15 0.28 0.51 0.52 0.38 0.38 0.42 0.41 0.44 0.51 0.50 0.61 0.73 0.76 0.79 0.71 0.58 0.67 0.78 0.66 0.47 0.37 0.34 0.44 0.51 0.51 0.52 0.57 0.60 0.64 0.66 0.76 0.86 0.96 1.04 1.10 1.07 1.10 1.13 1.10 1.10 1.10 1.05 0.94 0.90 0.84 0.77 0.74 0.73
0.16 0.32 0.36 0.34 0.30 0.32 0.39 0.40 0.42 0.49 0.57 0.79 0.85 0.77 0.89 0.87 0.71 0.76 0.82 0.98 0.79 0.48 0.38 0.40 0.52 0.55 0.54 0.59 0.64 0.67 0.72 0.82 0.91 0.91 0.94 0.96 0.92 0.95 0.94 0.99 1.03 1.00 0.95 0.87 0.85 0.77 0.75 0.75 0.76
0.18 0.33 0.28 0.24 0.22 0.25 0.27 0.37 0.47 0.50 0.62 0.77 0.69 0.68 0.94 1.11 0.91 0.85 0.85 0.93 0.80 0.55 0.51 0.47 0.45 0.47 0.53 0.67 0.78 0.78 0.77 0.84 0.91 0.86 0.83 0.88 0.92 0.94 0.92 0.96 0.99 0.93 0.86 0.81 0.79 0.65 0.62 0.62 0.68
0.10 0.17 0.18 0.18 0.16 0.20 0.19 0.24 0.40 0.54 0.60 0.59 0.63 0.84 1.20 1.14 0.78 0.78 0.86 0.91 0.83 0.72 0.68 0.67 0.62 0.56 0.52 0.61 0.78 0.85 0.83 0.86 0.88 0.91 0.89 0.95 1.02 1.00 0.96 0.86 0.89 0.87 0.82 0.82 0.80 0.71 0.66 0.68 0.77
0.06 0.10 0.13 0.12 0.10 0.16 0.17 0.23 0.33 0.47 0.51 0.58 0.77 0.85 0.92 0.78 0.63 0.79 0.98 1.13 1.19 1.01 0.91 0.86 0.73 0.63 0.60 0.55 0.63 0.77 0.84 0.88 0.95 1.03 1.04 1.19 1.37 1.30 1.31 1.13 1.19 1.14 1.06 1.06 1.07 1.01 0.91 0.85 0.83
0.06 0.08 0.08 0.06 0.07 0.13 0.14 0.23 0.38 0.56 0.66 0.88 1.20 1.24 0.98 0.83 0.77 0.88 1.13 1.27 1.52 1.28 0.98 0.92 0.79 0.71 0.63 0.56 0.69 0.90 0.87 0.96 1.11 1.27 1.35 1.64 1.84 1.83 1.48 1.64 1.74 1.67 1.62 1.51 1.50 1.65 1.40 1.10 1.06
0.03 0.04 0.02 0.04 0.04 0.06 0.12 0.19 0.29 0.47 0.84 1.32 1.39 1.20 0.98 1.06 1.08 1.09 1.39 1.49 1.43 1.28 1.26 1.20 1.00 0.92 0.89 0.96 0.91 1.06 1.21 1.39 1.38 1.35 1.57 1.95 1.83 1.68 1.58 1.71 2.01 2.14 2.16 2.06 2.04 2.14 1.83 1.72 1.91
0.02 0.01 0.01 0.03 0.04 0.06 0.07 0.10 0.21 0.44 0.91 1.06 1.02 0.96 0.93 1.13 1.19 1.29 1.60 1.68 1.70 1.57 1.81 1.89 1.57 1.52 1.42 1.27 1.22 1.19 1.26 1.43 1.58 1.80 1.91 2.06 2.18 2.13 1.98 2.04 2.21 2.33 2.44 2.82 2.69 2.59 2.40 2.31 2.16
0.03 0.02 0.01 0.02 0.05 0.08 0.06 0.12 0.29 0.62 0.82 0.70 0.60 0.83 0.91 1.24 1.56 1.75 1.99 1.85 2.10 2.20 2.43 2.60 2.19 2.10 1.98 1.98 1.93 1.65 1.73 1.86 1.98 2.15 2.34 2.36 2.54 2.59 2.54 2.45 2.38 2.20 2.27 2.62 2.88 2.76 2.76 2.66 2.48
0.04 0.03 0.02 0.03 0.05 0.06 0.11 0.22 0.40 0.68 0.63 0.57 0.72 1.13 1.34 1.32 1.60 1.98 2.13 2.21 2.55 2.73 2.85 2.99 2.90 2.92 2.78 2.56 2.58 2.56 2.22 2.31 2.31 2.36 2.34 2.49 2.67 2.97 3.10 2.96 2.79 2.45 2.35 2.41 2.70 2.79 3.00 2.92 2.71
0.05 0.05 0.09 0.09 0.09 0.09 0.15 0.45 0.57 0.69 0.58 0.61 0.84 1.20 1.53 1.46 1.61 1.90 2.11 2.60 3.30 3.64 3.53 3.58 3.57 3.82 3.71 3.30 2.99 2.71 2.54 2.51 2.67 2.70 2.61 2.68 2.88 3.15 3.12 2.94 2.60 2.34 2.33 2.49 2.49 2.52 2.79 2.60 2.46
0.06 0.10 0.22 0.21 0.15 0.14 0.23 0.74 0.82 0.72 0.86 0.93 1.11 1.28 1.55 1.59 1.63 1.86 2.34 3.11 3.96 4.48 4.40 4.22 3.81 4.17 4.19 3.88 3.63 3.30 3.05 3.09 3.04 2.77 2.69 2.65 2.80 2.71 2.80 2.50 2.17 2.23 2.38 2.51 2.67 2.55 2.61 2.63 2.71
0.11 0.15 0.21 0.26 0.19 0.16 0.28 0.90 0.92 0.68 0.96 1.21 1.12 1.26 1.47 1.65 1.79 1.91 2.47 3.31 4.15 4.93 5.13 5.11 5.00 4.73 4.47 4.29 4.13 3.92 3.76 3.43 3.05 2.89 2.79 2.53 2.28 2.08 2.26 2.17 2.12 2.14 2.34 2.38 2.22 2.53 2.74 2.72 2.73
0.12 0.16 0.20 0.27 0.22 0.20 0.34 0.69 0.77 0.79 0.95 1.13 1.11 1.13 1.23 1.50 1.93 2.03 2.35 3.09 4.02 4.89 5.43 5.61 5.67 5.32 4.81 4.36 4.00 3.93 3.70 3.41 3.13 2.89 2.73 2.35 2.14 1.90 2.14 2.12 2.05 2.08 2.25 2.36 2.48 2.75 2.86 2.55 2.49
0.10 0.13 0.22 0.28 0.22 0.24 0.41 0.59 0.72 0.83 1.06 1.19 1.22 1.17 1.21 1.51 1.97 2.14 2.45 2.93 3.74 4.47 5.15 5.29 5.58 5.07 4.43 3.89 3.53 3.42 3.22 2.91 2.78 2.64 2.48 2.34 2.12 2.01 2.25 2.10 2.17 2.04 2.10 2.12 2.23 2.47 2.57 2.22 2.34
0.11 0.15 0.24 0.25 0.18 0.22 0.43 0.71 0.87 0.95 0.94 1.00 1.05 1.11 1.22 1.58 2.04 2.38 2.91 3.30 3.33 3.87 4.57 4.62 4.34 4.12 3.68 3.30 3.15 2.99 2.93 2.60 2.41 2.27 2.27 2.07 1.93 1.95 1.97 2.13 2.01 1.97 2.08 2.07 2.13 2.33 2.33 2.05 2.26
0.14 0.17 0.21 0.20 0.18 0.27 0.49 0.89 1.17 1.09 0.82 0.74 0.80 0.90 1.03 1.38 1.89 2.31 2.73 3.17 3.14 3.52 3.60 3.23 3.09 3.18 3.13 2.97 2.87 2.73 2.73 2.53 2.26 2.09 2.07 1.92 1.72 1.72 1.75 1.77 1.84 1.96 1.76 1.89 2.06 2.21 2.32 2.19 2.12
0.11 0.09 0.09 0.09 0.17 0.33 0.49 1.07 1.47 1.25 0.94 0.77 0.80 0.97 1.04 1.15 1.35 1.63 1.97 2.39 2.59 2.68 2.59 2.56 2.55 2.59 2.79 2.80 2.58 2.40 2.13 2.04 1.97 1.86 1.90 1.89 1.64 1.56 1.58 1.60 1.75 1.84 1.78 1.99 1.73 1.85 2.14 2.35 2.16
0.07 0.05 0.06 0.11 0.16 0.33 0.55 0.91 1.31 1.29 1.23 1.06 0.93 0.98 0.93 0.97 1.04 1.18 1.27 1.49 1.77 2.02 2.09 2.08 2.36 2.46 2.49 2.48 2.44 2.46 2.20 2.03 1.98 2.09 2.28 2.20 1.86 1.54 1.38 1.49 1.64 1.75 1.80 1.88 1.82 1.92 1.91 1.99 2.04
0.05 0.06 0.14 0.29 0.42 0.77 0.76 0.81 1.16 1.12 1.07 1.06 0.92 0.78 0.73 0.77 0.82 0.99 1.03 1.07 1.20 1.35 1.48 1.60 1.87 2.09 2.17 2.14 2.15 2.22 2.24 2.21 2.03 1.97 2.03 1.95 1.79 1.59 1.42 1.46 1.66 1.73 1.77 1.79 1.84 1.85 1.79 1.87 1.97
0.06 0.10 0.35 0.74 1.07 1.23 0.80 0.77 0.97 0.85 0.86 0.94 0.75 0.52 0.49 0.59 0.64 0.82 0.81 0.85 0.95 0.99 1.09 1.28 1.48 1.66 1.77 1.86 1.94 2.01 2.21 2.16 1.93 1.72 1.76 1.74 1.58 1.49 1.49 1.46 1.72 1.81 1.79 1.77 1.86 1.83 1.82 1.93 2.00
0.07 0.08 0.22 0.38 0.53 0.74 0.79 1.15 1.08 0.70 0.67 0.60 0.44 0.34 0.32 0.48 0.57 0.62 0.57 0.59 0.74 0.80 0.88 1.04 1.18 1.27 1.38 1.61 1.83 1.83 1.97 1.84 1.71 1.82 1.71 1.61 1.41 1.44 1.64 1.75 1.77 1.74 1.78 1.79 2.01 1.87 1.89 1.97 2.00
0.06 0.05 0.08 0.11 0.18 0.47 0.89 1.27 1.06 0.64 0.58 0.47 0.34 0.26 0.31 0.39 0.53 0.51 0.45 0.46 0.50 0.55 0.62 0.80 1.07 1.17 1.21 1.30 1.52 1.63 1.63 1.65 1.73 1.87 1.81 1.68 1.59 1.47 1.65 1.80 1.88 1.80 1.78 1.87 2.08 2.03 2.07 2.17 2.08
0.06 0.06 0.07 0.09 0.17 0.36 0.76 1.15 1.25 1.00 0.73 0.50 0.39 0.37 0.45 0.47 0.60 0.63 0.47 0.42 0.45 0.44 0.52 0.64 0.82 1.03 1.21 1.21 1.21 1.26 1.51 1.58 1.70 1.75 1.65 1.64 1.61 1.61 1.68 1.64 1.68 1.68 1.66 1.78 2.09 2.09 2.13 2.30 2.24
0.08 0.08 0.09 0.11 0.15 0.26 0.57 0.84 0.78 0.78 0.64 0.50 0.50 0.59 0.47 0.46 0.53 0.59 0.42 0.35 0.38 0.42 0.49 0.62 0.76 1.04 1.24 1.15 1.17 1.28 1.44 1.54 1.60 1.75 1.73 1.67 1.65 1.69 1.64 1.58 1.62 1.60 1.51 1.58 1.77 1.88 2.07 2.20 2.26
0.10 0.11 0.11 0.15 0.17 0.18 0.30 0.53 0.46 0.54 0.55 0.64 0.67 0.64 0.57 0.54 0.55 0.58 0.50 0.50 0.52 0.56 0.60 0.72 0.84 1.02 1.13 1.15 1.22 1.28 1.38 1.45 1.50 1.56 1.64 1.71 1.69 1.74 1.71 1.66 1.63 1.52 1.50 1.58 1.69 1.83 2.00 2.14 2.25

GEFSSGP_prec_meanprecacc_246.txt.gz
Total_Precipitation_Accumulation
0.07 0.16 0.33 0.65 1.61 1.92 1.57 0.85 0.58 0.46 0.45 0.55 0.53 0.51 0.69 0.97 1.26 1.77 1.21 0.59 0.32 0.30 0.37 0.51 0.72 0.79 0.74 0.69 0.73 0.81 0.87 1.03 1.21 1.47 1.69 1.62 1.56 1.56 1.56 1.52 1.59 1.62 1.59 1.48 1.38 1.35 1.23 1.11 1.00
0.12 0.24 0.45 0.89 1.83 2.20 1.68 0.84 0.54 0.39 0.44 0.56 0.65 0.61 0.57 0.65 0.50 0.55 0.77 0.78 0.41 0.32 0.36 0.44 0.59 0.70 0.71 0.71 0.75 0.85 0.95 1.09 1.22 1.30 1.45 1.50 1.51 1.51 1.54 1.52 1.47 1.46 1.40 1.31 1.24 1.14 1.02 0.96 0.85
0.17 0.27 0.52 1.00 1.30 1.41 1.20 0.70 0.47 0.43 0.45 0.61 0.68 0.52 0.52 0.71 0.54 0.55 0.64 0.61 0.41 0.32 0.37 0.47 0.50 0.60 0.69 0.71 0.77 0.82 0.96 1.12 1.16 1.17 1.26 1.39 1.44 1.46 1.53 1.52 1.45 1.41 1.35 1.25 1.12 1.01 0.92 0.86 0.78
0.17 0.27 0.49 0.69 0.66 0.58 0.52 0.44 0.42 0.45 0.50 0.51 0.59 0.59 0.52 0.64 0.55 0.55 0.58 0.51 0.39 0.32 0.32 0.46 0.50 0.52 0.59 0.67 0.72 0.71 0.81 0.97 1.04 1.11 1.19 1.29 1.34 1.35 1.42 1.38 1.34 1.31 1.25 1.11 1.06 0.97 0.87 0.77 0.70
0.16 0.30 0.53 0.52 0.39 0.39 0.42 0.41 0.46 0.53 0.54 0.64 0.75 0.79 0.83 0.74 0.60 0.69 0.79 0.67 0.49 0.39 0.36 0.46 0.53 0.54 0.56 0.61 0.64 0.69 0.73 0.85 0.95 1.10 1.21 1.25 1.23 1.27 1.29 1.26 1.22 1.19 1.13 1.02 0.99 0.92 0.84 0.80 0.77
0.19 0.34 0.37 0.34 0.30 0.32 0.39 0.40 0.43 0.51 0.59 0.81 0.86 0.79 0.92 0.88 0.72 0.77 0.83 0.99 0.80 0.49 0.40 0.42 0.54 0.57 0.56 0.62 0.67 0.71 0.77 0.88 0.97 0.99 1.05 1.07 1.03 1.07 1.07 1.12 1.13 1.09 1.02 0.95 0.93 0.84 0.82 0.80 0.79
0.19 0.34 0.28 0.24 0.22 0.25 0.27 0.37 0.48 0.53 0.64 0.78 0.70 0.69 0.95 1.11 0.91 0.86 0.87 0.93 0.81 0.56 0.52 0.49 0.48 0.49 0.55 0.72 0.81 0.81 0.80 0.88 0.96 0.92 0.92 0.96 1.02 1.03 1.02 1.05 1.06 1.01 0.94 0.89 0.86 0.71 0.67 0.65 0.70
0.11 0.17 0.18 0.18 0.16 0.20 0.19 0.24 0.40 0.55 0.62 0.60 0.63 0.84 1.20 1.14 0.78 0.79 0.87 0.91 0.83 0.73 0.68 0.69 0.65 0.59 0.59 0.70 0.82 0.88 0.86 0.90 0.92 0.97 0.98 1.04 1.11 1.09 1.05 0.93 0.95 0.95 0.90 0.90 0.86 0.75 0.70 0.70 0.78
0.06 0.10 0.13 0.12 0.10 0.16 0.17 0.23 0.33 0.48 0.52 0.59 0.77 0.85 0.92 0.78 0.63 0.80 0.98 1.14 1.20 1.02 0.91 0.87 0.74 0.66 0.68 0.66 0.73 0.84 0.91 0.94 1.02 1.11 1.14 1.29 1.47 1.40 1.41 1.21 1.26 1.21 1.13 1.12 1.12 1.04 0.93 0.87 0.86
0.06 0.08 0.08 0.06 0.07 0.13 0.14 0.23 0.38 0.56 0.67 0.89 1.20 1.24 0.98 0.83 0.77 0.88 1.14 1.28 1.54 1.30 1.00 0.94 0.80 0.76 0.73 0.66 0.79 1.00 0.97 1.04 1.19 1.36 1.45 1.74 1.94 1.93 1.56 1.72 1.82 1.72 1.69 1.58 1.56 1.69 1.43 1.13 1.09
0.03 0.04 0.02 0.04 0.04 0.06 0.12 0.19 0.29 0.47 0.84 1.32 1.39 1.20 0.98 1.06 1.09 1.09 1.39 1.49 1.45 1.29 1.28 1.21 1.03 1.00 1.00 1.07 0.99 1.14 1.31 1.48 1.47 1.44 1.66 2.05 1.92 1.77 1.67 1.82 2.13 2.23 2.24 2.13 2.11 2.21 1.88 1.76 1.94
0.02 0.01 0.01 0.03 0.04 0.06 0.07 0.10 0.21 0.44 0.91 1.06 1.02 0.96 0.94 1.14 1.19 1.29 1.61 1.68 1.71 1.58 1.82 1.90 1.59 1.57 1.49 1.35 1.29 1.26 1.34 1.52 1.68 1.89 1.99 2.15 2.27 2.21 2.08 2.14 2.30 2.40 2.52 2.89 2.75 2.66 2.45 2.34 2.19
0.03 0.02 0.01 0.02 0.05 0.08 0.06 0.12 0.29 0.62 0.82 0.70 0.60 0.83 0.91 1.24 1.56 1.75 2.00 1.86 2.11 2.22 2.44 2.62 2.21 2.15 2.05 2.06 2.01 1.74 1.82 1.94 2.06 2.24 2.42 2.44 2.63 2.68 2.63 2.53 2.45 2.26 2.33 2.67 2.92 2.80 2.80 2.69 2.52
0.04 0.03 0.02 0.03 0.05 0.06 0.11 0.22 0.40 0.68 0.63 0.57 0.72 1.13 1.34 1.32 1.60 1.98 2.14 2.23 2.58 2.75 2.87 3.01 2.92 2.97 2.86 2.62 2.65 2.64 2.29 2.37 2.37 2.43 2.44 2.55 2.76 3.08 3.19 3.05 2.88 2.51 2.41 2.46 2.74 2.82 3.02 2.95 2.76
0.05 0.06 0.09 0.09 0.09 0.09 0.15 0.45 0.57 0.69 0.58 0.61 0.84 1.20 1.53 1.46 1.61 1.90 2.11 2.61 3.32 3.66 3.55 3.60 3.58 3.84 3.75 3.34 3.03 2.76 2.58 2.55 2.72 2.77 2.74 2.76 2.96 3.27 3.24 3.05 2.70 2.41 2.38 2.54 2.54 2.55 2.83 2.66 2.52
0.06 0.11 0.23 0.21 0.15 0.14 0.23 0.75 0.83 0.72 0.86 0.93 1.11 1.28 1.55 1.59 1.63 1.86 2.34 3.12 3.97 4.50 4.42 4.24 3.82 4.19 4.22 3.91 3.68 3.33 3.08 3.13 3.11 2.83 2.86 2.76 2.89 2.82 2.90 2.60 2.27 2.30 2.44 2.56 2.73 2.61 2.68 2.73 2.81
0.11 0.16 0.22 0.26 0.19 0.16 0.28 0.91 0.92 0.68 0.96 1.21 1.12 1.26 1.47 1.65 1.79 1.91 2.47 3.32 4.16 4.94 5.15 5.12 5.01 4.76 4.50 4.32 4.16 3.95 3.79 3.47 3.11 2.97 2.98 2.67 2.35 2.16 2.34 2.25 2.20 2.20 2.38 2.43 2.27 2.63 2.84 2.84 2.86
0.14 0.17 0.21 0.28 0.22 0.20 0.34 0.69 0.77 0.79 0.95 1.13 1.11 1.13 1.23 1.50 1.93 2.03 2.35 3.09 4.02 4.90 5.44 5.62 5.68 5.34 4.84 4.39 4.04 3.97 3.74 3.44 3.17 2.97 2.91 2.50 2.23 1.97 2.22 2.19 2.13 2.13 2.32 2.45 2.57 2.86 2.98 2.67 2.61
0.11 0.14 0.23 0.28 0.22 0.24 0.41 0.59 0.72 0.83 1.06 1.19 1.22 1.17 1.21 1.51 1.97 2.14 2.45 2.93 3.74 4.47 5.16 5.29 5.59 5.08 4.45 3.94 3.57 3.46 3.27 2.95 2.83 2.71 2.61 2.46 2.21 2.10 2.35 2.21 2.26 2.10 2.18 2.21 2.32 2.57 2.69 2.34 2.43
0.11 0.16 0.24 0.26 0.18 0.22 0.43 0.71 0.87 0.95 0.94 1.00 1.05 1.11 1.22 1.58 2.04 2.38 2.91 3.30 3.33 3.87 4.57 4.62 4.35 4.14 3.71 3.34 3.19 3.02 2.97 2.64 2.45 2.31 2.36 2.15 2.01 2.03 2.07 2.23 2.09 2.04 2.17 2.17 2.23 2.43 2.43 2.14 2.33
0.14 0.17 0.21 0.20 0.18 0.27 0.49 0.90 1.18 1.09 0.82 0.74 0.80 0.90 1.03 1.38 1.89 2.31 2.73 3.17 3.14 3.52 3.61 3.24 3.09 3.19 3.15 2.99 2.90 2.76 2.76 2.57 2.30 2.13 2.13 1.96 1.76 1.79 1.83 1.86 1.93 2.04 1.84 1.99 2.17 2.30 2.39 2.27 2.20
0.11 0.10 0.09 0.10 0.17 0.34 0.49 1.09 1.49 1.26 0.94 0.77 0.80 0.98 1.04 1.15 1.35 1.63 1.97 2.39 2.59 2.68 2.60 2.57 2.55 2.61 2.81 2.82 2.62 2.44 2.17 2.08 2.02 1.90 1.94 1.92 1.66 1.60 1.63 1.65 1.82 1.90 1.84 2.08 1.81 1.93 2.20 2.41 2.22
0.07 0.05 0.06 0.12 0.17 0.33 0.56 0.92 1.34 1.32 1.25 1.06 0.93 0.98 0.93 0.97 1.04 1.18 1.27 1.49 1.77 2.02 2.09 2.08 2.36 2.47 2.50 2.50 2.47 2.51 2.25 2.06 2.01 2.11 2.31 2.22 1.88 1.56 1.42 1.53 1.69 1.79 1.85 1.94 1.88 1.99 1.96 2.04 2.10
0.05 0.06 0.14 0.29 0.43 0.77 0.76 0.82 1.20 1.16 1.08 1.06 0.92 0.78 0.73 0.77 0.82 0.99 1.03 1.07 1.20 1.35 1.48 1.60 1.88 2.11 2.19 2.15 2.17 2.25 2.28 2.25 2.06 2.00 2.06 1.99 1.82 1.62 1.45 1.49 1.69 1.77 1.81 1.83 1.89 1.90 1.82 1.91 2.02
0.06 0.10 0.36 0.76 1.09 1.25 0.82 0.78 0.99 0.87 0.87 0.95 0.76 0.52 0.49 0.59 0.64 0.82 0.81 0.85 0.95 0.99 1.09 1.28 1.49 1.67 1.79 1.87 1.95 2.03 2.23 2.20 1.97 1.76 1.80 1.78 1.61 1.53 1.52 1.49 1.75 1.84 1.82 1.79 1.88 1.86 1.85 1.97 2.05
0.07 0.08 0.23 0.40 0.56 0.77 0.81 1.16 1.09 0.71 0.67 0.60 0.45 0.34 0.32 0.48 0.57 0.62 0.57 0.59 0.74 0.80 0.88 1.04 1.18 1.28 1.39 1.61 1.85 1.85 2.00 1.87 1.74 1.86 1.76 1.64 1.43 1.46 1.67 1.77 1.79 1.77 1.79 1.81 2.05 1.90 1.92 2.00 2.03
0.06 0.05 0.08 0.12 0.18 0.48 0.90 1.27 1.06 0.65 0.58 0.48 0.34 0.27 0.31 0.39 0.53 0.51 0.45 0.46 0.50 0.55 0.63 0.81 1.08 1.18 1.22 1.31 1.53 1.65 1.65 1.68 1.76 1.94 1.89 1.72 1.62 1.49 1.67 1.82 1.91 1.83 1.79 1.89 2.11 2.07 2.11 2.22 2.12
0.07 0.06 0.07 0.09 0.18 0.38 0.77 1.16 1.27 1.01 0.73 0.51 0.39 0.37 0.45 0.47 0.60 0.63 0.47 0.43 0.46 0.46 0.56 0.66 0.84 1.08 1.24 1.22 1.23 1.28 1.53 1.60 1.72 1.81 1.75 1.73 1.66 1.64 1.70 1.67 1.71 1.71 1.69 1.81 2.12 2.13 2.17 2.34 2.28
0.08 0.09 0.09 0.11 0.15 0.26 0.60 0.87 0.81 0.82 0.64 0.50 0.50 0.59 0.47 0.46 0.54 0.60 0.43 0.38 0.41 0.44 0.51 0.64 0.78 1.06 1.25 1.17 1.20 1.31 1.47 1.56 1.62 1.78 1.77 1.71 1.69 1.72 1.68 1.63 1.66 1.65 1.56 1.63 1.81 1.92 2.10 2.23 2.30
0.10 0.11 0.11 0.15 0.17 0.18 0.31 0.55 0.47 0.55 0.55 0.64 0.67 0.64 0.57 0.55 0.56 0.59 0.51 0.56 0.57 0.58 0.62 0.75 0.86 1.03 1.14 1.16 1.24 1.30 1.40 1.48 1.53 1.59 1.67 1.74 1.72 1.78 1.75 1.71 1.68 1.56 1.55 1.63 1.73 1.86 2.03 2.17 2.28

GEFSSGP_prec_meanprecacc_252.txt.gz
Total_Precipitation_Accumulation
0.08 0.20 0.41 0.78 1.73 2.01 1.65 0.90 0.60 0.47 0.47 0.57 0.56 0.53 0.72 1.00 1.28 1.82 1.31 0.66 0.37 0.32 0.40 0.55 0.76 0.84 0.79 0.73 0.77 0.88 0.98 1.11 1.30 1.54 1.75 1.70 1.65 1.64 1.65 1.63 1.72 1.74 1.70 1.61 1.49 1.43 1.32 1.20 1.09
0.16 0.37 0.61 1.01 1.91 2.23 1.73 0.87 0.56 0.41 0.47 0.59 0.68 0.64 0.58 0.66 0.51 0.60 0.86 0.84 0.43 0.34 0.39 0.48 0.63 0.74 0.74 0.74 0.80 0.92 1.05 1.19 1.31 1.38 1.53 1.59 1.60 1.61 1.66 1.65 1.57 1.55 1.49 1.40 1.32 1.21 1.11 1.04 0.93
0.27 0.45 0.65 1.09 1.34 1.43 1.22 0.73 0.50 0.45 0.47 0.63 0.70 0.54 0.54 0.73 0.56 0.59 0.69 0.65 0.43 0.35 0.40 0.49 0.51 0.62 0.72 0.75 0.81 0.90 1.07 1.23 1.26 1.27 1.35 1.47 1.54 1.57 1.64 1.62 1.53 1.49 1.44 1.34 1.21 1.09 0.99 0.92 0.84
0.30 0.46 0.59 0.75 0.67 0.59 0.53 0.46 0.44 0.48 0.53 0.53 0.61 0.62 0.55 0.67 0.59 0.58 0.62 0.54 0.41 0.34 0.34 0.47 0.51 0.53 0.61 0.70 0.76 0.80 0.93 1.08 1.14 1.23 1.27 1.35 1.39 1.43 1.51 1.47 1.42 1.40 1.35 1.21 1.15 1.04 0.92 0.81 0.74
0.23 0.42 0.61 0.55 0.40 0.39 0.43 0.42 0.47 0.55 0.56 0.65 0.76 0.81 0.87 0.76 0.63 0.73 0.82 0.70 0.50 0.41 0.38 0.47 0.54 0.55 0.58 0.64 0.67 0.72 0.81 0.96 1.05 1.20 1.30 1.32 1.28 1.33 1.35 1.34 1.29 1.28 1.21 1.08 1.04 0.96 0.88 0.83 0.80
0.25 0.42 0.41 0.35 0.30 0.32 0.40 0.42 0.45 0.53 0.60 0.81 0.86 0.80 0.95 0.91 0.75 0.81 0.86 1.01 0.82 0.51 0.42 0.44 0.55 0.58 0.58 0.64 0.69 0.73 0.81 0.94 1.03 1.07 1.14 1.13 1.10 1.14 1.14 1.18 1.18 1.15 1.08 0.99 0.96 0.88 0.85 0.82 0.81
0.24 0.39 0.30 0.25 0.23 0.26 0.27 0.38 0.50 0.53 0.64 0.79 0.70 0.70 0.98 1.14 0.94 0.89 0.89 0.95 0.82 0.56 0.53 0.51 0.50 0.51 0.58 0.74 0.82 0.82 0.82 0.90 0.99 0.97 0.99 1.03 1.09 1.10 1.10 1.11 1.10 1.05 0.97 0.91 0.89 0.76 0.71 0.67 0.72
0.13 0.20 0.19 0.19 0.16 0.20 0.19 0.25 0.40 0.56 0.63 0.60 0.64 0.84 1.22 1.17 0.80 0.81 0.89 0.94 0.85 0.74 0.70 0.70 0.66 0.60 0.61 0.72 0.86 0.91 0.89 0.92 0.94 1.00 1.03 1.10 1.18 1.18 1.13 0.98 1.00 0.98 0.93 0.92 0.90 0.81 0.72 0.72 0.80
0.07 0.12 0.14 0.12 0.11 0.16 0.18 0.23 0.33 0.48 0.52 0.59 0.77 0.85 0.93 0.79 0.64 0.80 1.00 1.17 1.23 1.04 0.94 0.89 0.76 0.69 0.71 0.69 0.77 0.89 0.94 0.97 1.05 1.15 1.19 1.35 1.54 1.47 1.47 1.26 1.31 1.25 1.16 1.15 1.17 1.09 0.95 0.88 0.87
0.07 0.08 0.08 0.06 0.07 0.13 0.15 0.23 0.39 0.56 0.67 0.89 1.20 1.24 0.98 0.83 0.78 0.89 1.15 1.31 1.57 1.34 1.04 0.97 0.85 0.82 0.79 0.71 0.82 1.04 1.00 1.08 1.23 1.40 1.50 1.79 2.01 1.99 1.60 1.77 1.88 1.78 1.73 1.62 1.62 1.74 1.46 1.15 1.11
0.04 0.04 0.02 0.04 0.04 0.06 0.12 0.19 0.29 0.47 0.85 1.32 1.39 1.21 0.98 1.06 1.09 1.10 1.41 1.51 1.47 1.33 1.32 1.26 1.11 1.10 1.07 1.13 1.04 1.19 1.34 1.51 1.50 1.47 1.68 2.09 1.98 1.83 1.73 1.87 2.20 2.30 2.31 2.21 2.19 2.26 1.91 1.79 1.98
0.03 0.02 0.01 0.03 0.04 0.06 0.07 0.10 0.21 0.44 0.91 1.06 1.02 0.96 0.94 1.14 1.20 1.30 1.62 1.70 1.74 1.63 1.86 1.93 1.65 1.68 1.57 1.41 1.33 1.32 1.40 1.58 1.72 1.91 2.02 2.19 2.31 2.26 2.13 2.19 2.36 2.48 2.58 2.96 2.80 2.69 2.47 2.38 2.24
0.03 0.02 0.01 0.02 0.05 0.08 0.06 0.12 0.29 0.62 0.82 0.71 0.60 0.83 0.91 1.24 1.57 1.76 2.01 1.87 2.14 2.29 2.52 2.71 2.31 2.23 2.11 2.10 2.06 1.78 1.87 1.98 2.10 2.27 2.45 2.49 2.67 2.72 2.68 2.59 2.52 2.33 2.38 2.71 2.95 2.83 2.83 2.73 2.55
0.04 0.03 0.03 0.03 0.05 0.06 0.11 0.22 0.40 0.68 0.63 0.57 0.72 1.13 1.34 1.32 1.60 1.99 2.15 2.24 2.60 2.80 2.96 3.14 3.05 3.06 2.91 2.67 2.70 2.68 2.33 2.41 2.40 2.46 2.48 2.59 2.79 3.12 3.25 3.10 2.94 2.56 2.44 2.51 2.77 2.84 3.04 2.98 2.79
0.05 0.06 0.09 0.10 0.10 0.09 0.15 0.45 0.57 0.69 0.58 0.61 0.84 1.20 1.53 1.46 1.61 1.90 2.11 2.62 3.34 3.70 3.62 3.68 3.67 3.92 3.81 3.39 3.07 2.80 2.63 2.59 2.76 2.80 2.78 2.82 3.02 3.33 3.29 3.10 2.76 2.45 2.42 2.59 2.58 2.59 2.85 2.68 2.56
0.07 0.11 0.23 0.22 0.15 0.14 0.23 0.75 0.83 0.72 0.86 0.93 1.11 1.28 1.55 1.59 1.63 1.87 2.34 3.13 3.99 4.53 4.46 4.27 3.86 4.24 4.26 3.95 3.73 3.40 3.13 3.17 3.15 2.88 2.91 2.82 2.96 2.87 2.94 2.64 2.32 2.34 2.47 2.58 2.75 2.64 2.72 2.76 2.85
0.14 0.17 0.23 0.27 0.19 0.17 0.28 0.91 0.92 0.69 0.96 1.21 1.12 1.26 1.48 1.65 1.79 1.92 2.47 3.32 4.16 4.95 5.17 5.14 5.03 4.79 4.53 4.35 4.20 4.00 3.83 3.50 3.14 3.00 3.02 2.71 2.40 2.20 2.37 2.30 2.25 2.23 2.41 2.45 2.30 2.66 2.89 2.90 2.92
0.18 0.19 0.23 0.29 0.23 0.21 0.35 0.69 0.77 0.79 0.95 1.13 1.11 1.13 1.23 1.50 1.93 2.03 2.35 3.09 4.03 4.90 5.45 5.63 5.69 5.36 4.86 4.41 4.07 4.00 3.76 3.46 3.18 2.99 2.93 2.52 2.26 2.00 2.25 2.23 2.16 2.16 2.35 2.48 2.60 2.89 3.01 2.71 2.65
0.14 0.17 0.26 0.31 0.23 0.25 0.42 0.61 0.72 0.83 1.07 1.20 1.22 1.17 1.22 1.51 1.97 2.14 2.45 2.94 3.74 4.47 5.16 5.30 5.60 5.09 4.46 3.95 3.58 3.47 3.27 2.96 2.84 2.72 2.64 2.49 2.24 2.14 2.39 2.25 2.29 2.12 2.21 2.24 2.34 2.59 2.71 2.35 2.46
0.12 0.18 0.27 0.27 0.19 0.23 0.44 0.74 0.89 0.96 0.95 1.01 1.06 1.13 1.22 1.58 2.04 2.38 2.91 3.30 3.33 3.87 4.57 4.63 4.35 4.15 3.71 3.34 3.19 3.03 2.98 2.64 2.47 2.34 2.41 2.20 2.05 2.08 2.11 2.27 2.12 2.06 2.19 2.19 2.25 2.46 2.45 2.16 2.36
0.15 0.18 0.22 0.21 0.20 0.29 0.50 0.93 1.21 1.11 0.83 0.75 0.81 0.91 1.04 1.38 1.89 2.31 2.73 3.17 3.14 3.52 3.61 3.24 3.10 3.20 3.16 3.00 2.90 2.76 2.77 2.57 2.31 2.16 2.18 2.02 1.81 1.84 1.88 1.89 1.96 2.06 1.86 2.01 2.19 2.32 2.41 2.29 2.23
0.11 0.10 0.10 0.11 0.19 0.36 0.52 1.13 1.52 1.28 0.96 0.78 0.81 0.98 1.04 1.15 1.35 1.64 1.97 2.39 2.59 2.68 2.60 2.57 2.56 2.63 2.84 2.84 2.62 2.45 2.17 2.09 2.03 1.92 1.98 1.96 1.71 1.65 1.68 1.69 1.84 1.92 1.86 2.10 1.83 1.95 2.21 2.43 2.25
0.07 0.06 0.07 0.12 0.18 0.37 0.59 0.94 1.39 1.36 1.28 1.09 0.94 0.99 0.94 0.97 1.05 1.18 1.28 1.49 1.77 2.02 2.09 2.09 2.39 2.51 2.54 2.52 2.48 2.52 2.25 2.07 2.02 2.12 2.33 2.25 1.93 1.61 1.46 1.57 1.73 1.83 1.88 1.96 1.90 2.02 1.98 2.05 2.11
0.06 0.07 0.15 0.30 0.43 0.79 0.79 0.84 1.24 1.19 1.10 1.09 0.93 0.79 0.74 0.78 0.82 1.00 1.03 1.07 1.20 1.36 1.49 1.63 1.93 2.16 2.23 2.18 2.19 2.25 2.29 2.27 2.08 2.01 2.07 2.01 1.86 1.66 1.49 1.52 1.73 1.81 1.84 1.86 1.91 1.92 1.85 1.93 2.04
0.07 0.11 0.38 0.78 1.10 1.28 0.85 0.79 1.01 0.90 0.90 1.01 0.79 0.55 0.50 0.60 0.64 0.82 0.81 0.85 0.96 1.00 1.11 1.33 1.56 1.72 1.83 1.90 1.97 2.04 2.24 2.21 1.98 1.77 1.81 1.79 1.63 1.55 1.54 1.51 1.78 1.88 1.84 1.81 1.91 1.90 1.89 2.00 2.07
0.07 0.09 0.24 0.43 0.60 0.82 0.85 1.18 1.11 0.75 0.72 0.64 0.48 0.37 0.34 0.50 0.57 0.63 0.58 0.60 0.74 0.81 0.90 1.07 1.24 1.34 1.46 1.66 1.87 1.86 2.01 1.89 1.75 1.87 1.77 1.66 1.45 1.48 1.68 1.79 1.82 1.80 1.82 1.83 2.07 1.93 1.94 2.03 2.06
0.06 0.06 0.08 0.13 0.21 0.51 0.92 1.29 1.09 0.71 0.65 0.50 0.37 0.30 0.34 0.40 0.54 0.52 0.46 0.48 0.51 0.56 0.65 0.85 1.15 1.24 1.27 1.36 1.56 1.66 1.67 1.69 1.78 1.95 1.90 1.73 1.64 1.52 1.69 1.84 1.94 1.86 1.82 1.92 2.13 2.09 2.13 2.24 2.15
0.07 0.07 0.08 0.11 0.20 0.40 0.79 1.19 1.30 1.06 0.77 0.52 0.43 0.40 0.48 0.49 0.62 0.66 0.51 0.48 0.49 0.48 0.58 0.68 0.85 1.10 1.28 1.27 1.26 1.29 1.55 1.61 1.73 1.82 1.76 1.74 1.69 1.68 1.75 1.71 1.75 1.75 1.72 1.84 2.14 2.15 2.19 2.38 2.33
0.09 0.09 0.10 0.12 0.18 0.28 0.62 0.90 0.83 0.84 0.67 0.52 0.52 0.61 0.49 0.49 0.56 0.64 0.47 0.44 0.44 0.48 0.54 0.65 0.79 1.07 1.27 1.18 1.21 1.32 1.49 1.59 1.64 1.79 1.78 1.73 1.71 1.76 1.72 1.67 1.70 1.68 1.58 1.64 1.83 1.94 2.13 2.27 2.34
0.10 0.11 0.12 0.16 0.18 0.19 0.32 0.56 0.48 0.57 0.59 0.68 0.71 0.66 0.59 0.58 0.59 0.63 0.55 0.60 0.63 0.67 0.70 0.78 0.88 1.04 1.15 1.16 1.24 1.32 1.42 1.50 1.56 1.62 1.70 1.76 1.74 1.81 1.79 1.74 1.71 1.58 1.57 1.66 1.75 1.89 2.06 2.21 2.31

GEFSSGP_prec_meanprecacc_258.txt.gz
Total_Precipitation_Accumulation
0.09 0.21 0.43 0.80 1.74 2.02 1.68 0.93 0.62 0.49 0.48 0.58 0.57 0.55 0.73 1.01 1.30 1.84 1.33 0.69 0.40 0.36 0.45 0.62 0.84 0.90 0.84 0.79 0.87 0.99 1.08 1.21 1.40 1.62 1.84 1.81 1.77 1.75 1.73 1.75 1.87 1.93 1.89 1.81 1.69 1.57 1.42 1.28 1.16
0.16 0.38 0.63 1.04 1.92 2.24 1.75 0.89 0.58 0.42 0.48 0.60 0.69 0.64 0.58 0.66 0.52 0.62 0.89 0.87 0.46 0.36 0.43 0.55 0.68 0.78 0.78 0.79 0.89 1.01 1.13 1.26 1.37 1.44 1.60 1.68 1.71 1.71 1.75 1.76 1.69 1.68 1.60 1.52 1.45 1.31 1.19 1.12 0.99
0.28 0.46 0.67 1.11 1.35 1.44 1.24 0.75 0.52 0.47 0.49 0.65 0.71 0.54 0.54 0.73 0.57 0.61 0.73 0.68 0.46 0.37 0.44 0.56 0.57 0.66 0.75 0.79 0.90 0.99 1.13 1.28 1.31 1.33 1.42 1.55 1.62 1.66 1.75 1.72 1.61 1.56 1.51 1.43 1.32 1.17 1.07 0.98 0.89
0.31 0.47 0.60 0.76 0.68 0.60 0.56 0.49 0.48 0.52 0.56 0.55 0.62 0.63 0.57 0.68 0.61 0.61 0.65 0.56 0.44 0.37 0.38 0.54 0.57 0.57 0.66 0.76 0.85 0.91 1.02 1.14 1.20 1.29 1.34 1.43 1.48 1.53 1.62 1.55 1.48 1.47 1.42 1.30 1.26 1.11 0.97 0.86 0.78
0.25 0.44 0.62 0.55 0.41 0.41 0.45 0.46 0.51 0.59 0.59 0.67 0.77 0.83 0.89 0.79 0.65 0.76 0.85 0.72 0.53 0.43 0.41 0.51 0.59 0.59 0.63 0.70 0.76 0.85 0.92 1.03 1.11 1.26 1.36 1.39 1.36 1.42 1.45 1.42 1.37 1.35 1.27 1.14 1.13 1.01 0.91 0.87 0.83
0.27 0.44 0.43 0.35 0.31 0.34 0.42 0.45 0.48 0.54 0.61 0.81 0.87 0.80 0.97 0.95 0.76 0.82 0.88 1.03 0.84 0.53 0.45 0.46 0.59 0.63 0.67 0.72 0.76 0.84 0.91 1.02 1.09 1.13 1.21 1.20 1.16 1.20 1.21 1.27 1.27 1.22 1.13 1.06 1.04 0.92 0.88 0.85 0.84
0.25 0.40 0.31 0.25 0.23 0.27 0.28 0.39 0.51 0.54 0.65 0.79 0.70 0.70 0.99 1.16 0.95 0.91 0.91 0.96 0.83 0.58 0.56 0.52 0.53 0.55 0.64 0.83 0.90 0.89 0.87 0.96 1.04 1.02 1.07 1.10 1.14 1.15 1.14 1.17 1.18 1.13 1.04 0.97 0.97 0.81 0.75 0.71 0.75
0.13 0.21 0.20 0.19 0.17 0.21 0.20 0.25 0.41 0.56 0.63 0.60 0.64 0.85 1.23 1.18 0.81 0.82 0.91 0.95 0.86 0.76 0.72 0.72 0.68 0.62 0.62 0.74 0.90 0.95 0.92 0.97 0.99 1.05 1.10 1.17 1.24 1.22 1.18 1.03 1.05 1.05 1.01 1.02 1.01 0.91 0.79 0.76 0.84
0.08 0.13 0.14 0.13 0.11 0.17 0.18 0.23 0.33 0.49 0.52 0.59 0.77 0.86 0.94 0.79 0.64 0.81 1.01 1.18 1.25 1.05 0.96 0.91 0.77 0.70 0.72 0.71 0.80 0.92 0.97 1.02 1.10 1.20 1.25 1.42 1.58 1.50 1.50 1.29 1.37 1.32 1.24 1.25 1.29 1.19 1.02 0.92 0.92
0.07 0.09 0.08 0.06 0.07 0.13 0.15 0.23 0.39 0.57 0.67 0.89 1.21 1.26 0.99 0.84 0.78 0.89 1.16 1.32 1.58 1.35 1.04 0.98 0.87 0.84 0.81 0.72 0.84 1.06 1.02 1.12 1.29 1.45 1.54 1.83 2.03 2.01 1.63 1.82 1.96 1.86 1.84 1.74 1.73 1.83 1.53 1.18 1.14
0.04 0.04 0.02 0.04 0.04 0.06 0.12 0.19 0.29 0.47 0.85 1.33 1.40 1.21 0.99 1.07 1.10 1.10 1.42 1.52 1.48 1.34 1.34 1.27 1.11 1.11 1.09 1.14 1.05 1.20 1.37 1.55 1.54 1.51 1.71 2.12 2.00 1.86 1.76 1.92 2.28 2.37 2.40 2.31 2.27 2.31 1.94 1.81 1.99
0.03 0.02 0.01 0.03 0.04 0.06 0.07 0.11 0.21 0.44 0.91 1.06 1.02 0.96 0.94 1.14 1.22 1.32 1.63 1.71 1.76 1.64 1.88 1.95 1.67 1.70 1.59 1.42 1.34 1.33 1.41 1.59 1.74 1.95 2.04 2.22 2.34 2.29 2.17 2.24 2.41 2.52 2.66 3.03 2.85 2.72 2.49 2.41 2.26
0.03 0.02 0.01 0.02 0.05 0.08 0.07 0.12 0.29 0.62 0.82 0.71 0.60 0.83 0.91 1.24 1.57 1.77 2.02 1.90 2.19 2.34 2.59 2.78 2.36 2.26 2.13 2.11 2.07 1.79 1.88 1.99 2.12 2.29 2.47 2.52 2.69 2.75 2.74 2.64 2.57 2.37 2.43 2.77 2.98 2.85 2.85 2.75 2.57
0.04 0.03 0.03 0.03 0.05 0.06 0.12 0.23 0.40 0.68 0.63 0.57 0.72 1.13 1.34 1.32 1.61 2.02 2.18 2.28 2.64 2.85 3.02 3.21 3.09 3.09 2.93 2.67 2.71 2.69 2.34 2.42 2.41 2.47 2.50 2.63 2.82 3.15 3.28 3.15 3.00 2.59 2.49 2.55 2.80 2.87 3.08 3.02 2.82
0.05 0.06 0.09 0.10 0.10 0.09 0.15 0.45 0.58 0.69 0.58 0.61 0.84 1.20 1.53 1.47 1.62 1.91 2.13 2.63 3.36 3.74 3.66 3.72 3.69 3.94 3.82 3.39 3.08 2.81 2.64 2.60 2.77 2.82 2.81 2.85 3.06 3.36 3.33 3.15 2.79 2.47 2.45 2.64 2.62 2.63 2.89 2.73 2.60
0.07 0.11 0.24 0.22 0.15 0.14 0.23 0.75 0.83 0.72 0.86 0.93 1.11 1.28 1.55 1.59 1.64 1.87 2.36 3.15 4.00 4.55 4.49 4.29 3.88 4.26 4.28 3.97 3.75 3.42 3.16 3.19 3.17 2.91 2.96 2.88 3.02 2.93 2.99 2.69 2.37 2.38 2.52 2.63 2.78 2.67 2.75 2.80 2.88
0.14 0.17 0.23 0.28 0.20 0.17 0.29 0.91 0.92 0.69 0.96 1.22 1.12 1.26 1.48 1.65 1.79 1.92 2.48 3.33 4.18 4.97 5.19 5.17 5.07 4.82 4.56 4.38 4.24 4.05 3.88 3.55 3.18 3.05 3.09 2.79 2.48 2.28 2.46 2.38 2.31 2.28 2.46 2.49 2.32 2.69 2.91 2.94 2.96
0.19 0.20 0.23 0.30 0.23 0.22 0.36 0.70 0.78 0.79 0.96 1.13 1.12 1.13 1.23 1.51 1.93 2.03 2.36 3.10 4.04 4.92 5.47 5.66 5.72 5.39 4.89 4.45 4.10 4.04 3.80 3.52 3.24 3.05 3.00 2.60 2.34 2.09 2.34 2.30 2.23 2.22 2.39 2.51 2.61 2.91 3.03 2.73 2.67
0.14 0.17 0.26 0.31 0.24 0.25 0.43 0.61 0.72 0.83 1.07 1.20 1.23 1.17 1.22 1.51 1.97 2.15 2.45 2.94 3.74 4.48 5.17 5.31 5.61 5.11 4.48 3.98 3.61 3.50 3.30 2.99 2.88 2.76 2.70 2.55 2.29 2.19 2.43 2.28 2.33 2.16 2.24 2.25 2.35 2.60 2.74 2.38 2.48
0.12 0.18 0.27 0.27 0.19 0.23 0.45 0.75 0.89 0.96 0.95 1.01 1.06 1.13 1.22 1.58 2.04 2.39 2.91 3.30 3.33 3.88 4.59 4.65 4.37 4.17 3.75 3.37 3.21 3.04 2.99 2.66 2.48 2.35 2.43 2.22 2.07 2.10 2.13 2.28 2.14 2.08 2.22 2.22 2.27 2.48 2.47 2.18 2.38
0.15 0.18 0.22 0.21 0.20 0.29 0.51 0.93 1.21 1.11 0.83 0.75 0.81 0.91 1.04 1.38 1.89 2.32 2.73 3.17 3.14 3.53 3.62 3.26 3.12 3.23 3.19 3.02 2.92 2.77 2.77 2.58 2.32 2.16 2.19 2.03 1.84 1.86 1.90 1.91 1.97 2.08 1.87 2.03 2.21 2.35 2.43 2.31 2.25
0.12 0.10 0.10 0.11 0.19 0.36 0.53 1.13 1.52 1.28 0.96 0.78 0.81 0.98 1.04 1.15 1.36 1.64 1.97 2.39 2.59 2.69 2.61 2.58 2.58 2.65 2.86 2.85 2.63 2.45 2.18 2.09 2.03 1.93 1.99 1.98 1.75 1.68 1.71 1.71 1.86 1.94 1.88 2.11 1.84 1.97 2.24 2.46 2.27
0.07 0.06 0.07 0.13 0.18 0.37 0.59 0.94 1.39 1.36 1.28 1.09 0.94 0.99 0.94 0.97 1.05 1.18 1.28 1.49 1.77 2.03 2.10 2.10 2.40 2.52 2.55 2.53 2.49 2.52 2.26 2.08 2.04 2.15 2.36 2.28 1.96 1.65 1.50 1.60 1.76 1.86 1.91 1.99 1.93 2.04 2.01 2.08 2.14
0.06 0.07 0.15 0.30 0.43 0.79 0.79 0.84 1.24 1.19 1.10 1.09 0.94 0.80 0.75 0.78 0.82 1.00 1.04 1.07 1.20 1.36 1.50 1.63 1.93 2.17 2.24 2.19 2.19 2.26 2.30 2.28 2.09 2.04 2.10 2.05 1.90 1.71 1.53 1.56 1.78 1.85 1.89 1.90 1.95 1.96 1.88 1.96 2.07
0.07 0.11 0.38 0.78 1.10 1.28 0.85 0.79 1.01 0.90 0.90 1.01 0.79 0.55 0.51 0.60 0.65 0.82 0.81 0.86 0.97 1.00 1.11 1.34 1.56 1.73 1.83 1.90 1.97 2.05 2.25 2.22 2.00 1.80 1.84 1.83 1.69 1.60 1.59 1.56 1.83 1.94 1.91 1.88 1.97 1.95 1.93 2.04 2.11
0.07 0.09 0.24 0.43 0.60 0.82 0.85 1.18 1.11 0.75 0.72 0.64 0.48 0.37 0.35 0.50 0.58 0.63 0.58 0.60 0.75 0.82 0.91 1.08 1.24 1.35 1.46 1.67 1.87 1.87 2.02 1.89 1.77 1.90 1.80 1.68 1.49 1.53 1.75 1.86 1.89 1.88 1.89 1.90 2.14 2.00 2.00 2.07 2.10
0.06 0.06 0.09 0.13 0.22 0.52 0.93 1.29 1.09 0.71 0.65 0.51 0.37 0.31 0.35 0.41 0.54 0.53 0.47 0.49 0.52 0.58 0.67 0.86 1.15 1.24 1.27 1.36 1.56 1.67 1.68 1.70 1.79 1.97 1.91 1.74 1.66 1.55 1.75 1.92 2.02 1.95 1.90 1.99 2.20 2.15 2.19 2.30 2.20
0.07 0.07 0.08 0.11 0.21 0.40 0.80 1.19 1.30 1.06 0.77 0.53 0.44 0.42 0.49 0.50 0.63 0.67 0.53 0.50 0.51 0.50 0.59 0.69 0.86 1.10 1.28 1.27 1.27 1.30 1.56 1.62 1.74 1.83 1.78 1.75 1.71 1.70 1.79 1.79 1.83 1.83 1.79 1.91 2.22 2.22 2.25 2.45 2.39
0.09 0.09 0.10 0.12 0.18 0.28 0.62 0.90 0.83 0.84 0.67 0.52 0.52 0.61 0.50 0.50 0.57 0.65 0.49 0.47 0.46 0.49 0.55 0.65 0.79 1.07 1.27 1.19 1.21 1.33 1.50 1.60 1.64 1.80 1.79 1.74 1.73 1.78 1.76 1.75 1.77 1.74 1.64 1.72 1.91 2.02 2.21 2.35 2.40
0.10 0.11 0.12 0.16 0.18 0.19 0.32 0.56 0.48 0.58 0.59 0.69 0.71 0.66 0.59 0.59 0.60 0.64 0.56 0.62 0.64 0.68 0.70 0.78 0.88 1.04 1.15 1.17 1.25 1.32 1.42 1.52 1.58 1.65 1.73 1.79 1.77 1.83 1.84 1.82 1.77 1.63 1.62 1.70 1.81 1.94 2.13 2.28 2.36

GEFSSGP_prec_meanprecacc_264.txt.gz
Total_Precipitation_Accumulation
0.09 0.21 0.43 0.80 1.75 2.02 1.68 0.94 0.63 0.50 0.49 0.59 0.57 0.55 0.74 1.02 1.32 1.86 1.34 0.70 0.42 0.38 0.50 0.69 0.90 0.95 0.91 0.86 0.99 1.16 1.20 1.31 1.49 1.70 1.95 1.94 1.93 1.93 1.89 1.93 2.09 2.19 2.17 2.07 1.94 1.80 1.63 1.45 1.29
0.16 0.39 0.63 1.04 1.92 2.25 1.76 0.91 0.60 0.45 0.49 0.61 0.69 0.64 0.59 0.67 0.53 0.63 0.91 0.89 0.48 0.39 0.47 0.61 0.74 0.83 0.84 0.86 1.00 1.15 1.24 1.33 1.44 1.52 1.70 1.78 1.83 1.85 1.91 1.96 1.91 1.90 1.81 1.75 1.69 1.55 1.42 1.29 1.10
0.28 0.47 0.68 1.12 1.35 1.45 1.25 0.77 0.55 0.48 0.50 0.65 0.71 0.54 0.55 0.75 0.58 0.62 0.75 0.70 0.48 0.41 0.48 0.63 0.65 0.73 0.82 0.88 1.05 1.13 1.22 1.35 1.39 1.42 1.53 1.67 1.73 1.76 1.86 1.86 1.75 1.70 1.67 1.63 1.54 1.44 1.30 1.12 0.99
0.32 0.48 0.60 0.76 0.69 0.61 0.57 0.51 0.49 0.53 0.57 0.56 0.62 0.63 0.58 0.69 0.62 0.62 0.66 0.58 0.46 0.40 0.44 0.63 0.66 0.68 0.78 0.90 1.00 1.03 1.10 1.22 1.28 1.39 1.45 1.53 1.57 1.63 1.71 1.63 1.57 1.55 1.54 1.47 1.48 1.34 1.13 0.97 0.88
0.26 0.44 0.62 0.56 0.41 0.42 0.47 0.48 0.53 0.60 0.59 0.67 0.78 0.83 0.90 0.80 0.66 0.77 0.86 0.74 0.55 0.46 0.47 0.60 0.69 0.71 0.79 0.84 0.89 0.94 1.01 1.12 1.19 1.36 1.47 1.49 1.46 1.52 1.52 1.47 1.43 1.42 1.38 1.27 1.26 1.15 1.03 0.96 0.91
0.27 0.44 0.43 0.35 0.32 0.36 0.44 0.46 0.49 0.55 0.61 0.82 0.87 0.81 0.99 0.96 0.78 0.84 0.89 1.05 0.86 0.55 0.48 0.51 0.67 0.72 0.78 0.82 0.85 0.94 1.01 1.12 1.18 1.21 1.31 1.28 1.24 1.28 1.27 1.33 1.34 1.32 1.23 1.13 1.13 1.02 0.97 0.93 0.91
0.25 0.40 0.31 0.25 0.24 0.28 0.29 0.39 0.51 0.54 0.65 0.79 0.71 0.70 1.00 1.18 0.97 0.92 0.92 0.97 0.83 0.59 0.58 0.56 0.57 0.60 0.72 0.93 1.00 0.97 0.97 1.08 1.15 1.10 1.15 1.18 1.22 1.22 1.20 1.23 1.25 1.20 1.09 1.03 1.06 0.89 0.82 0.77 0.80
0.13 0.21 0.20 0.19 0.17 0.21 0.20 0.25 0.41 0.56 0.63 0.60 0.64 0.85 1.23 1.19 0.83 0.83 0.92 0.96 0.87 0.76 0.73 0.74 0.72 0.66 0.67 0.80 0.97 1.01 0.99 1.05 1.06 1.10 1.18 1.26 1.32 1.28 1.23 1.09 1.12 1.13 1.08 1.10 1.11 0.98 0.84 0.80 0.88
0.08 0.13 0.14 0.13 0.11 0.17 0.18 0.23 0.33 0.49 0.52 0.59 0.78 0.86 0.94 0.80 0.66 0.82 1.02 1.19 1.25 1.06 0.96 0.92 0.80 0.73 0.75 0.74 0.84 0.96 1.01 1.07 1.16 1.25 1.33 1.51 1.66 1.56 1.57 1.36 1.44 1.40 1.33 1.35 1.40 1.28 1.08 0.97 0.96
0.07 0.09 0.08 0.06 0.07 0.13 0.15 0.23 0.39 0.57 0.67 0.89 1.21 1.26 0.99 0.85 0.79 0.90 1.16 1.33 1.59 1.36 1.05 1.00 0.89 0.86 0.83 0.74 0.87 1.09 1.05 1.17 1.35 1.52 1.61 1.91 2.10 2.07 1.68 1.88 2.03 1.94 1.94 1.85 1.85 1.91 1.59 1.23 1.18
0.04 0.04 0.03 0.04 0.04 0.06 0.12 0.19 0.29 0.47 0.85 1.33 1.40 1.21 0.99 1.08 1.10 1.11 1.43 1.54 1.49 1.35 1.34 1.28 1.13 1.13 1.11 1.16 1.07 1.22 1.38 1.58 1.59 1.56 1.79 2.20 2.07 1.93 1.83 1.99 2.37 2.48 2.51 2.42 2.41 2.40 2.00 1.87 2.04
0.03 0.02 0.01 0.03 0.04 0.06 0.07 0.11 0.21 0.44 0.92 1.07 1.03 0.96 0.94 1.15 1.22 1.33 1.65 1.75 1.79 1.66 1.89 1.96 1.68 1.71 1.61 1.44 1.35 1.34 1.43 1.62 1.79 2.01 2.12 2.28 2.40 2.36 2.25 2.31 2.49 2.60 2.74 3.13 2.97 2.81 2.55 2.45 2.30
0.03 0.02 0.01 0.02 0.05 0.08 0.07 0.12 0.29 0.62 0.82 0.71 0.60 0.83 0.91 1.25 1.58 1.79 2.04 1.94 2.24 2.38 2.62 2.79 2.38 2.27 2.14 2.14 2.08 1.80 1.89 2.01 2.16 2.35 2.52 2.56 2.74 2.81 2.81 2.71 2.65 2.45 2.51 2.85 3.08 2.91 2.89 2.79 2.60
0.04 0.03 0.03 0.03 0.05 0.06 0.12 0.23 0.40 0.68 0.63 0.57 0.72 1.13 1.35 1.33 1.63 2.03 2.20 2.32 2.69 2.90 3.07 3.23 3.11 3.11 2.95 2.70 2.73 2.70 2.35 2.44 2.46 2.52 2.54 2.67 2.87 3.21 3.35 3.22 3.07 2.68 2.57 2.63 2.88 2.93 3.13 3.06 2.88
0.05 0.06 0.09 0.10 0.10 0.09 0.15 0.45 0.58 0.69 0.58 0.61 0.84 1.20 1.54 1.48 1.64 1.93 2.14 2.66 3.40 3.76 3.68 3.74 3.70 3.96 3.85 3.42 3.10 2.83 2.65 2.63 2.82 2.86 2.85 2.90 3.11 3.43 3.39 3.21 2.86 2.55 2.53 2.73 2.72 2.71 2.95 2.78 2.65
0.07 0.11 0.24 0.22 0.15 0.14 0.23 0.75 0.83 0.72 0.86 0.93 1.11 1.28 1.55 1.60 1.64 1.89 2.37 3.16 4.02 4.57 4.51 4.31 3.89 4.28 4.31 4.00 3.78 3.44 3.18 3.24 3.22 2.94 3.00 2.93 3.08 2.99 3.04 2.74 2.43 2.46 2.61 2.73 2.89 2.77 2.83 2.86 2.93
0.14 0.17 0.23 0.28 0.20 0.17 0.29 0.91 0.92 0.69 0.96 1.22 1.12 1.26 1.48 1.65 1.80 1.93 2.50 3.35 4.19 4.99 5.21 5.19 5.09 4.84 4.59 4.40 4.26 4.07 3.91 3.61 3.24 3.10 3.14 2.83 2.52 2.32 2.51 2.44 2.37 2.36 2.56 2.60 2.41 2.77 3.00 3.01 3.03
0.19 0.20 0.23 0.30 0.23 0.22 0.36 0.70 0.78 0.79 0.96 1.13 1.12 1.13 1.23 1.51 1.94 2.04 2.36 3.11 4.05 4.93 5.49 5.69 5.76 5.42 4.91 4.47 4.14 4.06 3.84 3.58 3.31 3.10 3.06 2.64 2.39 2.15 2.40 2.35 2.31 2.32 2.50 2.60 2.69 2.98 3.10 2.79 2.72
0.14 0.17 0.26 0.31 0.24 0.25 0.43 0.61 0.72 0.83 1.07 1.20 1.23 1.17 1.22 1.51 1.97 2.15 2.45 2.95 3.75 4.50 5.20 5.34 5.65 5.15 4.51 4.01 3.65 3.54 3.35 3.06 2.96 2.84 2.77 2.62 2.37 2.27 2.50 2.34 2.41 2.25 2.32 2.34 2.42 2.67 2.80 2.42 2.51
0.12 0.18 0.27 0.27 0.19 0.23 0.45 0.75 0.89 0.96 0.95 1.01 1.06 1.13 1.23 1.59 2.04 2.39 2.92 3.31 3.34 3.90 4.61 4.66 4.39 4.19 3.76 3.41 3.26 3.09 3.04 2.71 2.54 2.43 2.51 2.29 2.13 2.16 2.19 2.33 2.19 2.14 2.29 2.28 2.32 2.54 2.52 2.22 2.42
0.15 0.18 0.22 0.21 0.20 0.29 0.51 0.93 1.21 1.11 0.83 0.75 0.81 0.91 1.04 1.38 1.90 2.32 2.74 3.18 3.16 3.55 3.64 3.28 3.14 3.24 3.21 3.04 2.95 2.81 2.81 2.62 2.38 2.23 2.24 2.06 1.86 1.90 1.94 1.94 2.01 2.12 1.92 2.07 2.26 2.40 2.48 2.37 2.30
0.12 0.10 0.10 0.11 0.19 0.36 0.53 1.13 1.52 1.28 0.96 0.78 0.81 0.98 1.04 1.15 1.36 1.64 1.98 2.40 2.60 2.70 2.63 2.61 2.59 2.66 2.87 2.86 2.65 2.48 2.21 2.14 2.11 2.01 2.03 2.02 1.78 1.71 1.74 1.74 1.90 1.98 1.92 2.17 1.89 2.01 2.29 2.51 2.32
0.08 0.06 0.07 0.13 0.18 0.37 0.59 0.94 1.39 1.36 1.28 1.09 0.94 0.99 0.94 0.97 1.05 1.18 1.28 1.49 1.78 2.04 2.12 2.12 2.42 2.54 2.56 2.54 2.50 2.55 2.29 2.13 2.09 2.22 2.41 2.33 2.00 1.68 1.53 1.63 1.80 1.91 1.96 2.05 1.98 2.09 2.04 2.12 2.18
0.06 0.07 0.15 0.30 0.43 0.79 0.79 0.84 1.24 1.19 1.10 1.09 0.94 0.80 0.75 0.78 0.82 1.00 1.04 1.07 1.20 1.36 1.51 1.65 1.96 2.19 2.25 2.20 2.21 2.28 2.32 2.30 2.12 2.08 2.15 2.09 1.94 1.74 1.56 1.59 1.81 1.88 1.94 1.97 2.01 2.01 1.91 2.00 2.12
0.08 0.12 0.38 0.78 1.10 1.28 0.85 0.79 1.01 0.90 0.90 1.01 0.79 0.55 0.51 0.60 0.65 0.83 0.82 0.86 0.97 1.00 1.11 1.35 1.58 1.75 1.85 1.92 2.00 2.06 2.27 2.24 2.03 1.83 1.87 1.86 1.71 1.63 1.62 1.58 1.86 1.98 1.97 1.94 2.02 2.01 1.98 2.08 2.17
0.08 0.09 0.24 0.43 0.60 0.82 0.85 1.18 1.11 0.75 0.72 0.64 0.48 0.37 0.35 0.50 0.58 0.63 0.58 0.60 0.75 0.82 0.91 1.09 1.25 1.35 1.47 1.68 1.88 1.88 2.03 1.91 1.80 1.93 1.82 1.70 1.51 1.55 1.77 1.88 1.91 1.91 1.94 1.94 2.18 2.04 2.06 2.12 2.15
0.07 0.06 0.09 0.13 0.22 0.52 0.93 1.29 1.09 0.71 0.65 0.51 0.37 0.31 0.35 0.41 0.54 0.53 0.47 0.49 0.52 0.58 0.67 0.86 1.16 1.24 1.28 1.36 1.57 1.68 1.68 1.71 1.82 2.00 1.93 1.75 1.67 1.57 1.77 1.94 2.04 1.97 1.94 2.03 2.24 2.21 2.25 2.36 2.25
0.07 0.07 0.08 0.11 0.21 0.40 0.80 1.19 1.30 1.06 0.77 0.53 0.44 0.42 0.49 0.50 0.63 0.67 0.53 0.50 0.51 0.50 0.60 0.69 0.86 1.10 1.29 1.28 1.27 1.30 1.56 1.63 1.76 1.86 1.80 1.77 1.73 1.73 1.82 1.82 1.86 1.85 1.83 1.95 2.28 2.29 2.33 2.51 2.45
0.09 0.09 0.10 0.12 0.18 0.28 0.62 0.90 0.83 0.84 0.67 0.52 0.52 0.61 0.50 0.50 0.57 0.65 0.49 0.47 0.47 0.49 0.55 0.65 0.79 1.07 1.27 1.19 1.21 1.33 1.50 1.60 1.65 1.81 1.80 1.75 1.75 1.81 1.80 1.80 1.82 1.77 1.68 1.77 1.97 2.08 2.27 2.43 2.47
0.10 0.11 0.12 0.16 0.18 0.19 0.32 0.56 0.48 0.58 0.59 0.69 0.71 0.66 0.59 0.59 0.60 0.64 0.57 0.63 0.65 0.68 0.71 0.78 0.88 1.04 1.15 1.17 1.25 1.32 1.43 1.52 1.59 1.65 1.73 1.79 1.78 1.87 1.89 1.88 1.85 1.70 1.68 1.77 1.87 2.00 2.18 2.31 2.39

GEFSSGP_prec_meanprecacc_270.txt.gz
Total_Precipitation_Accumulation
0.09 0.22 0.46 0.88 1.85 2.12 1.72 0.95 0.63 0.50 0.49 0.59 0.58 0.55 0.74 1.04 1.36 1.93 1.39 0.75 0.49 0.45 0.57 0.76 0.97 1.05 1.06 1.01 1.14 1.28 1.30 1.41 1.59 1.79 2.04 2.04 2.08 2.12 2.03 2.06 2.24 2.38 2.39 2.29 2.15 1.97 1.79 1.58 1.40
0.16 0.39 0.65 1.09 2.02 2.30 1.79 0.92 0.61 0.45 0.49 0.61 0.69 0.65 0.60 0.68 0.54 0.66 0.96 0.95 0.55 0.46 0.54 0.67 0.79 0.88 0.95 0.99 1.14 1.29 1.35 1.43 1.53 1.60 1.78 1.86 1.96 2.05 2.11 2.12 2.05 2.07 2.02 1.97 1.90 1.70 1.55 1.38 1.17
0.29 0.47 0.70 1.18 1.40 1.48 1.28 0.78 0.55 0.48 0.50 0.65 0.71 0.55 0.56 0.75 0.59 0.65 0.78 0.73 0.54 0.48 0.55 0.70 0.71 0.80 0.92 1.00 1.18 1.25 1.32 1.45 1.47 1.50 1.60 1.72 1.82 1.91 2.06 2.03 1.90 1.86 1.88 1.86 1.76 1.61 1.43 1.21 1.05
0.32 0.51 0.64 0.81 0.71 0.61 0.57 0.51 0.50 0.54 0.57 0.56 0.63 0.64 0.58 0.70 0.63 0.63 0.68 0.61 0.51 0.45 0.50 0.70 0.74 0.76 0.87 1.02 1.12 1.13 1.19 1.31 1.37 1.46 1.52 1.60 1.65 1.72 1.88 1.80 1.75 1.74 1.76 1.72 1.70 1.53 1.27 1.07 0.97
0.27 0.47 0.67 0.58 0.42 0.42 0.48 0.48 0.53 0.61 0.60 0.68 0.79 0.85 0.92 0.82 0.66 0.77 0.87 0.75 0.59 0.51 0.53 0.67 0.78 0.81 0.87 0.92 0.99 1.03 1.08 1.20 1.28 1.45 1.55 1.56 1.53 1.60 1.67 1.62 1.59 1.64 1.60 1.48 1.45 1.31 1.14 1.05 1.00
0.30 0.49 0.46 0.36 0.32 0.36 0.44 0.46 0.49 0.55 0.61 0.82 0.87 0.83 1.01 0.97 0.78 0.84 0.89 1.06 0.88 0.58 0.53 0.59 0.79 0.85 0.87 0.90 0.92 1.00 1.07 1.18 1.25 1.28 1.37 1.34 1.30 1.36 1.41 1.51 1.55 1.52 1.39 1.31 1.31 1.17 1.08 1.01 0.99
0.31 0.45 0.33 0.26 0.25 0.29 0.29 0.39 0.51 0.54 0.65 0.79 0.71 0.71 1.02 1.20 0.98 0.93 0.93 0.98 0.85 0.62 0.62 0.62 0.66 0.71 0.83 1.02 1.07 1.04 1.04 1.13 1.20 1.16 1.22 1.24 1.27 1.30 1.33 1.39 1.40 1.37 1.26 1.22 1.22 1.05 0.94 0.85 0.87
0.20 0.25 0.21 0.20 0.17 0.21 0.20 0.25 0.41 0.56 0.63 0.60 0.64 0.86 1.24 1.20 0.83 0.84 0.92 0.96 0.89 0.80 0.76 0.78 0.77 0.73 0.73 0.86 1.04 1.05 1.04 1.10 1.11 1.17 1.26 1.34 1.40 1.37 1.36 1.18 1.20 1.24 1.22 1.24 1.23 1.11 0.93 0.88 0.95
0.11 0.15 0.15 0.13 0.11 0.17 0.18 0.23 0.33 0.49 0.52 0.59 0.78 0.86 0.95 0.81 0.66 0.83 1.03 1.21 1.29 1.09 1.00 0.96 0.85 0.78 0.80 0.78 0.87 1.00 1.05 1.12 1.21 1.32 1.40 1.59 1.74 1.66 1.68 1.43 1.50 1.46 1.41 1.44 1.49 1.36 1.15 1.03 1.03
0.09 0.10 0.09 0.07 0.07 0.13 0.15 0.23 0.39 0.57 0.67 0.90 1.21 1.26 1.00 0.86 0.80 0.92 1.18 1.35 1.61 1.38 1.08 1.05 0.94 0.90 0.88 0.77 0.89 1.13 1.09 1.21 1.40 1.58 1.67 1.97 2.18 2.15 1.75 1.95 2.09 2.00 1.99 1.91 1.91 1.97 1.64 1.29 1.26
0.04 0.04 0.03 0.04 0.04 0.06 0.12 0.19 0.29 0.47 0.85 1.33 1.40 1.22 1.00 1.09 1.12 1.13 1.45 1.55 1.51 1.36 1.37 1.33 1.18 1.16 1.14 1.20 1.09 1.24 1.41 1.63 1.64 1.62 1.87 2.27 2.14 1.99 1.89 2.05 2.45 2.54 2.56 2.48 2.47 2.46 2.05 1.92 2.10
0.03 0.02 0.01 0.03 0.04 0.06 0.08 0.11 0.21 0.44 0.92 1.07 1.03 0.97 0.95 1.16 1.24 1.34 1.67 1.76 1.80 1.68 1.92 2.00 1.72 1.75 1.64 1.47 1.38 1.35 1.45 1.66 1.82 2.08 2.22 2.35 2.46 2.42 2.31 2.37 2.54 2.65 2.79 3.19 3.03 2.87 2.60 2.50 2.35
0.03 0.02 0.01 0.02 0.05 0.08 0.07 0.12 0.29 0.62 0.82 0.71 0.60 0.84 0.92 1.25 1.59 1.80 2.05 1.95 2.25 2.40 2.65 2.83 2.41 2.31 2.18 2.18 2.11 1.82 1.92 2.04 2.19 2.42 2.63 2.64 2.81 2.87 2.88 2.78 2.71 2.50 2.55 2.89 3.14 2.97 2.95 2.86 2.65
0.04 0.03 0.03 0.03 0.05 0.06 0.12 0.23 0.40 0.68 0.63 0.57 0.72 1.13 1.35 1.34 1.64 2.04 2.21 2.33 2.72 2.93 3.10 3.25 3.14 3.14 2.98 2.73 2.76 2.72 2.37 2.46 2.49 2.58 2.65 2.76 2.94 3.28 3.42 3.29 3.14 2.74 2.62 2.68 2.94 2.98 3.19 3.12 2.94
0.05 0.07 0.10 0.10 0.10 0.09 0.15 0.46 0.58 0.69 0.58 0.61 0.84 1.20 1.54 1.48 1.64 1.94 2.17 2.68 3.41 3.78 3.70 3.76 3.73 3.99 3.89 3.46 3.13 2.84 2.66 2.64 2.85 2.91 2.96 2.99 3.17 3.50 3.47 3.29 2.94 2.61 2.58 2.78 2.78 2.76 3.00 2.84 2.72
0.08 0.15 0.26 0.23 0.16 0.15 0.24 0.76 0.83 0.73 0.86 0.93 1.11 1.28 1.56 1.61 1.66 1.91 2.39 3.18 4.04 4.59 4.52 4.34 3.93 4.32 4.35 4.05 3.82 3.45 3.18 3.25 3.25 2.98 3.10 3.02 3.15 3.06 3.11 2.82 2.50 2.51 2.65 2.79 2.97 2.85 2.91 2.94 3.02
0.15 0.21 0.27 0.29 0.20 0.18 0.29 0.92 0.93 0.69 0.96 1.22 1.12 1.27 1.48 1.66 1.81 1.95 2.52 3.36 4.21 5.01 5.24 5.23 5.14 4.89 4.63 4.44 4.30 4.11 3.93 3.64 3.29 3.14 3.20 2.90 2.59 2.38 2.58 2.52 2.44 2.41 2.61 2.66 2.46 2.86 3.09 3.09 3.11
0.20 0.21 0.25 0.31 0.24 0.22 0.36 0.70 0.78 0.79 0.96 1.13 1.12 1.13 1.24 1.52 1.95 2.07 2.39 3.13 4.07 4.97 5.53 5.73 5.81 5.48 4.98 4.52 4.19 4.13 3.89 3.65 3.38 3.16 3.12 2.70 2.45 2.21 2.46 2.44 2.38 2.37 2.55 2.66 2.77 3.06 3.18 2.87 2.80
0.15 0.18 0.26 0.31 0.24 0.25 0.43 0.61 0.72 0.84 1.07 1.21 1.23 1.17 1.22 1.53 1.98 2.16 2.47 2.96 3.77 4.53 5.25 5.38 5.70 5.19 4.55 4.07 3.71 3.60 3.43 3.13 3.02 2.91 2.85 2.70 2.43 2.34 2.59 2.44 2.50 2.32 2.39 2.40 2.48 2.74 2.87 2.49 2.57
0.12 0.18 0.27 0.28 0.20 0.23 0.45 0.75 0.90 0.96 0.95 1.03 1.07 1.13 1.23 1.59 2.04 2.39 2.92 3.32 3.36 3.91 4.63 4.69 4.41 4.22 3.80 3.46 3.31 3.14 3.10 2.78 2.62 2.50 2.59 2.37 2.20 2.26 2.30 2.42 2.26 2.20 2.35 2.33 2.37 2.60 2.59 2.28 2.48
0.15 0.18 0.22 0.21 0.20 0.29 0.51 0.96 1.25 1.11 0.84 0.75 0.81 0.91 1.04 1.38 1.90 2.32 2.74 3.19 3.17 3.57 3.66 3.30 3.15 3.26 3.23 3.08 2.97 2.84 2.86 2.68 2.44 2.30 2.31 2.12 1.93 1.97 2.01 2.00 2.07 2.17 1.96 2.12 2.31 2.45 2.53 2.43 2.36
0.12 0.11 0.10 0.11 0.19 0.37 0.54 1.17 1.57 1.30 0.96 0.78 0.81 0.98 1.04 1.15 1.36 1.64 1.98 2.40 2.61 2.71 2.64 2.62 2.60 2.67 2.88 2.88 2.66 2.50 2.25 2.19 2.15 2.07 2.08 2.07 1.82 1.75 1.78 1.79 1.96 2.03 1.96 2.22 1.93 2.05 2.33 2.55 2.38
0.08 0.06 0.07 0.13 0.19 0.38 0.60 0.96 1.43 1.37 1.28 1.09 0.94 0.99 0.94 0.97 1.05 1.19 1.28 1.49 1.78 2.04 2.12 2.12 2.42 2.55 2.57 2.55 2.51 2.57 2.32 2.17 2.13 2.26 2.46 2.38 2.05 1.72 1.55 1.66 1.85 1.97 2.02 2.10 2.03 2.14 2.09 2.17 2.23
0.07 0.07 0.16 0.31 0.45 0.81 0.80 0.85 1.26 1.19 1.10 1.09 0.94 0.80 0.75 0.78 0.82 1.00 1.04 1.07 1.21 1.36 1.51 1.65 1.96 2.20 2.26 2.21 2.21 2.29 2.34 2.33 2.16 2.13 2.21 2.13 1.98 1.79 1.60 1.62 1.85 1.94 2.01 2.04 2.08 2.06 1.96 2.04 2.17
0.08 0.12 0.42 0.83 1.13 1.29 0.86 0.80 1.01 0.90 0.90 1.01 0.79 0.55 0.51 0.60 0.65 0.83 0.82 0.86 0.97 1.00 1.12 1.35 1.58 1.75 1.85 1.92 2.00 2.07 2.28 2.26 2.05 1.86 1.92 1.90 1.75 1.67 1.67 1.61 1.89 2.02 2.03 1.99 2.09 2.06 2.03 2.14 2.22
0.08 0.10 0.26 0.48 0.64 0.85 0.86 1.19 1.11 0.75 0.72 0.65 0.48 0.38 0.36 0.50 0.58 0.63 0.58 0.60 0.75 0.82 0.91 1.10 1.26 1.36 1.47 1.68 1.89 1.89 2.04 1.92 1.82 1.95 1.84 1.74 1.54 1.58 1.80 1.90 1.93 1.94 1.97 1.98 2.25 2.10 2.11 2.18 2.20
0.07 0.06 0.09 0.15 0.23 0.53 0.94 1.31 1.10 0.72 0.66 0.51 0.37 0.31 0.37 0.41 0.54 0.53 0.47 0.49 0.53 0.58 0.67 0.87 1.16 1.25 1.28 1.37 1.58 1.69 1.69 1.72 1.83 2.02 1.94 1.78 1.71 1.61 1.81 1.97 2.07 2.01 1.98 2.08 2.30 2.27 2.31 2.41 2.29
0.07 0.07 0.08 0.11 0.22 0.42 0.81 1.21 1.34 1.09 0.78 0.53 0.44 0.42 0.49 0.50 0.63 0.67 0.54 0.51 0.52 0.51 0.60 0.70 0.86 1.10 1.29 1.28 1.27 1.31 1.57 1.63 1.77 1.87 1.80 1.78 1.75 1.77 1.85 1.85 1.89 1.90 1.88 2.01 2.33 2.34 2.37 2.57 2.51
0.09 0.09 0.10 0.12 0.19 0.32 0.65 0.94 0.88 0.86 0.68 0.54 0.54 0.62 0.50 0.50 0.58 0.65 0.49 0.47 0.47 0.50 0.56 0.66 0.79 1.07 1.27 1.19 1.22 1.34 1.51 1.60 1.65 1.82 1.81 1.76 1.77 1.85 1.84 1.83 1.86 1.82 1.74 1.84 2.04 2.14 2.33 2.48 2.52
0.10 0.11 0.12 0.16 0.18 0.20 0.35 0.60 0.54 0.61 0.60 0.69 0.71 0.67 0.59 0.59 0.61 0.65 0.57 0.64 0.66 0.69 0.71 0.78 0.88 1.04 1.15 1.17 1.25 1.32 1.43 1.52 1.60 1.66 1.74 1.81 1.80 1.90 1.94 1.92 1.89 1.74 1.74 1.85 1.94 2.06 2.23 2.35 2.43